[[{"header":{"parameterUnit":"m.s-1","parameterCategory":1,"la1":31.0,"la2":29.5877,"lo1":-88.7671,"lo2":-86.6584,"dy":0.0162,"dx":0.0185,"nx":115,"ny":88,"refTime":"2023-08-23T18:00:00:Z","depth":0,"parameterNumber":2,"parameterNumberName":"U-component_of_WINDS"},"data":[0.0,0.0,0.0,0.0,0.0,0.0,0.0,0.0,0.0,0.0,0.0,0.0,0.0,0.0,0.0,0.0,0.0,0.0,0.0,0.0,0.0,0.0,0.0,0.0,0.0,0.0,0.0,0.0,0.0,0.0,0.0,0.0,0.0,0.0,0.0,0.0,0.0,0.0,0.0,0.0,0.0,0.0,0.0,0.0,0.0,0.0,0.0,0.0,0.0,0.0,0.0,0.0,0.0,0.0,0.0,0.0,0.0,0.0,0.0,0.0,0.0,0.0,0.0,0.0,0.0,0.0,0.0,0.0,0.0,0.0,0.0,0.0,0.0,0.0,0.0,0.0,0.0,0.0,0.0,0.0,0.0,0.0,0.0,0.0,0.0,0.0,0.0,0.0,0.0,0.0,0.0,0.0,0.0,0.0,0.0,0.0,0.0,0.0,0.0,0.0,0.0,0.0,0.0,0.0,0.0,0.0,0.0,0.0,0.0,0.0,0.0,0.0,0.0,0.0,0.0,0.0,0.0,0.0,0.0,0.0,0.0,0.0,0.0,0.0,0.0,0.0,0.0,0.0,0.0,0.0,0.0,0.0,0.0,0.0,0.0,0.0,0.0,0.0,0.0,0.0,0.0,0.0,0.0,0.0,0.0,0.0,0.0,0.0,0.0,0.0,0.0,0.0,0.0,0.0,0.0,0.0,0.0,0.0,0.0,0.0,0.0,0.0,0.0,0.0,0.0,0.0,0.0,0.0,0.0,0.0,0.0,0.0,0.0,0.0,0.0,0.0,0.0,0.0,0.0,0.0,0.0,0.0,0.0,0.0,0.0,0.0,0.0,0.0,0.0,0.0,0.0,0.0,0.0,0.0,0.0,0.0,0.0,0.0,0.0,0.0,0.0,0.0,0.0,0.0,0.0,0.0,0.0,0.0,0.0,0.0,0.0,0.0,0.0,0.0,0.0,0.0,0.0,0.0,0.0,0.0,0.0,0.0,0.0,0.0,0.0,0.0,0.0,0.0,0.0,0.0,0.0,0.0,0.0,0.0,0.0,0.0,0.0,0.0,0.0,0.0,0.0,0.0,0.0,0.0,0.0,0.0,0.0,0.0,0.0,0.0,0.0,0.0,0.0,0.0,0.0,0.0,0.0,0.0,0.0,0.0,0.0,0.0,0.0,0.0,0.0,0.0,0.0,0.0,0.0,0.0,0.0,0.0,0.0,0.0,0.0,0.0,0.0,0.0,0.0,0.0,0.0,0.0,0.0,0.0,0.0,0.0,0.0,0.0,0.0,0.0,0.0,0.0,0.0,0.0,0.0,0.0,0.0,0.0,0.0,0.0,0.0,0.0,0.0,0.0,0.0,0.0,0.0,0.0,0.0,0.0,0.0,0.0,0.0,0.0,0.0,0.0,0.0,0.0,0.0,0.0,0.0,0.0,0.0,0.0,0.0,0.0,0.0,0.0,0.0,0.0,0.0,0.0,0.0,0.0,0.0,0.0,0.0,0.0,0.0,0.0,0.0,0.0,0.0,0.0,0.0,0.0,0.0,0.0,0.0,0.0,0.0,0.0,0.0,0.0,0.0,0.0,0.0,0.0,0.0,0.0,0.0,0.0,0.0,0.0,0.0,0.0,0.0,0.0,0.0,0.0,0.0,0.0,0.0,0.0,0.0,0.0,0.0,0.0,0.0,0.0,0.0,0.0,0.0,0.0,0.0,0.0,0.0,0.0,0.0,0.0,0.0,0.0,0.0,0.0,0.0,0.0,0.0,0.0,0.0,0.0,0.0,0.0,0.0,0.0,0.0,0.0,0.0,0.0,0.0,0.0,0.0,0.0,0.0,0.0,0.0,0.0,0.0,0.0,0.0,0.0,0.0,0.0,0.0,0.0,0.0,0.0,0.0,0.0,0.0,0.0,0.0,0.0,0.0,0.0,0.0,0.0,0.0,0.0,0.0,0.0,0.0,0.0,0.0,0.0,0.0,0.0,0.0,0.0,0.0,0.0,0.0,0.0,0.0,0.0,0.0,0.0,0.0,0.0,0.0,0.0,0.0,0.0,0.0,0.0,0.0,0.0,0.0,0.0,0.0,0.0,0.0,0.0,0.0,0.0,0.0,0.0,0.0,0.0,0.0,0.0,0.0,0.0,0.0,0.0,0.0,0.0,0.0,0.0,0.0,0.0,0.0,0.0,0.0,0.0,0.0,0.0,0.0,0.0,0.0,0.0,0.0,0.0,0.0,0.0,0.0,0.0,0.0,0.0,0.0,0.0,0.0,0.0,0.0,0.0,0.0,0.0,0.0,0.0,0.0,0.0,0.0,0.0,0.0,0.0,0.0,0.0,0.0,0.0,0.0,0.0,0.0,0.0,0.0,0.0,0.0,0.0,0.0,0.0,0.0,0.0,0.0,0.0,0.0,0.0,0.0,0.0,0.0,0.0,0.0,0.0,0.0,0.0,0.0,0.0,0.0,0.0,0.0,0.0,0.0,0.0,0.0,0.0,0.0,0.0,0.0,0.0,0.0,0.0,0.0,0.0,0.0,0.0,0.0,0.0,0.0,0.0,0.0,0.0,0.0,0.0,0.0,0.0,0.0,0.0,0.0,0.0,0.0,0.0,0.0,0.0,0.0,0.0,0.0,0.0,0.0,0.0,0.0,0.0,0.0,0.0,0.0,0.0,0.0,0.0,0.0,0.0,0.0,0.0,0.0,0.0,0.0,0.0,0.0,0.0,0.0,0.0,0.0,0.0,0.0,0.0,0.0,0.0,0.0,0.0,0.0,0.0,0.0,0.0,0.0,0.0,0.0,0.0,0.0,0.0,0.0,0.0,0.0,0.0,0.0,0.0,0.0,0.0,0.0,0.0,0.0,0.0,0.0,0.0,0.0,0.0,0.0,0.0,0.0,0.0,0.0,0.0,0.0,0.0,0.0,0.0,0.0,0.0,0.0,0.0,0.0,0.0,0.0,0.0,0.0,0.0,0.0,0.0,0.0,0.0,0.0,0.0,0.0,0.0,0.0,0.0,0.0,0.0,0.0,0.0,0.0,0.0,0.0,0.0,0.0,0.0,0.0,0.0,0.0,0.0,0.0,0.0,0.0,0.0,0.0,0.0,0.0,0.0,0.0,0.0,0.0,0.0,0.0,0.0,0.0,0.0,0.0,0.0,0.0,0.0,0.0,0.0,0.0,0.0,0.0,0.0,0.0,0.0,0.0,0.0,0.0,0.0,0.0,0.0,0.0,0.0,0.0,0.0,0.0,0.0,0.0,0.0,0.0,0.0,0.0,0.0,0.0,0.0,0.0,0.0,0.0,0.0,0.0,0.0,0.0,0.0,0.0,0.0,0.0,0.0,0.0,0.0,0.0,0.0,0.0,0.0,0.0,0.0,0.0,0.0,0.0,0.0,0.0,0.0,0.0,0.0,0.0,0.0,0.0,0.0,0.0,0.0,0.0,0.0,0.0,0.0,0.0,0.0,0.0,0.0,0.0,0.0,0.0,0.0,0.0,0.0,0.0,0.0,0.0,0.0,0.0,0.0,0.0,0.0,0.0,0.0,0.0,0.0,0.0,0.0,0.0,0.0,0.0,0.0,0.0,0.0,0.0,0.0,0.0,0.0,0.0,0.0,0.0,0.0,0.0,0.0,0.0,0.0,0.0,0.0,0.0,0.0,0.0,0.0,0.0,0.0,0.0,0.0,0.0,0.0,0.0,0.0,0.0,0.0,0.0,0.0,0.0,0.0,0.0,0.0,0.0,0.0,0.0,0.0,0.0,0.0,0.0,0.0,0.0,0.0,0.0,0.0,0.0,0.0,0.0,0.0,0.0,0.0,0.0,0.0,0.0,0.0,0.0,0.0,0.0,0.0,0.0,0.0,0.0,0.0,0.0,0.0,0.0,0.0,0.0,0.0,0.0,0.0,0.0,0.0,0.0,0.0,0.0,0.0,0.0,0.0,0.0,0.0,0.0,0.0,0.0,0.0,0.0,0.0,0.0,0.0,0.0,0.0,0.0,0.0,0.0,0.0,0.0,0.0,0.0,0.0,0.0,0.0,0.0,0.0,0.0,0.0,0.0,0.0,0.0,0.0,0.0,0.0,0.0,0.0,0.0,0.0,0.0,0.0,0.0,0.0,0.0,0.0,0.0,0.0,0.0,0.0,0.0,0.0,0.0,0.0,0.0,0.0,0.0,0.0,0.0,0.0,0.0,0.0,0.0,0.0,0.0,0.0,0.0,0.0,0.0,0.0,0.0,0.0,0.0,0.0,0.0,0.0,0.0,0.0,0.0,0.0,0.4745,0.0,0.0,0.0,0.0,0.0,0.0,0.0,0.0,0.0,0.0,0.0,0.0,0.0,0.0,0.0,0.0,0.0,0.0,0.0,0.0,0.0,0.0,0.0,0.0,0.0,0.0,0.0,0.0,0.0,0.0,0.0,0.0,0.0,0.0,0.0,0.0,0.0,0.0,0.0,0.0,0.0,0.0,0.0,0.0,0.0,0.0,0.0,0.0,0.0,0.0,0.0,0.0,0.0,0.0,0.0,0.0,0.0,0.0,0.0,0.0,0.0,0.0,0.0,0.0,0.0,0.0,0.0,0.0,0.0,0.0,0.0,0.0,0.0,0.0,0.0,0.0,0.0,0.0,0.0,0.0,0.0,0.0,0.0,0.0,0.0,0.0,0.0,0.0,0.0,0.0,0.0,0.0,0.0,0.0,0.0,0.0,0.0,0.0,0.0,0.0,0.0,0.0,0.0,0.0,0.0,0.0,0.0,0.0,0.0,0.0,0.4191,0.4508,0.4659,0.4803,0.4997,0.0,0.0,0.0,0.0,0.0,0.0,0.0,0.0,0.0,0.0,0.0,0.0,0.0,0.0,0.0,0.0,0.0,0.0,0.0,0.0,0.0,0.0,0.0,0.0,0.0,0.0,0.0,0.0,0.0,0.0,0.0,0.0,0.0,0.0,0.0,0.0,0.0,0.0,0.0,0.0,0.0,0.0,0.0,0.0,0.0,0.0,0.0,0.0,0.0,0.0,0.0,0.0,0.0,0.0,0.0,0.0,0.0,0.0,0.0,0.0,0.0,0.0,0.0,0.0,0.0,0.0,0.0,0.0,0.0,0.0,0.0,0.0,0.0,0.0,0.0,0.0,0.0,0.0,0.0,0.0,0.0,0.0,0.0,0.0,0.0,0.0,0.0,0.0,0.0,0.0,0.0,0.0,0.0,0.0,0.0,0.0,0.0,0.0,0.0,0.0,0.0,0.0,0.0,0.0,0.0,0.0,0.0,0.0,0.0,0.0,0.0,0.0,0.4868,0.4958,0.5018,0.0,0.0,0.0,0.0,0.0,0.0,0.0,0.0,0.0,0.0,0.0,0.0,0.0,0.0,0.0,0.0,0.0,0.0,0.0,0.0,0.0,0.0,0.0,0.0,0.0,0.0,0.0,0.0,0.0,0.0,0.0,0.0,0.0,0.0,0.0,0.0,0.0,0.0,0.0,0.0,0.0,0.0,0.0,0.0,0.0,0.0,0.0,0.0,0.0,0.0,0.0,0.0,0.0,0.0,0.0,0.0,0.0,0.0,0.0,0.0,0.0,0.0,0.0,0.0,0.0,0.0,0.0,0.0,0.0,0.0,0.0,0.0,0.0,0.0,0.0,0.0,0.0,0.0,0.0,0.0,0.0,0.0,0.0,0.0,0.0,0.0,0.0,0.0,0.0,0.0,0.0,0.0,0.0,0.0,0.0,0.0,0.0,0.0,0.0,0.0,0.0,0.0,0.0,0.0,0.0,0.0,0.0,0.0,0.0,0.0,0.4734,0.4879,0.4943,0.0,0.5088,0.0,0.0,0.0,0.0,0.0,0.0,0.0,0.0,0.0,0.0,0.0,0.0,0.0,0.0,0.0,0.0,0.0,0.0,0.0,0.0,0.0,0.0,0.0,0.0,0.0,0.0,0.0,0.0,0.0,0.0,0.0,0.0,0.0,0.0,0.0,0.0,0.0,0.0,0.0,0.0,0.0,0.0,0.0,0.0,0.0,0.0,0.0,0.0,0.0,0.0,0.0,0.0,0.0,0.0,0.0,0.0,0.0,0.0,0.0,0.0,0.0,0.0,0.0,0.0,0.0,0.0,0.0,0.0,0.0,0.0,0.0,0.0,0.0,0.0,0.0,0.0,0.0,0.0,0.0,0.0,0.0,0.0,0.0,0.0,0.0,0.0,0.0,0.0,0.0,0.0,0.0,0.0,0.0,0.0,0.0,0.0,0.0,0.0,0.0,0.0,0.0,0.0,0.0,0.0,0.0,0.0,0.0,0.0,0.0,0.0,0.4838,0.4964,0.5031,0.5058,0.0,0.0,0.0,0.0,0.0,0.0,0.0,0.0,0.0,0.0,0.0,0.0,0.0,0.0,0.0,0.0,0.0,0.0,0.0,0.0,0.0,0.0,0.0,0.0,0.0,0.0,0.0,0.0,0.0,0.0,0.0,0.0,0.0,0.0,0.0,0.0,0.0,0.0,0.0,0.0,0.0,0.0,0.0,0.0,0.0,0.0,0.0,0.0,0.0,0.0,0.0,0.0,0.0,0.0,0.0,0.0,0.0,0.0,0.0,0.0,0.0,0.0,0.0,0.0,0.0,0.0,0.0,0.0,0.0,0.0,0.0,0.0,0.0,0.0,0.0,0.0,0.0,0.0,0.0,0.0,0.0,0.0,0.0,0.0,0.0,0.0,0.0,0.0,0.0,0.0,0.0,0.0,0.0,0.0,0.0,0.0,0.0,0.0,0.0,0.0,0.0,0.0,0.0,0.0,0.0,0.0,0.0,0.0,0.0,0.0,0.4809,0.4884,0.501,0.5069,0.5095,0.5095,0.0,0.0,0.0,0.0,0.0,0.0,0.0,0.0,0.0,0.0,0.0,0.0,0.0,0.0,0.0,0.0,0.0,0.0,0.0,0.0,0.0,0.0,0.0,0.0,0.0,0.0,0.0,0.0,0.0,0.0,0.0,0.0,0.0,0.0,0.0,0.0,0.0,0.0,0.0,0.0,0.0,0.0,0.0,0.0,0.0,0.0,0.0,0.0,0.0,0.0,0.0,0.0,0.0,0.0,0.0,0.0,0.0,0.0,0.0,0.0,0.0,0.0,0.0,0.0,0.0,0.0,0.0,0.0,0.0,0.0,0.0,0.0,0.0,0.0,0.0,0.0,0.0,0.0,0.0,0.0,0.0,0.0,0.0,0.0,0.0,0.0,0.0,0.0,0.0,0.0,0.0,0.0,0.0,0.0,0.0,0.0,0.0,0.0,0.0,0.0,0.0,0.0,0.0,0.0,0.0,0.0,0.0,0.0,0.4938,0.4938,0.4984,0.5146,0.5116,0.5113,0.0,0.0,0.0,0.0,0.0,0.0,0.0,0.0,0.0,0.0,0.0,0.0,0.0,0.0,0.0,0.0,0.0,0.0,0.0,0.0,0.0,0.0,0.0,0.0,0.0,0.0,0.0,0.0,0.0,0.0,0.0,0.0,0.0,0.0,0.0,0.0,0.0,0.0,0.0,0.0,0.0,0.0,0.0,0.0,0.0,0.0,0.0,0.0,0.0,0.0,0.0,0.0,0.0,0.0,0.0,0.0,0.0,0.0,0.0,0.0,0.0,0.0,0.0,0.0,0.0,0.0,0.0,0.0,0.0,0.0,0.0,0.0,0.0,0.0,0.0,0.0,0.0,0.0,0.0,0.0,0.0,0.0,0.0,0.0,0.0,0.0,0.0,0.0,0.0,0.0,0.0,0.0,0.0,0.0,0.0,0.0,0.0,0.0,0.0,0.0,0.0,0.0,0.0,0.0,0.0,0.0,0.0,0.0,0.0,0.6561,0.6612,0.6663,0.6759,0.6757,0.65,0.0,0.0,0.0,0.0,0.0,0.0,0.0,0.0,0.0,0.0,0.0,0.0,0.0,0.0,0.0,0.0,0.0,0.0,0.0,0.0,0.0,0.0,0.0,0.0,0.0,0.0,0.0,0.0,0.0,0.0,0.0,0.0,0.0,0.0,0.0,0.0,0.0,0.0,0.0,0.0,0.0,0.0,0.0,0.0,0.0,0.0,0.0,0.0,0.0,0.0,0.0,0.0,0.0,0.0,0.0,0.0,0.0,0.0,0.0,0.0,0.0,0.0,0.0,0.0,0.0,0.0,0.0,0.0,0.0,0.0,0.0,0.0,0.0,0.0,0.0,0.0,0.0,0.0,0.0,0.0,0.0,0.0,0.0,0.0,0.0,0.0,0.0,0.0,0.0,0.0,0.0,0.0,0.0,0.0,0.0,0.0,0.0,0.0,0.0,0.0,0.0,0.0,0.0,0.0,0.0,0.0,0.0,0.0,0.0,0.7544,0.0,0.7623,0.7685,0.7695,0.7416,0.0,0.0,0.0,0.0,0.0,0.0,0.0,0.0,0.0,0.0,0.0,0.0,0.0,0.0,0.0,0.0,0.0,0.0,0.0,0.0,0.0,0.0,0.0,0.0,0.0,0.0,0.0,0.0,0.0,0.0,0.0,0.0,0.0,0.0,0.0,0.0,0.0,0.0,0.0,0.0,0.0,0.0,0.0,0.0,0.0,0.0,0.0,0.0,0.0,0.0,0.0,0.0,0.0,0.0,0.0,0.0,0.0,0.0,0.0,0.0,0.0,0.0,0.0,0.0,0.0,0.0,0.0,0.0,0.0,0.0,0.0,0.0,0.0,0.0,0.0,0.0,0.0,0.0,0.0,0.0,0.0,0.0,0.0,0.0,0.0,0.0,0.0,0.0,0.0,0.0,0.0,0.0,0.0,0.0,0.0,0.0,0.0,0.0,0.0,0.0,0.0,0.0,0.0,0.0,0.0,0.0,0.0,0.0,0.7608,0.7661,0.767,0.7768,0.7732,0.7792,0.776,0.0,0.0,0.0,0.0,0.0,0.0,0.0,0.0,0.0,0.0,0.0,0.0,0.0,0.0,0.0,0.0,0.0,0.0,0.0,0.0,0.0,0.0,0.0,0.0,0.0,0.0,0.0,0.0,0.0,0.0,0.0,0.0,0.0,0.0,0.0,0.0,0.0,0.0,0.0,0.0,0.0,0.0,0.0,0.0,0.0,0.0,0.0,0.0,0.0,0.0,0.0,0.0,0.0,0.0,0.0,0.0,0.0,0.0,0.0,0.0,0.0,0.0,0.0,0.0,0.0,0.0,0.0,0.0,0.0,0.0,0.0,0.0,0.0,0.0,0.0,0.0,0.0,0.0,0.0,0.0,0.0,0.0,0.0,0.0,0.0,0.0,0.0,0.0,0.0,0.0,0.0,0.0,0.0,0.0,0.0,0.0,0.0,0.0,0.0,0.0,0.0,0.0,0.0,0.0,0.0,0.0,0.0,0.0,0.0,0.9353,0.9361,0.9421,0.9486,0.9492,0.9207,0.0,0.0,0.0,0.0,0.0,0.0,0.0,0.0,0.0,0.0,0.0,0.0,0.0,0.0,0.0,0.0,0.0,0.0,0.0,0.0,0.0,0.0,0.0,0.0,0.0,0.0,0.0,0.0,0.0,0.0,0.0,0.0,0.0,0.0,0.0,0.0,0.0,0.0,0.0,0.0,0.0,0.0,0.0,0.0,0.0,0.0,0.0,0.0,0.0,0.0,0.0,0.0,0.0,0.0,0.0,0.0,0.0,0.0,0.0,0.0,0.0,0.0,0.0,0.0,0.0,0.0,0.0,0.0,0.0,0.0,0.0,0.0,0.0,0.0,0.0,0.0,0.0,0.0,0.0,0.0,0.0,0.0,0.0,0.0,0.0,0.0,0.0,0.0,0.0,0.0,0.0,0.0,0.0,0.0,0.0,0.0,0.0,0.0,0.0,0.0,0.0,0.0,0.0,0.0,0.0,0.0,0.0,0.0,0.0,1.0631,1.0989,1.1032,1.0738,1.0741,1.0493,0.9958,0.0,0.0,0.0,0.0,0.0,0.0,0.0,0.0,0.0,0.0,0.0,0.0,0.0,0.0,0.0,0.0,0.0,0.0,0.0,0.0,0.0,0.0,0.0,0.0,0.0,0.0,0.0,0.0,0.0,0.0,0.0,0.0,0.0,0.0,0.0,0.0,0.0,0.0,0.0,0.0,0.0,0.0,0.0,0.0,0.0,0.0,0.0,0.0,0.0,0.0,0.0,0.0,0.0,0.0,0.0,0.0,0.0,0.0,0.0,0.0,0.0,0.0,0.0,0.0,0.0,0.0,0.0,0.0,0.0,0.0,0.0,0.0,0.0,0.0,0.0,0.0,0.0,0.0,0.0,0.0,0.0,0.0,0.0,0.0,0.0,0.0,0.0,0.0,0.0,0.0,0.0,0.0,0.0,0.0,0.0,0.0,0.0,0.0,0.0,0.0,0.0,0.0,0.0,0.0,0.0,0.0,0.0,0.0,1.1496,1.2391,1.2435,1.1601,1.1578,1.156,0.0,0.0,0.0,0.0,0.0,0.0,0.0,0.0,0.0,0.0,0.0,0.0,0.0,0.0,0.0,0.0,0.0,0.0,0.0,0.0,0.0,0.0,0.0,0.0,0.0,0.0,0.0,0.0,0.0,0.0,0.0,0.0,0.0,0.0,0.0,0.0,0.0,0.0,0.0,0.0,0.0,0.0,0.0,0.0,0.0,0.0,0.0,0.0,0.0,0.0,0.0,0.0,0.0,0.0,0.0,0.0,0.0,0.0,0.0,0.0,0.0,0.0,0.0,0.0,0.0,0.0,0.0,0.0,0.0,0.0,0.0,0.0,0.0,0.0,0.0,0.0,0.0,0.0,0.0,0.0,0.0,0.0,0.0,0.0,0.0,0.0,0.0,0.0,0.0,0.0,0.0,0.0,0.0,0.0,0.0,0.0,0.0,0.0,0.0,0.0,0.0,0.0,0.0,0.0,0.0,0.0,0.0,0.0,0.0,1.1533,1.2985,1.3345,1.25,1.2467,1.2146,0.0,0.0,0.0,0.0,0.0,0.0,0.0,0.0,0.0,0.0,0.0,0.0,0.0,0.0,0.0,0.0,0.0,0.0,0.0,0.0,0.0,0.0,0.0,0.0,0.0,0.0,0.0,0.0,0.0,0.0,0.0,0.0,0.0,0.0,0.0,0.0,0.0,0.0,0.0,0.0,0.0,0.0,0.0,0.0,0.0,0.0,0.0,0.0,0.0,0.0,0.0,0.0,0.0,0.0,0.0,0.0,0.0,0.0,0.0,0.0,0.0,0.0,0.0,0.0,0.0,0.0,0.0,0.0,0.0,0.0,0.0,0.0,0.0,0.0,0.0,0.0,0.0,0.0,0.0,0.0,0.0,0.0,0.0,0.0,0.0,0.0,0.0,0.0,0.0,0.0,0.0,0.0,0.0,0.0,0.0,0.0,0.0,0.0,0.0,0.0,0.0,0.0,0.0,0.0,0.0,0.0,0.0,0.0,1.127,1.2021,1.3045,1.3652,1.3837,1.3535,1.3105,0.0,0.0,0.0,0.0,0.0,0.0,0.0,0.0,0.0,0.0,0.0,0.0,0.0,0.0,0.0,0.0,0.0,0.0,0.0,0.0,0.0,0.0,0.0,0.0,0.0,0.0,0.0,0.0,0.0,0.0,0.0,0.0,0.0,0.0,0.0,0.0,0.0,0.0,0.0,0.0,0.0,0.0,0.0,0.0,0.0,0.0,0.0,0.0,0.0,0.0,0.0,0.0,0.0,0.0,0.0,0.0,0.0,0.0,0.0,0.0,0.0,0.0,0.0,0.0,0.0,0.0,0.0,0.0,0.0,0.0,0.0,0.0,0.0,0.0,0.0,0.0,0.0,0.0,0.0,0.0,0.0,0.0,0.0,0.0,0.0,0.0,0.0,0.0,0.0,0.0,0.0,0.0,0.0,0.0,0.0,0.0,0.0,0.0,0.0,0.0,0.0,0.0,0.0,0.0,0.0,0.0,0.0,0.0,1.0997,1.2626,1.2744,1.3511,1.4934,1.45,1.4089,0.0,0.0,0.0,0.0,0.0,0.0,0.0,0.0,0.0,0.0,0.0,0.0,0.0,0.0,0.0,0.0,0.0,0.0,0.0,0.0,0.0,0.0,0.0,0.0,0.0,0.0,0.0,0.0,0.0,0.0,0.0,0.0,0.0,0.0,0.0,0.0,0.0,0.0,0.0,0.0,0.0,0.0,0.0,0.0,0.0,0.0,0.0,0.0,0.0,0.0,0.0,0.0,0.0,0.0,0.0,0.0,0.0,0.0,0.0,0.0,0.0,0.0,0.0,0.0,0.0,0.0,0.0,0.0,0.0,0.0,0.0,0.0,0.0,0.0,0.0,0.0,0.0,0.0,0.0,0.0,0.0,0.0,0.0,0.0,0.0,0.0,0.0,0.0,0.0,0.0,0.0,0.0,0.0,0.0,0.0,0.0,0.0,0.0,0.0,0.0,0.0,0.0,0.0,0.0,0.0,0.0,0.0,0.0,1.07,1.1747,1.2441,1.2951,1.3253,1.4362,1.4302,0.0,0.0,0.0,0.0,0.0,0.0,0.0,0.0,0.0,0.0,0.0,0.0,0.0,0.0,0.0,0.0,0.0,0.0,0.0,0.0,0.0,0.0,0.0,0.0,0.0,0.0,0.0,0.0,0.0,0.0,0.0,0.0,0.0,0.0,0.0,0.0,0.0,0.0,0.0,0.0,0.0,0.0,0.0,0.0,0.0,0.0,0.0,0.0,1.3738,0.0,0.0,0.0,0.0,0.0,0.0,0.0,0.0,0.0,0.0,0.0,0.0,0.0,0.0,0.0,0.0,0.0,0.0,0.0,0.0,0.0,0.0,0.0,0.0,0.0,0.0,0.0,0.0,0.0,0.0,0.0,0.0,0.0,0.0,0.0,0.0,0.0,0.0,0.0,0.0,0.0,0.0,0.0,0.0,0.0,0.0,0.0,0.0,0.0,0.0,0.0,0.0,0.0,0.0,0.0,0.0,0.0,0.0,0.0,1.0421,1.0877,1.1347,1.1529,1.1474,1.2242,1.2597,0.0,0.0,0.0,0.0,0.0,0.0,0.0,0.0,0.0,0.0,0.0,0.0,0.0,0.0,0.0,0.0,0.0,0.0,0.0,0.0,0.0,0.0,0.0,0.0,0.0,0.0,0.0,0.0,0.0,0.0,0.0,0.0,0.0,0.0,0.0,0.0,0.0,0.0,0.0,0.0,0.0,0.0,0.0,0.0,0.0,0.0,0.0,0.0,0.0,0.0,0.0,0.0,0.0,0.0,0.0,0.0,0.0,0.0,0.0,0.0,0.0,0.0,0.0,0.0,0.0,0.0,0.0,0.0,0.0,0.0,0.0,0.0,0.0,0.0,0.0,0.0,0.0,0.0,0.0,0.0,0.0,0.0,0.0,0.0,0.0,0.0,0.0,0.0,0.0,0.0,0.0,0.0,0.0,0.0,0.0,0.0,0.0,0.0,0.0,0.0,0.0,0.0,0.0,0.0,0.0,0.0,0.0,1.0088,1.0024,1.0005,0.9979,0.9841,0.9581,0.9519,1.0126,1.1326,0.0,0.0,0.0,0.0,0.0,0.0,0.0,0.0,0.0,0.0,0.0,0.0,0.0,0.0,0.0,0.0,0.0,0.0,0.0,0.0,0.0,0.0,0.0,0.0,0.0,0.0,0.0,0.0,0.0,0.0,0.0,0.0,0.0,0.0,0.0,0.0,0.0,0.0,1.0382,1.0399,0.0,0.0,0.0,0.0,0.0,0.0,0.0,0.0,1.4914,0.0,0.0,0.0,0.0,0.0,0.0,0.0,0.0,0.0,0.0,0.0,0.0,0.0,0.0,0.0,0.0,0.0,0.0,0.0,0.0,0.0,0.0,0.0,0.0,0.0,0.0,0.0,0.0,0.0,0.0,0.0,0.0,0.0,0.0,0.0,0.0,0.0,0.0,0.0,0.0,0.0,0.0,0.0,0.0,0.0,0.0,0.0,0.0,0.0,0.0,0.0,0.0,0.0,0.0,0.0,0.0,1.0274,0.9578,0.9163,0.9121,0.9017,0.8511,0.7646,0.8033,0.8004,0.7422,0.0,0.0,0.0,0.0,0.0,0.0,0.0,0.0,0.0,0.0,0.0,0.0,0.0,0.0,0.0,0.0,0.0,0.0,0.0,0.0,0.0,0.0,0.0,0.0,0.0,0.0,0.0,0.0,0.0,0.0,0.0,0.0,0.0,0.0,0.0,0.0,0.0,0.0,0.0,1.1288,1.1596,0.0,0.0,0.0,0.0,0.0,0.0,0.0,0.0,1.4914,0.0,0.0,0.0,0.0,0.0,0.0,0.0,0.0,0.0,0.0,0.0,0.0,0.0,0.0,0.0,0.0,0.0,0.0,0.0,0.0,0.0,0.0,0.0,0.0,0.0,0.0,0.0,0.0,0.0,0.0,0.0,0.0,0.0,0.0,0.0,0.0,0.0,0.0,0.0,0.0,0.0,0.0,0.0,0.0,0.0,0.0,0.0,0.0,0.0,0.0,0.0,0.0,0.0,0.0,0.0,0.8906,0.8457,0.7947,0.7412,0.7191,0.6525,0.5388,0.5385,0.5328,0.0,0.0,0.0,0.0,0.0,0.0,0.0,0.0,0.0,0.0,0.0,0.0,0.0,0.0,0.0,0.0,0.0,0.0,0.0,0.0,0.0,0.0,0.0,0.0,0.0,0.0,0.0,0.0,0.0,0.0,0.0,0.0,0.0,0.0,0.0,0.0,0.0,0.0,0.0,0.0,1.2182,1.2493,1.3306,0.0,0.0,0.0,0.0,0.0,0.0,1.4984,1.485,0.0,0.0,0.0,0.0,0.0,0.0,0.0,0.0,0.0,0.0,0.0,0.0,0.0,0.0,0.0,0.0,0.0,0.0,0.0,0.0,0.0,0.0,0.0,0.0,0.0,0.0,0.0,0.0,0.0,0.0,0.0,0.0,0.0,0.0,0.0,0.0,0.0,0.0,0.0,0.0,0.0,0.0,0.0,0.0,0.0,0.0,0.0,0.0,0.0,0.0,0.0,0.0,0.0,0.0,0.0,0.7339,0.7016,0.6424,0.56,0.5133,0.4381,0.332,0.2875,0.2913,0.0,0.0,0.0,0.0,0.0,0.0,0.0,0.0,0.0,0.0,0.0,0.0,0.0,0.0,0.0,0.0,0.0,0.0,0.0,0.0,0.0,0.0,0.0,0.0,0.0,0.0,0.0,0.0,0.0,0.0,0.0,0.0,0.0,0.0,0.0,0.0,0.0,0.0,0.0,0.0,0.0,1.3367,1.4143,1.4264,0.0,0.0,0.0,0.0,1.5108,1.4933,0.0,0.0,0.0,0.0,0.0,0.0,0.0,0.0,0.0,0.0,0.0,0.0,0.0,0.0,0.0,0.0,0.0,0.0,0.0,0.0,0.0,0.0,0.0,0.0,0.0,0.0,0.0,0.0,0.0,0.0,0.0,0.0,0.0,0.0,0.0,0.0,0.0,0.0,0.0,0.0,0.0,0.0,0.0,0.0,0.0,0.0,0.0,0.0,0.0,0.0,0.0,0.0,0.0,0.0,0.0,0.0,0.633,0.5179,0.4445,0.4124,0.3063,0.233,0.1929,0.1644,0.1559,0.0,0.0,0.0,0.0,0.0,0.0,0.0,0.0,0.0,0.0,0.0,0.0,0.0,0.0,0.0,0.0,0.0,0.0,0.0,0.0,0.0,0.0,0.0,0.0,0.0,0.0,0.0,0.0,0.0,0.0,0.0,0.0,0.0,0.0,0.0,0.0,0.0,0.0,0.0,0.0,0.0,1.4244,1.5047,1.5152,1.5155,0.0,0.0,1.5168,1.5101,1.4936,0.0,0.0,0.0,0.0,0.0,0.0,0.0,0.0,0.0,0.0,0.0,0.0,0.0,0.0,0.0,0.0,0.0,0.0,0.0,0.0,0.0,0.0,0.0,0.0,0.0,0.0,0.0,0.0,0.0,0.0,0.0,0.0,0.0,0.0,0.0,0.0,0.0,0.0,0.0,0.0,0.0,0.0,0.0,0.0,0.0,0.0,0.0,0.0,0.0,0.0,0.0,0.0,0.0,0.0,0.0,0.481,0.3894,0.3166,0.2627,0.2307,0.1651,0.1154,0.085,0.0446,0.0306,0.0,0.0,0.0,0.0,0.0,0.0,0.0,0.0,0.0,0.0,0.0,0.0,0.0,0.0,0.0,0.0,0.0,0.0,0.0,0.0,0.0,0.0,0.0,0.0,0.0,0.0,0.0,0.0,0.0,0.0,0.0,0.0,0.0,0.0,0.0,0.0,0.0,0.0,0.0,0.0,0.0,0.0,1.5249,1.5284,0.0,0.0,0.0,1.5168,1.5106,0.0,0.0,0.0,0.0,0.0,0.0,0.0,0.0,0.0,0.0,0.0,0.0,0.0,0.0,0.0,0.0,0.0,0.0,0.0,0.0,0.0,0.0,0.0,0.0,0.0,0.0,0.0,0.0,0.0,0.0,0.0,0.0,0.0,0.0,0.0,0.0,0.0,0.0,0.0,0.0,0.0,0.0,0.0,0.0,0.0,0.0,0.0,0.0,0.0,0.0,0.0,0.0,0.0,0.0,0.0,0.0,0.0,0.1685,0.1332,0.0971,0.058,0.0298,0.0047,-0.0245,-0.0684,0.0,0.0,0.0,0.0,0.0,0.0,0.0,0.0,0.0,0.0,0.0,0.0,0.0,0.0,0.0,0.0,0.0,0.0,0.0,0.0,0.0,0.0,0.0,0.0,0.0,0.0,0.0,0.7224,0.0,0.0,0.0,0.0,0.0,0.0,0.0,0.0,0.0,0.0,0.0,0.0,0.0,0.0,1.5299,1.5292,1.5299,1.5269,0.0,0.0,1.5182,1.5113,1.4928,1.4678,0.0,0.0,0.0,0.0,0.0,0.0,0.0,0.0,0.0,0.0,0.0,0.0,0.0,0.0,0.0,0.0,0.0,0.0,0.0,0.0,0.0,0.0,0.0,0.0,0.0,0.0,0.0,0.0,0.0,0.0,0.0,0.0,0.0,0.0,0.0,0.0,0.0,0.0,0.0,0.0,0.0,0.0,0.0,0.0,0.0,0.0,0.0,0.0,0.0,0.0,0.0,0.0,0.0,0.0,0.1417,0.0525,0.0,-0.044,-0.0834,-0.1133,-0.132,-0.1472,-0.1696,-0.1706,0.0,0.0,0.0,0.0,0.0,0.0,0.0,0.0,0.0,0.0,0.0,0.0,0.0,0.0,0.0,0.0,0.0,0.0,0.0,0.0,0.0,0.0,0.0,0.0,0.0,0.0,0.0,0.0,0.0,0.0,0.0,0.0,0.0,0.0,0.0,0.0,0.0,0.0,0.0,0.0,0.0,1.5295,1.5295,1.5298,1.5275,0.0,1.5207,1.5171,1.5106,1.4928,1.4698,1.4434,0.0,0.0,0.0,0.0,0.0,0.0,0.0,0.0,0.0,0.0,0.0,0.0,0.0,0.0,0.0,0.0,0.0,0.0,0.0,0.0,0.0,0.0,0.0,0.0,0.0,0.0,0.0,0.0,0.0,0.0,0.0,0.0,0.0,0.0,0.0,0.0,0.0,0.0,0.0,0.0,0.0,0.0,0.0,0.0,0.0,0.0,0.0,0.0,0.0,0.0,0.0,0.0,0.0,0.0527,-0.0452,-0.079,-0.114,-0.149,-0.1674,-0.1816,-0.1899,-0.2104,-0.2176,0.0,0.0,0.0,0.0,0.0,0.0,0.0,0.0,0.0,0.0,0.0,0.0,0.0,0.0,0.0,0.0,0.0,0.0,0.0,0.0,0.0,0.0,0.0,0.0,0.0,0.0,0.0,0.0,0.6091,0.4887,0.4016,0.0,0.0,0.0,0.0,0.0,0.0,0.0,0.0,0.0,0.0,1.5284,1.5287,1.5293,0.0,0.0,1.5201,1.5165,1.5045,1.4877,1.4664,1.4434,1.4242,0.0,0.0,0.0,0.0,0.0,0.0,0.0,0.0,0.0,0.0,0.0,0.0,0.0,0.0,0.0,0.0,0.0,0.0,0.0,0.0,0.0,0.0,0.0,0.0,0.0,0.0,0.0,0.0,0.0,0.0,0.0,0.0,0.0,0.0,0.0,0.0,0.0,0.0,0.0,0.0,0.0,0.0,0.0,0.0,0.0,0.0,0.0,0.0,0.0,0.0,0.0,0.0,0.0032,-0.0995,-0.1164,-0.1384,-0.1649,-0.1806,-0.191,-0.2025,-0.2304,-0.2461,0.0,0.0,0.0,0.0,0.0,0.0,0.0,0.0,0.0,0.0,0.0,0.0,0.0,0.0,0.0,0.0,0.0,0.0,0.0,0.0,0.0,0.0,0.0,0.0,0.0,0.0,0.0,0.0,0.6306,0.4955,0.4791,0.0,0.0,0.0,0.0,0.0,0.0,0.0,0.0,0.0,0.0,1.5299,1.5283,1.5284,1.525,1.5195,1.5183,1.5127,1.5023,1.4841,1.464,1.4464,0.0,0.0,0.0,0.0,0.0,0.0,0.0,0.0,0.0,0.0,0.0,0.0,0.0,0.0,0.0,0.0,0.0,0.0,0.0,0.0,0.0,0.0,0.0,0.0,0.0,0.0,0.0,1.0412,0.0,0.0,1.0543,0.0,0.0,0.0,0.0,0.0,0.0,0.0,0.0,0.0,0.0,0.0,0.0,0.0,0.0,0.0,0.0,0.0,0.0,0.0,0.0,0.0,0.0,-0.0033,-0.0984,-0.1042,-0.1158,-0.1304,-0.15,-0.1664,-0.1809,-0.2317,-0.2658,-0.2775,0.0,0.0,0.0,0.0,0.0,0.0,0.0,0.0,0.0,0.0,0.0,0.0,0.0,0.0,0.0,0.0,0.0,0.0,0.0,0.0,0.0,0.0,0.0,0.0,0.0,0.0,0.8982,0.6057,0.48,0.0,0.0,0.0,0.0,0.0,0.0,0.0,0.0,0.0,1.5287,1.5298,1.5289,1.5298,1.5241,1.5193,1.5197,1.514,1.5069,1.5023,1.4841,1.4651,0.0,0.0,0.0,0.0,0.0,0.0,0.0,0.0,0.0,0.0,0.0,0.0,0.0,0.0,0.0,0.0,0.0,0.0,0.0,0.0,0.0,0.0,0.0,0.0,0.0,0.0,0.0,1.0417,1.1509,0.0,0.0,0.0,0.0,0.0,0.0,0.0,0.0,0.0,0.0,0.0,1.3896,1.3885,0.0,0.0,0.0,0.0,0.0,0.0,0.0,0.0,0.0,0.0,0.0,0.0,0.053,-0.0483,-0.0592,-0.0701,-0.0843,-0.1026,-0.1224,-0.1394,-0.1714,-0.2123,-0.2653,0.0,0.0,0.0,0.0,0.0,0.0,0.0,0.0,0.0,0.0,0.0,0.0,0.0,0.0,0.0,0.0,0.0,0.0,0.0,0.0,0.0,0.0,0.0,0.0,0.0,1.3269,0.0,0.0,0.0,0.0,0.0,0.0,0.0,0.0,0.0,0.0,1.5176,1.5251,1.5226,1.5265,1.5284,1.5236,1.5215,1.5188,0.0,0.0,0.0,0.0,0.0,0.0,0.0,0.0,0.0,0.0,0.0,0.0,0.0,0.0,1.5203,1.4222,1.4012,1.3987,1.3918,0.0,0.0,0.0,0.0,0.0,0.0,0.0,0.0,0.0,0.0,0.0,0.0,0.0,0.0,1.1497,1.2584,1.2741,0.0,0.0,0.0,0.0,0.0,0.0,0.0,0.0,1.378,1.3712,1.3407,1.3326,1.3244,1.3109,1.2936,1.2634,0.0,0.0,0.0,0.0,0.0,0.0,0.0,0.0,0.1328,0.0393,0.0191,0.0,-0.0215,-0.0466,-0.0696,-0.0918,-0.1415,-0.1945,-0.2519,-0.3018,-0.3041,0.0,0.0,0.0,0.0,0.0,0.0,0.0,0.0,0.0,0.0,0.0,0.0,0.0,0.0,0.0,0.0,0.0,0.0,0.0,0.0,0.0,0.0,0.0,1.3372,0.0,0.0,0.0,0.0,0.0,0.0,0.0,0.0,0.0,1.5034,1.5164,1.5245,1.519,1.5236,1.526,1.5199,0.0,0.0,0.0,0.0,0.0,0.0,0.0,1.4755,1.4567,1.4464,1.4726,1.5713,1.6453,1.6965,1.7184,0.0,0.0,1.4335,1.397,1.4103,1.4557,1.4547,1.4497,1.4515,1.4466,1.4434,0.0,0.0,0.0,0.0,0.7296,0.0,0.0,0.0,1.1658,1.2658,0.0,1.341,0.0,0.0,0.0,0.0,1.2777,1.4165,0.0,0.0,1.3533,1.3423,1.2755,1.2597,1.2488,1.2342,1.2187,1.2024,1.179,1.0642,0.0,0.0,0.0,0.0,0.0,0.0,0.2236,0.1611,0.1215,0.0874,0.0529,0.0208,-0.0078,-0.0396,-0.1405,-0.2084,-0.2374,-0.282,-0.295,-0.2708,-0.2325,0.0,0.0,0.0,0.0,0.0,0.0,0.0,0.0,0.0,0.0,0.0,0.0,0.0,0.0,0.0,0.0,0.0,0.0,0.0,0.0,1.3756,0.0,0.0,0.0,0.0,0.0,0.0,0.0,0.0,0.0,1.5017,1.5014,1.5132,1.5195,1.5189,0.0,0.0,0.0,0.0,1.5073,1.4996,1.5,1.5,1.4979,1.4895,1.4765,1.4622,0.0,0.0,1.6394,1.7229,1.7931,1.8555,1.8021,1.6816,1.4636,1.4191,1.4487,1.5784,1.6079,1.6044,1.5974,1.5746,1.5708,0.6912,0.0,0.0,0.0,0.0,0.8363,0.9002,0.9751,1.0203,1.0875,1.1605,1.1654,0.0,0.0,0.0,0.0,0.0,0.0,1.2587,1.2075,1.2282,1.2123,1.1662,1.1583,1.1417,1.1183,1.1101,1.0939,1.0643,0.9658,0.8972,0.8575,0.0,0.0,0.0,0.0,0.299,0.2137,0.179,0.1527,0.1293,0.1014,0.059,0.003,-0.0739,-0.1347,-0.176,-0.2263,-0.2507,-0.2495,-0.2518,0.0,0.0,0.0,0.0,0.0,0.0,0.0,0.0,0.0,0.0,0.0,0.0,0.0,0.0,0.0,0.0,0.0,0.0,0.0,1.2718,1.3068,1.3125,0.0,0.0,0.0,0.0,0.0,0.0,0.0,0.0,0.0,1.5057,1.5107,1.5133,0.0,0.0,1.5101,1.5059,1.5042,1.5003,1.4944,1.4979,0.0,1.493,1.4868,1.4775,1.4622,1.5404,1.6352,1.7225,1.8018,1.8574,1.868,1.8482,1.8038,1.7418,1.6306,1.6098,1.7265,1.7602,1.7198,1.6195,1.5601,1.5422,0.6885,0.7528,0.7576,0.7665,0.7856,0.8378,0.8921,0.9452,0.997,1.0548,1.1057,1.111,1.1214,1.1395,1.1546,0.0,0.0,0.0,1.1788,1.1121,1.1365,1.1151,1.0579,1.0422,1.0264,1.003,0.9868,0.9691,0.9473,0.8616,0.8133,0.8023,0.0,0.5745,0.4735,0.4201,0.3605,0.2859,0.2494,0.2168,0.188,0.1515,0.1085,0.0654,0.0078,-0.0415,-0.0817,-0.1393,-0.1785,-0.1995,-0.2238,-0.2309,0.0,0.0,0.0,0.0,0.0,0.0,0.0,0.0,0.0,0.0,0.0,1.5435,1.6766,0.0,0.0,0.0,1.253,1.1711,1.2835,1.3393,0.0,0.0,0.0,0.0,0.0,0.0,0.0,1.4472,1.4747,1.5022,1.5068,1.5602,1.5781,1.5159,1.5066,1.5052,1.5019,0.0,1.4928,1.4857,1.4921,1.4949,1.4877,1.4804,1.4722,1.4587,1.6014,1.7191,1.7496,1.8252,1.8807,1.8733,1.8641,1.8584,1.8585,1.777,1.7325,1.8119,1.8201,1.7803,1.691,1.647,1.6265,0.6654,0.7017,0.706,0.7146,0.7392,0.8511,0.9135,0.936,1.0421,1.1082,1.1337,1.1337,1.1457,1.1669,1.1924,0.0,1.0287,1.1589,1.1389,1.0083,1.0546,1.0284,0.9445,0.9236,0.9035,0.8847,0.8574,0.8381,0.821,0.7542,0.7038,0.6744,0.6385,0.5857,0.5205,0.4564,0.4081,0.3745,0.3214,0.2756,0.2341,0.1845,0.1498,0.1344,0.0945,0.0603,0.0322,-0.03,-0.0828,-0.1244,-0.1607,-0.185,-0.1957,0.0,0.0,0.0,0.0,0.0,0.0,0.0,0.0,0.0,0.0,0.0,0.0,0.0,0.0,1.5525,1.4452,0.0,1.4338,1.4483,0.0,0.0,0.0,1.5907,1.5907,1.713,1.72,1.5306,0.0,0.0,1.538,1.6668,1.7036,1.5557,1.5277,1.5193,1.519,1.5175,1.5037,1.5094,1.4944,1.4868,1.4841,1.4902,1.5048,1.5174,1.6556,1.7686,1.7606,1.8164,1.8734,1.8678,1.8638,1.8561,1.8584,1.8473,1.8445,1.829,1.8121,1.8009,1.7967,1.7829,1.7691,0.6187,0.6426,0.6646,0.7164,0.7901,0.8208,0.8612,0.9084,0.9377,0.9657,0.9907,0.9961,1.009,1.0344,1.0128,0.9846,0.9529,0.948,0.92,0.8765,0.8778,0.8544,0.808,0.7913,0.7675,0.7405,0.7269,0.7123,0.6966,0.6631,0.6125,0.5472,0.5358,0.5293,0.5262,0.4949,0.459,0.4182,0.3693,0.3169,0.2609,0.2342,0.2109,0.1911,0.1842,0.1663,0.1368,0.0993,0.0483,-0.0161,-0.0652,-0.1162,-0.1752,-0.1496,0.0,0.0,0.0,0.0,0.0,0.0,0.0,0.0,0.0,1.8411,1.9745,0.0,1.688,0.0,1.3771,1.3631,1.5595,1.5447,0.0,0.0,1.667,1.7638,1.7686,1.8513,1.8943,1.8559,1.8601,1.8659,1.864,1.8908,1.8938,1.8535,1.752,1.6799,1.6691,1.667,1.6619,1.6433,1.5569,1.4832,1.4961,1.5679,1.6634,1.7707,1.7868,1.794,1.8376,1.8592,1.8678,1.8582,1.8542,1.8505,1.8465,1.8465,1.8385,1.8197,1.8048,1.7983,1.7966,1.79,1.7766,0.5231,0.5491,0.5683,0.6231,0.6962,0.745,0.7884,0.8243,0.8305,0.8468,0.8698,0.8844,0.8979,0.9117,0.8835,0.8716,0.8696,0.8342,0.81,0.7976,0.7734,0.7512,0.7207,0.6918,0.6623,0.6253,0.6122,0.596,0.5776,0.5581,0.5219,0.4756,0.4666,0.468,0.4721,0.4523,0.4238,0.3853,0.3543,0.3259,0.3059,0.2962,0.2905,0.2917,0.2825,0.2803,0.2903,0.2437,0.1855,0.1162,0.0362,-0.033,-0.0938,-0.1113,0.0057,0.0,0.0,0.0,0.0,0.0,0.0,0.0,0.0,0.0,0.0,0.0,1.78,1.4562,1.4038,1.4486,1.5976,1.5974,1.5868,1.5951,1.7223,1.8088,1.8139,1.8595,1.9077,1.9541,1.9665,1.9705,1.9705,1.892,1.8365,1.8347,1.7999,1.762,1.723,1.7125,1.7089,1.6972,1.6335,1.609,1.6663,1.7325,1.7952,1.852,1.8449,1.8341,1.861,1.8643,1.8582,1.8465,1.8406,1.8348,1.8322,1.8365,1.8307,1.8074,1.7961,1.79,1.7856,1.7777,1.7704,0.4224,0.4524,0.4606,0.4911,0.544,0.6422,0.6973,0.7214,0.7339,0.7529,0.7737,0.7925,0.8068,0.8122,0.7928,0.7832,0.784,0.7605,0.7446,0.7348,0.7019,0.6731,0.647,0.609,0.5718,0.5361,0.5096,0.4926,0.4763,0.4585,0.4449,0.4247,0.4149,0.3981,0.3811,0.3642,0.3492,0.3279,0.3179,0.3197,0.3445,0.3445,0.3605,0.3906,0.3783,0.3968,0.4518,0.3959,0.3313,0.2664,0.1674,0.0864,0.0379,-0.0347,0.0773,0.0,0.8625,0.0,0.0,0.0,0.0,0.0,0.0,0.0,0.0,2.0353,1.8655,1.4091,1.5011,1.5965,1.6154,1.6376,1.655,1.6684,1.7475,1.8009,1.7982,1.803,1.8342,1.907,1.9197,1.9184,1.8767,1.7436,1.6456,1.6543,1.7302,1.7624,1.7185,1.7248,1.7407,1.7192,1.7309,1.7734,1.8705,1.8904,1.8717,1.8574,1.8627,1.8715,1.8532,1.8471,1.8463,1.8383,1.8266,1.8184,1.8172,1.8222,1.8184,1.7944,1.7833,1.7772,1.7789,1.7726,1.7585,0.3863,0.4069,0.4325,0.4564,0.4814,0.5197,0.5961,0.682,0.6909,0.7113,0.7397,0.743,0.7566,0.7752,0.7323,0.7128,0.7075,0.6568,0.6236,0.6052,0.5874,0.5609,0.5262,0.5037,0.483,0.4523,0.4456,0.4362,0.4183,0.4113,0.3885,0.3419,0.3458,0.3247,0.2812,0.0,0.0,0.0,0.3149,0.3107,0.3096,0.32,0.3521,0.4064,0.4454,0.0,0.5423,0.5443,0.5156,0.4566,0.413,0.0,0.0,0.0,0.0,0.0,0.0,0.0,0.0,0.0,0.0,0.0,1.8757,1.9443,1.9976,2.0316,1.9505,1.718,1.7197,1.7432,1.7599,1.7265,1.7329,1.8034,1.8413,1.8394,1.7851,1.781,1.7744,1.7347,1.7335,1.6812,1.5613,1.4864,1.4647,1.4787,1.5933,1.6754,1.6649,1.7808,1.879,1.8837,1.8679,1.8815,1.9099,1.8878,1.866,1.8586,1.8605,1.8603,1.8506,1.8408,1.8322,1.8266,1.8168,1.8091,1.8065,1.8048,1.8009,1.7856,1.7743,1.7658,1.7687,1.7618,1.7342,0.312,0.3344,0.3558,0.369,0.0,0.4176,0.4648,0.5201,0.5856,0.6331,0.6579,0.6622,0.6748,0.6833,0.6518,0.6372,0.6325,0.5866,0.5568,0.5378,0.5171,0.4848,0.4473,0.4258,0.4016,0.3699,0.3614,0.3498,0.3352,0.3348,0.3197,0.2863,0.29,0.275,0.2465,0.2573,0.2784,0.3026,0.2971,0.3056,0.3241,0.3361,0.3685,0.4219,0.4618,0.0,0.0,0.0,0.0,0.0,0.0,0.0,0.0,0.227,0.0,0.71,1.0531,1.2663,1.3236,1.4513,1.571,1.6743,1.7421,1.8443,1.9909,1.9464,1.8687,1.7769,1.7675,1.7726,1.7794,1.765,1.7731,1.8173,1.8076,1.7823,1.7453,1.6831,1.6499,1.6547,1.5944,1.5094,1.4234,1.3966,1.3894,1.3918,1.5003,1.5826,1.5936,1.7343,1.8608,1.9095,1.9119,1.9017,1.8949,1.877,1.8547,1.8489,1.8489,1.8487,1.8383,1.8301,1.8218,1.8082,1.8,1.7922,1.7878,1.7878,1.7895,1.7766,1.7646,1.7559,1.7566,1.7502,1.7176,0.2333,0.2516,0.2695,0.2781,0.2919,0.3233,0.3414,0.3549,0.4688,0.0,0.0,0.5604,0.569,0.569,0.5567,0.5529,0.5529,0.5221,0.5005,0.4836,0.457,0.422,0.3906,0.3606,0.3298,0.3043,0.2849,0.2719,0.2688,0.2648,0.2598,0.2457,0.2455,0.2402,0.2387,0.2465,0.2592,0.2798,0.2829,0.3034,0.3471,0.3639,0.3966,0.447,0.4724,0.5295,0.6105,0.6266,0.6245,0.6054,0.564,0.5375,0.524,0.3974,0.4816,0.8336,1.0955,1.2579,1.3113,1.4084,1.4904,1.5448,1.6022,1.7279,1.9421,1.8332,1.7512,1.7443,1.7441,1.7472,1.7496,1.7685,1.7772,1.7708,1.7281,1.6939,1.6668,1.5697,1.5236,1.5713,1.4822,1.4002,1.3888,1.3748,1.3655,1.3691,1.4319,1.4884,1.5164,1.6564,1.8052,1.8821,1.8966,1.8861,1.8752,1.8622,1.8489,1.8351,1.8406,1.8383,1.8236,1.8168,1.8087,1.7939,1.7816,1.7749,1.7687,1.7726,1.7726,1.7635,1.7569,1.7434,1.7384,1.7245,1.6868,0.1788,0.1838,0.1981,0.2177,0.2378,0.2475,0.2672,0.3047,0.3813,0.4184,0.4351,0.4351,0.4443,0.4535,0.453,0.4491,0.4491,0.4351,0.4136,0.3917,0.3785,0.352,0.3164,0.3058,0.2917,0.2747,0.2644,0.2546,0.2549,0.2502,0.2418,0.2173,0.2284,0.224,0.2163,0.2156,0.2219,0.2384,0.2724,0.3069,0.3407,0.3709,0.4166,0.4828,0.5303,0.5933,0.674,0.7043,0.7294,0.7418,0.7514,0.7536,0.7469,0.7433,0.8134,0.9548,1.118,1.2378,1.2928,1.3689,1.4501,1.5418,1.5754,1.6363,1.7418,1.7437,1.7281,1.7158,1.7057,1.7016,1.7093,1.7273,1.7186,1.6736,1.6596,1.6146,1.5107,1.4755,1.4452,1.4153,1.3903,1.3731,1.3605,1.3511,1.3463,1.3565,1.3716,1.3969,1.4761,1.6291,1.7702,1.8592,1.8824,1.8733,1.8563,1.8428,1.831,1.8328,1.826,1.8215,1.8172,1.8022,1.7856,1.7811,1.7721,1.7595,1.7549,1.7572,1.7566,1.7489,1.7386,1.7314,1.7182,1.6699,1.604,0.121,0.1262,0.1411,0.1561,0.1764,0.1917,0.2114,0.2405,0.2663,0.3144,0.3617,0.3765,0.3812,0.3863,0.3859,0.3859,0.3863,0.3714,0.3573,0.3384,0.3195,0.2958,0.2668,0.2523,0.2408,0.2267,0.2172,0.215,0.2105,0.2103,0.2085,0.196,0.2002,0.2025,0.2033,0.2071,0.2156,0.2319,0.2571,0.2817,0.313,0.3478,0.3823,0.4292,0.4807,0.5325,0.5841,0.6471,0.6875,0.703,0.7568,0.7953,0.816,0.8406,0.903,1.006,1.1255,1.2197,1.2696,1.3542,1.431,1.4921,1.518,1.5565,1.6191,1.6649,1.6847,1.6639,1.6548,1.6532,1.657,1.6779,1.6804,1.6532,1.6256,1.5811,1.5212,1.4842,1.4352,1.3531,1.3329,1.3312,1.3176,1.3104,1.3085,1.3153,1.3191,1.3429,1.3819,1.4931,1.6442,1.8081,1.8544,1.8485,1.8342,1.8159,1.8057,1.8018,1.8031,1.8005,1.7961,1.7811,1.7726,1.7652,1.7606,1.7536,1.7441,1.7458,1.741,1.7345,1.7265,1.6995,1.6254,1.5632,1.5386,0.0672,0.0775,0.0878,0.1034,0.1241,0.1502,0.1654,0.1756,0.1857,0.2219,0.2882,0.3097,0.3121,0.3171,0.3171,0.3168,0.3171,0.3071,0.2918,0.2766,0.257,0.2371,0.2211,0.2006,0.1884,0.1783,0.1684,0.166,0.1658,0.1644,0.1629,0.1705,0.166,0.1749,0.1884,0.1885,0.2016,0.2228,0.2345,0.2585,0.2909,0.3269,0.3588,0.3862,0.4341,0.4724,0.5091,0.5813,0.6318,0.6566,0.7237,0.7878,0.8381,0.8651,0.9239,1.0264,1.1164,1.1954,1.2567,1.3421,1.4052,1.4342,1.4564,1.4876,1.5329,1.5868,1.6191,1.6139,1.6139,1.6083,1.6039,1.6274,1.6401,1.6228,1.5836,1.5453,1.5264,1.4938,1.4444,1.359,1.3467,1.3524,1.3593,1.3629,1.3597,1.342,1.3407,1.3486,1.3394,1.3868,1.5151,1.6507,1.7645,1.8103,1.8065,1.785,1.7737,1.7715,1.7766,1.7789,1.7726,1.7681,1.7595,1.7536,1.7505,1.7458,1.7378,1.733,1.7306,1.724,1.6832,1.6192,1.5263,1.5092,1.5215,0.0444,0.0444,0.0443,0.0611,0.0942,0.122,0.1331,0.1386,0.1555,0.1667,0.1762,0.1972,0.2118,0.2213,0.2269,0.2274,0.2272,0.2216,0.2121,0.1873,0.1817,0.1717,0.162,0.146,0.1354,0.1354,0.1297,0.1289,0.1287,0.1203,0.1257,0.1349,0.1344,0.1436,0.1615,0.1615,0.1749,0.202,0.2182,0.248,0.3002,0.344,0.3792,0.4061,0.4392,0.4823,0.5232,0.5775,0.6259,0.6687,0.7224,0.7787,0.8348,0.8781,0.9337,1.0098,1.0843,1.1649,1.2496,1.3079,1.3535,1.3901,1.4032,1.4292,1.4794,1.4918,1.5224,1.561,1.5799,1.5683,1.5462,1.5711,1.5712,1.5258,1.5156,1.4842,1.4408,1.4126,1.4186,1.4546,1.4537,1.4961,1.5675,1.5779,1.5458,1.4387,1.4465,1.4454,1.3872,1.3865,1.3824,1.4222,1.5774,1.7474,1.7549,1.7451,1.7395,1.7485,1.7538,1.7559,1.7599,1.7536,1.7425,1.7465,1.7451,1.7395,1.7248,1.7306,1.7257,1.702,1.6265,1.5111,1.4921,1.5245,1.5839,0.0056,0.0056,0.0224,0.0393,0.0617,0.0729,0.0785,0.0785,0.0841,0.0897,0.0895,0.0978,0.1342,0.1877,0.1931,0.1931,0.1931,0.1931,0.1879,0.1719,0.1558,0.1453,0.1343,0.1105,0.1042,0.1091,0.1071,0.1109,0.1157,0.1141,0.1173,0.125,0.1222,0.1207,0.1298,0.136,0.1479,0.1658,0.193,0.2267,0.258,0.3027,0.348,0.3796,0.4056,0.4458,0.4952,0.551,0.6073,0.6573,0.7276,0.7916,0.8505,0.9074,0.9691,1.0442,1.1398,1.2041,1.2412,1.2777,1.2975,1.3012,1.3229,1.3568,1.398,1.4124,1.4254,1.4324,1.4842,1.5072,1.4794,1.4921,1.499,1.4921,1.5008,1.4961,1.4796,1.4777,1.4986,1.5296,1.5495,1.5661,1.6025,1.6151,1.5675,1.4718,1.4578,1.4507,1.4151,1.4171,1.3977,1.3647,1.4374,1.5501,1.6724,1.7158,1.7099,1.714,1.7248,1.7354,1.7378,1.7403,1.7362,1.737,1.7256,1.701,1.6602,1.7052,1.724,1.6759,1.5998,1.4982,1.5379,1.5647,1.6054,-0.0336,-0.028,0.0,0.0168,0.0224,0.028,0.028,0.028,0.028,0.028,0.028,0.0336,0.0728,0.1287,0.1455,0.1511,0.1511,0.1512,0.1455,0.1399,0.1177,0.1065,0.1007,0.0821,0.0756,0.0808,0.079,0.088,0.1026,0.1126,0.1121,0.1107,0.103,0.1016,0.1061,0.1173,0.1297,0.1484,0.1761,0.2022,0.2349,0.2674,0.3049,0.3517,0.3788,0.4164,0.4601,0.5227,0.5818,0.6363,0.72,0.7862,0.8428,0.9074,0.9818,1.0633,1.1528,1.2099,1.2165,1.2494,1.2607,1.2427,1.2602,1.2901,1.321,1.3391,1.3288,1.3035,1.3689,1.4111,1.4046,1.413,1.4342,1.4627,1.4783,1.4937,1.5,1.5134,1.5226,1.5522,1.5548,1.5812,1.5668,1.5755,1.5606,1.4867,1.4689,1.4556,1.4498,1.451,1.4428,1.3929,1.3521,1.3994,1.5565,1.6007,1.618,1.6674,1.6786,1.6791,1.6937,1.7028,1.6922,1.6717,1.6766,1.6513,1.5928,1.6278,1.6319,1.5884,1.5314,1.4937,1.5222,1.5559,1.598,-0.0785,-0.0618,-0.0337,-0.0225,-0.0168,-0.0056,0.0,-0.0056,0.0,0.0,0.0,0.0113,0.0225,0.0281,0.0564,0.0729,0.0785,0.0785,0.0673,0.056,0.0449,0.0449,0.0449,0.0392,0.0391,0.0446,0.0443,0.0491,0.0639,0.0797,0.0887,0.081,0.0806,0.0906,0.0955,0.0999,0.1202,0.1495,0.1594,0.1855,0.2309,0.2405,0.2749,0.3354,0.3794,0.4133,0.4504,0.5042,0.559,0.6093,0.6795,0.741,0.8031,0.8683,0.9556,1.0527,1.1048,1.1475,1.188,1.2203,1.2339,1.2294,1.2313,1.2419,1.2603,1.2697,1.2544,1.2174,1.2579,1.2931,1.322,1.3425,1.3669,1.4019,1.4278,1.4392,1.447,1.4592,1.4746,1.4856,1.5013,1.5074,1.5074,1.5506,1.5625,1.5461,1.5562,1.5437,1.4923,1.4826,1.4663,1.4328,1.4146,1.4038,1.3252,1.4198,1.5236,1.5712,1.6006,1.6109,1.6303,1.6442,1.6257,1.6005,1.5778,1.5502,1.5129,1.4767,1.4428,1.4315,1.4735,1.4722,1.5184,1.5448,1.5883,-0.1075,-0.0956,-0.0836,-0.0777,-0.0777,-0.0716,-0.0716,-0.0717,-0.0717,-0.0716,-0.0717,-0.0657,-0.0657,-0.0657,-0.0478,-0.0117,0.0337,0.028,0.0224,0.0168,0.0056,0.0,0.0,-0.0056,-0.0056,0.0,0.0,0.0111,0.0331,0.0495,0.0548,0.0539,0.0528,0.0627,0.0729,0.0817,0.1009,0.1211,0.1363,0.1581,0.1929,0.2139,0.2477,0.2958,0.3297,0.3711,0.4158,0.4719,0.5336,0.5982,0.6722,0.7344,0.7961,0.8931,0.9834,1.0516,1.1037,1.1366,1.1564,1.1827,1.1911,1.1752,1.1943,1.1867,1.1664,1.1774,1.1748,1.1501,1.1697,1.2027,1.2269,1.2591,1.2988,1.3387,1.3622,1.3776,1.3888,1.398,1.4144,1.4483,1.4592,1.4529,1.4624,1.4808,1.5056,1.5373,1.5433,1.533,1.5213,1.5197,1.5147,1.5084,1.5228,1.5277,1.4919,1.4419,1.4654,1.5034,1.539,1.605,1.6427,1.6469,1.6355,1.5887,1.5399,1.4828,1.4577,1.3811,1.3375,1.4183,1.452,1.4963,1.5209,1.5717,1.6133,-0.1358,-0.1295,-0.1234,-0.1234,-0.1234,-0.1234,-0.1234,-0.1234,-0.1234,-0.1234,-0.1234,-0.1234,-0.1296,-0.1296,-0.1295,-0.1027,-0.0464,-0.0405,-0.0347,-0.0347,-0.0463,-0.0521,-0.0521,-0.0579,-0.0522,-0.0405,-0.0286,-0.0114,0.0112,0.028,0.0336,0.0391,0.0383,0.0433,0.0539,0.0634,0.0732,0.0889,0.1098,0.1326,0.1568,0.1841,0.2187,0.2552,0.2835,0.3371,0.399,0.4524,0.516,0.5814,0.649,0.7128,0.7877,0.8823,0.9658,1.0115,1.0584,1.0956,1.1177,1.1405,1.1471,1.1322,1.1481,1.1479,1.1045,1.1064,1.0957,1.0843,1.0957,1.1212,1.1522,1.1808,1.2258,1.2766,1.301,1.3148,1.3331,1.3421,1.3756,1.4181,1.4208,1.4138,1.417,1.4214,1.4501,1.4994,1.5011,1.5027,1.5147,1.5254,1.5359,1.5389,1.5564,1.5662,1.5478,1.5088,1.5098,1.5432,1.5036,1.5728,1.6374,1.6416,1.625,1.576,1.5177,1.4558,1.3855,1.3063,1.3431,1.4372,1.5065,1.5568,1.5839,1.6127,1.6381,-0.173,-0.1734,-0.1603,-0.155,-0.1553,-0.1553,-0.1546,-0.1551,-0.1549,-0.1556,-0.1622,-0.161,-0.1681,-0.1672,-0.1808,-0.1792,-0.1666,-0.1358,-0.1107,-0.1103,-0.1103,-0.1103,-0.1103,-0.11,-0.0978,-0.0794,-0.0478,-0.0232,0.0,0.0113,0.0225,0.0337,0.0336,0.0334,0.0392,0.0445,0.0502,0.0667,0.0833,0.1059,0.129,0.1621,0.19,0.224,0.2561,0.3113,0.3956,0.4398,0.4944,0.5559,0.5996,0.6642,0.7557,0.8302,0.8784,0.9256,0.971,1.0174,1.0584,1.0973,1.1144,1.1068,1.114,1.125,1.1142,1.0781,1.0557,1.0525,1.0557,1.0666,1.1079,1.1288,1.1599,1.209,1.2461,1.2591,1.2708,1.2975,1.3387,1.3835,1.3861,1.3821,1.3808,1.3842,1.4057,1.4388,1.4501,1.4613,1.4825,1.4951,1.5058,1.5163,1.5329,1.5492,1.5566,1.5638,1.5838,1.5943,1.5226,1.5191,1.5995,1.6285,1.6018,1.5583,1.493,1.4319,1.4003,1.3383,1.3782,1.4609,1.5368,1.6015,1.6114,1.626,1.6349,-0.2421,-0.2355,-0.2355,-0.229,-0.2354,-0.229,-0.2355,-0.2354,-0.2354,-0.2354,-0.2355,-0.2354,-0.2355,-0.2354,-0.2419,-0.2484,-0.2618,-0.2289,-0.2052,-0.1862,-0.1791,-0.173,-0.1606,-0.1543,-0.1419,-0.1172,-0.0918,-0.0658,-0.035,-0.0232,-0.0057,0.0113,0.0112,0.0168,0.028,0.028,0.0336,0.0505,0.0673,0.0841,0.101,0.129,0.1626,0.2015,0.241,0.2912,0.3524,0.3968,0.4519,0.5066,0.5609,0.6372,0.7187,0.7723,0.8209,0.8633,0.9054,0.9517,0.9873,1.0293,1.0568,1.0656,1.093,1.1152,1.1292,1.1246,1.1121,1.1037,1.1315,1.175,1.2118,1.1903,1.1785,1.1889,1.1982,1.2184,1.2436,1.272,1.3091,1.3391,1.3404,1.3369,1.3416,1.3467,1.376,1.4053,1.4165,1.4287,1.4525,1.4637,1.4718,1.4856,1.5027,1.5195,1.5299,1.5374,1.5522,1.5812,1.5437,1.5102,1.5786,1.6077,1.5825,1.5509,1.481,1.4412,1.4097,1.4135,1.4578,1.5009,1.5825,1.6099,1.6133,1.6222,1.6336,-0.2822,-0.2822,-0.2889,-0.2889,-0.2889,-0.2889,-0.2889,-0.2889,-0.2889,-0.2889,-0.2887,-0.2954,-0.3023,-0.3023,-0.3088,-0.3155,-0.3291,-0.3155,-0.2965,-0.2684,-0.2418,-0.2229,-0.2102,-0.1975,-0.1772,-0.1445,-0.1192,-0.0927,-0.06,-0.0419,-0.0295,-0.0172,-0.0057,0.0057,0.0112,0.0168,0.0168,0.028,0.0505,0.0617,0.0785,0.1122,0.1459,0.185,0.2184,0.2687,0.3186,0.3577,0.4076,0.4736,0.5391,0.605,0.6712,0.7139,0.7568,0.7996,0.8421,0.8844,0.9197,0.9621,0.9932,1.019,1.0498,1.0753,1.0964,1.1276,1.1276,1.1124,1.1434,1.2036,1.2415,1.2479,1.2131,1.1847,1.1992,1.2196,1.2518,1.2577,1.2745,1.2955,1.3025,1.3025,1.306,1.3541,1.3856,1.4156,1.4137,1.4232,1.4439,1.4474,1.4529,1.4588,1.4704,1.4904,1.5072,1.5147,1.5178,1.5463,1.5606,1.5598,1.5953,1.597,1.5788,1.5762,1.5308,1.5345,1.5096,1.5211,1.553,1.598,1.6139,1.6117,1.6095,1.6223,1.6289,-0.3023,-0.3092,-0.3159,-0.3226,-0.3226,-0.3224,-0.3226,-0.3226,-0.3226,-0.3226,-0.3293,-0.3426,-0.3496,-0.3563,-0.3641,-0.3717,-0.384,-0.3801,-0.3734,-0.3578,-0.3167,-0.2757,-0.2598,-0.2329,-0.1975,-0.1619,-0.1422,-0.1145,-0.0806,-0.0619,-0.0487,-0.0296,-0.0118,0.0,0.0,0.0,0.0,0.0,0.0281,0.0393,0.0449,0.101,0.1403,0.1628,0.2017,0.2462,0.2907,0.3299,0.3802,0.4519,0.5234,0.5786,0.6173,0.6608,0.7031,0.7348,0.7836,0.8262,0.8573,0.8949,0.9309,0.9666,0.988,1.0102,1.036,1.0667,1.0769,1.0616,1.0972,1.1477,1.2017,1.2444,1.2388,1.204,1.2215,1.2603,1.2987,1.2551,1.257,1.277,1.277,1.2914,1.3216,1.3954,1.445,1.4736,1.4588,1.45,1.4704,1.4652,1.4405,1.4428,1.4571,1.4592,1.4763,1.4777,1.4839,1.5102,1.5389,1.558,1.577,1.5799,1.5799,1.5777,1.5814,1.593,1.6025,1.596,1.5902,1.5973,1.6011,1.6039,1.6095,1.6151,1.6179,-0.3625,-0.3625,-0.3625,-0.3625,-0.3625,-0.3625,-0.3627,-0.3627,-0.3696,-0.3708,-0.3696,-0.3692,-0.3773,-0.377,-0.3844,-0.3944,-0.4099,-0.4092,-0.4131,-0.4129,-0.3777,-0.3199,-0.2774,-0.249,-0.2146,-0.1862,-0.1724,-0.1509,-0.1024,-0.0958,-0.0754,-0.0427,-0.0305,-0.0182,-0.0241,-0.0059,0.0,0.0,0.0283,0.0393,0.0505,0.0954,0.1403,0.1628,0.1962,0.2352,0.28,0.3246,0.3858,0.4577,0.5128,0.5567,0.5891,0.6223,0.6608,0.6982,0.7348,0.7723,0.8049,0.8421,0.8745,0.9008,0.9316,0.9472,0.9673,1.0043,1.0308,1.0419,1.0675,1.0922,1.1469,1.2026,1.2272,1.248,1.2423,1.2505,1.268,1.2735,1.2872,1.3328,1.3935,1.4369,1.4708,1.4886,1.5191,1.526,1.4946,1.4588,1.4864,1.4972,1.4755,1.4552,1.456,1.4436,1.4415,1.4429,1.4556,1.4808,1.5011,1.5179,1.5403,1.5566,1.561,1.5623,1.5709,1.5824,1.5981,1.6028,1.5996,1.5913,1.587,1.587,1.5983,1.6067,1.6052,-0.4028,-0.4097,-0.4237,-0.4306,-0.4306,-0.4373,-0.4442,-0.4442,-0.4442,-0.4444,-0.4444,-0.4442,-0.4442,-0.4452,-0.4518,-0.448,-0.4493,-0.4483,-0.4504,-0.4432,-0.4207,-0.3619,-0.3034,-0.2737,-0.2452,-0.2087,-0.202,-0.1733,-0.1251,-0.1117,-0.0905,-0.0633,-0.0504,-0.0375,-0.0369,-0.0243,-0.0119,-0.0059,0.0173,0.0398,0.0449,0.101,0.129,0.1514,0.1905,0.2296,0.2747,0.3251,0.3916,0.4522,0.4853,0.5128,0.5563,0.5891,0.6228,0.6613,0.6977,0.7348,0.7622,0.7996,0.8315,0.8586,0.8844,0.9054,0.9263,0.9524,0.9792,1.0043,1.0308,1.0616,1.0964,1.156,1.2067,1.2337,1.2415,1.2538,1.2758,1.3068,1.34,1.3894,1.444,1.4971,1.5424,1.5345,1.5334,1.5292,1.4911,1.4902,1.5074,1.5117,1.5082,1.487,1.4581,1.4453,1.4343,1.4322,1.4332,1.4588,1.4935,1.5017,1.5118,1.5359,1.5448,1.5522,1.5595,1.5683,1.5841,1.5926,1.587,1.5755,1.5726,1.5697,1.5784,1.5883,1.5883,-0.4501,-0.4501,-0.487,-0.5017,-0.5006,-0.5228,-0.52,-0.529,-0.52,-0.5203,-0.5203,-0.529,-0.5188,-0.53,-0.5156,-0.518,-0.4968,-0.4936,-0.486,-0.4719,-0.4415,-0.3993,-0.3272,-0.317,-0.2787,-0.2329,-0.2238,-0.1895,-0.1483,-0.1212,-0.1062,-0.0847,-0.0649,-0.0513,-0.0505,-0.0374,-0.0306,-0.018,0.0119,0.0293,0.0459,0.0912,0.1192,0.1304,0.1796,0.2242,0.2689,0.3246,0.3802,0.4353,0.4463,0.4794,0.5187,0.5508,0.5891,0.6228,0.6657,0.7025,0.7289,0.7622,0.7949,0.8262,0.8421,0.8633,0.885,0.9113,0.9323,0.9517,1.0043,1.036,1.0667,1.12,1.1701,1.2008,1.2246,1.2589,1.3035,1.3372,1.3763,1.4244,1.4316,1.4605,1.4846,1.4891,1.4811,1.5006,1.4801,1.5048,1.521,1.5327,1.5271,1.5158,1.4844,1.4496,1.4373,1.4272,1.4276,1.4365,1.4856,1.5061,1.5039,1.5209,1.5329,1.5403,1.5403,1.5492,1.5654,1.5668,1.5668,1.5639,1.558,1.5522,1.5551,1.5697,1.574,-0.5084,-0.5084,-0.5156,-0.5231,-0.5231,-0.5303,-0.5303,-0.5309,-0.5306,-0.5397,-0.5306,-0.5306,-0.5312,-0.5318,-0.5421,-0.5312,-0.5101,-0.5173,-0.501,-0.4706,-0.4704,-0.4334,-0.3791,-0.3505,-0.3094,-0.2632,-0.2518,-0.2153,-0.173,-0.1502,-0.1343,-0.1069,-0.0868,-0.0733,-0.0726,-0.0581,-0.0383,-0.0253,-0.0062,0.0122,0.03,0.0707,0.105,0.1106,0.165,0.2189,0.2633,0.3023,0.3413,0.3802,0.4242,0.4519,0.4794,0.5183,0.5513,0.5891,0.6223,0.6603,0.7025,0.7246,0.7456,0.7836,0.7996,0.8109,0.8381,0.8699,0.8857,0.9061,0.9465,0.9991,1.047,1.0922,1.1318,1.1578,1.1787,1.1986,1.2372,1.288,1.342,1.3752,1.4093,1.4419,1.4512,1.4523,1.4512,1.4582,1.479,1.5091,1.5286,1.5464,1.5477,1.5368,1.5604,1.5361,1.5071,1.4993,1.495,1.4849,1.5114,1.5253,1.5212,1.5063,1.5215,1.5219,1.5193,1.5314,1.5433,1.5522,1.5522,1.5463,1.5448,1.5506,1.5565,1.561,1.5891,-0.5417,-0.5417,-0.5566,-0.5566,-0.5641,-0.5719,-0.5796,-0.5793,-0.5796,-0.5796,-0.5793,-0.5793,-0.5796,-0.5796,-0.5796,-0.5679,-0.5384,-0.5209,-0.5012,-0.4854,-0.4851,-0.4588,-0.4239,-0.3936,-0.3509,-0.285,-0.2732,-0.2356,-0.1847,-0.1618,-0.1462,-0.1097,-0.0961,-0.0952,-0.0877,-0.073,-0.0654,-0.0516,-0.0191,0.0063,0.0185,0.0608,0.1084,0.1257,0.1753,0.2236,0.2525,0.2932,0.3195,0.3469,0.391,0.4353,0.4519,0.4857,0.5183,0.5563,0.6005,0.6287,0.6608,0.6869,0.7144,0.7408,0.7521,0.7788,0.8008,0.8275,0.854,0.8745,0.9106,0.9524,1.0368,1.0675,1.0972,1.1175,1.1344,1.1545,1.1877,1.2559,1.3094,1.3344,1.3705,1.3905,1.4046,1.4093,1.414,1.4222,1.4455,1.4778,1.5095,1.5248,1.5545,1.5703,1.6223,1.6274,1.5964,1.5853,1.5866,1.5742,1.5688,1.5689,1.56,1.5355,1.5113,1.5082,1.5065,1.5041,1.5163,1.5284,1.5388,1.5387,1.5446,1.5533,1.5724,1.599,1.6373,-0.5789,-0.5792,-0.6018,-0.6015,-0.6093,-0.6244,-0.6318,-0.6325,-0.6338,-0.6297,-0.6254,-0.6261,-0.6213,-0.6247,-0.624,-0.6022,-0.5631,-0.524,-0.5093,-0.509,-0.5018,-0.4693,-0.4443,-0.4264,-0.3829,-0.3029,-0.2936,-0.2494,-0.1979,-0.1678,-0.1504,-0.1201,-0.1127,-0.1114,-0.1023,-0.0948,-0.0804,-0.072,-0.0326,-0.0129,0.0063,0.05,0.1054,0.1528,0.1805,0.2133,0.2418,0.2787,0.3078,0.3175,0.3599,0.4045,0.4406,0.4643,0.4912,0.5297,0.5736,0.6064,0.6282,0.6549,0.682,0.6982,0.7149,0.7419,0.7687,0.7901,0.8168,0.8487,0.8811,0.9351,1.034,1.0488,1.0653,1.0954,1.1102,1.1268,1.1547,1.223,1.2529,1.292,1.3248,1.3488,1.3621,1.3668,1.3763,1.3915,1.4186,1.4455,1.4731,1.504,1.5309,1.562,1.6064,1.6262,1.6019,1.6048,1.614,1.6163,1.6101,1.5976,1.5828,1.5567,1.5278,1.4999,1.4945,1.4955,1.4978,1.5072,1.5176,1.5294,1.5672,1.6048,1.6253,1.6419,1.6845,-0.6707,-0.6707,-0.671,-0.6707,-0.671,-0.6788,-0.6714,-0.6563,-0.6563,-0.6486,-0.6338,-0.6261,-0.6335,-0.6335,-0.6338,-0.6103,-0.5786,-0.5476,-0.5246,-0.5249,-0.5101,-0.4794,-0.4479,-0.4403,-0.39,-0.3247,-0.2969,-0.2634,-0.2171,-0.1845,-0.1611,-0.1452,-0.1231,-0.1143,-0.1121,-0.1043,-0.0964,-0.081,-0.0537,-0.0333,-0.0132,0.0324,0.0889,0.1499,0.1724,0.202,0.2446,0.2738,0.303,0.332,0.3574,0.3941,0.4309,0.4498,0.4815,0.5093,0.5356,0.5681,0.595,0.6173,0.6391,0.6549,0.6766,0.6982,0.7306,0.7628,0.7901,0.8168,0.8611,0.9282,1.0467,1.0309,1.0589,1.0979,1.1186,1.1347,1.1353,1.1559,1.1972,1.2391,1.2774,1.3162,1.3296,1.3382,1.343,1.3631,1.3868,1.414,1.4408,1.4731,1.504,1.5367,1.5659,1.5836,1.584,1.6022,1.6163,1.6225,1.6153,1.6062,1.5903,1.5676,1.5448,1.5378,1.5057,1.4846,1.4872,1.4913,1.558,1.6137,1.6403,1.6689,1.68,1.6983,1.7334,-0.6865,-0.6865,-0.6865,-0.6865,-0.6865,-0.6865,-0.6865,-0.6788,-0.6788,-0.6714,-0.6637,-0.6563,-0.6567,-0.649,-0.649,-0.6254,-0.5867,-0.5634,-0.5401,-0.5332,-0.523,-0.4946,-0.4545,-0.4468,-0.3991,-0.3412,-0.3046,-0.2778,-0.2236,-0.1911,-0.1731,-0.149,-0.1264,-0.1174,-0.1151,-0.1144,-0.1066,-0.0912,-0.0693,-0.0481,-0.0343,0.0134,0.0786,0.1294,0.1653,0.202,0.2455,0.2785,0.3015,0.3303,0.3589,0.3844,0.4197,0.4607,0.4932,0.4973,0.5139,0.5301,0.5567,0.5732,0.595,0.6109,0.6391,0.6657,0.6928,0.7252,0.758,0.7955,0.844,0.8998,0.9566,0.9769,1.0038,1.0327,1.069,1.0958,1.1064,1.1141,1.1524,1.1944,1.2243,1.2627,1.3065,1.3162,1.3152,1.3296,1.3583,1.3821,1.4046,1.4373,1.4743,1.5119,1.5402,1.5614,1.5703,1.5792,1.6013,1.6102,1.6193,1.6084,1.6057,1.5931,1.5984,1.5982,1.5581,1.5148,1.4644,1.4703,1.5819,1.6912,1.7309,1.7517,1.7427,1.7577,1.787,-0.7019,-0.7019,-0.7019,-0.7019,-0.7019,-0.7019,-0.7019,-0.6942,-0.6945,-0.6942,-0.6865,-0.6865,-0.6791,-0.6714,-0.6567,-0.6419,-0.6058,-0.5839,-0.5626,-0.5521,-0.5508,-0.5146,-0.4737,-0.4491,-0.4166,-0.3424,-0.3226,-0.285,-0.2349,-0.2031,-0.1783,-0.1611,-0.1374,-0.1206,-0.1181,-0.1176,-0.1174,-0.1086,-0.0859,-0.0635,-0.0349,0.0137,0.0744,0.1211,0.1514,0.1951,0.2402,0.2684,0.2971,0.3218,0.3516,0.3825,0.4105,0.4776,0.5044,0.49,0.4984,0.508,0.5181,0.5478,0.5715,0.5823,0.5967,0.627,0.6603,0.6923,0.73,0.7735,0.8228,0.8652,0.8971,0.9203,0.9493,0.9843,1.0195,1.0412,1.0693,1.095,1.1323,1.1642,1.1804,1.2144,1.2578,1.2871,1.2871,1.291,1.32,1.3478,1.3716,1.4046,1.4419,1.48,1.5176,1.5468,1.5558,1.5525,1.5659,1.58,1.5996,1.6101,1.6212,1.629,1.6309,1.6329,1.6336,1.5918,1.5165,1.4822,1.5981,1.7064,1.7921,1.8204,1.7889,1.7862,1.8092,-0.7407,-0.7403,-0.7407,-0.7407,-0.7403,-0.7403,-0.733,-0.718,-0.718,-0.7103,-0.6942,-0.6942,-0.6942,-0.6806,-0.6655,-0.6649,-0.6579,-0.6218,-0.6022,-0.5849,-0.5744,-0.5352,-0.4765,-0.4684,-0.4182,-0.359,-0.3411,-0.301,-0.2553,-0.2138,-0.1889,-0.1802,-0.1484,-0.1236,-0.121,-0.1206,-0.1192,-0.1172,-0.0945,-0.0574,-0.0141,0.028,0.0689,0.1087,0.1411,0.1808,0.2209,0.2583,0.2836,0.3107,0.3249,0.3588,0.413,0.4339,0.4552,0.4659,0.4836,0.4984,0.5072,0.534,0.5526,0.5604,0.5755,0.5953,0.6339,0.6707,0.7085,0.7139,0.7681,0.8221,0.8639,0.9079,0.9542,0.982,1.0023,1.0154,1.0339,1.0773,1.1098,1.1382,1.1562,1.1762,1.2085,1.2332,1.2578,1.2676,1.2813,1.3104,1.343,1.3763,1.414,1.4616,1.4846,1.5153,1.5379,1.5345,1.539,1.5513,1.5736,1.6001,1.6089,1.6175,1.6464,1.6477,1.6561,1.6545,1.5911,1.5875,1.6496,1.7045,1.7706,1.8029,1.8187,1.8263,1.8355,-0.7667,-0.748,-0.748,-0.748,-0.748,-0.748,-0.7407,-0.7411,-0.733,-0.7334,-0.7249,-0.7249,-0.7223,-0.7144,-0.6853,-0.6784,-0.682,-0.6522,-0.6141,-0.6056,-0.5858,-0.5472,-0.4877,-0.4794,-0.4365,-0.3842,-0.3549,-0.3336,-0.2785,-0.2366,-0.2115,-0.1924,-0.1681,-0.1426,-0.132,-0.1238,-0.1231,-0.1141,-0.09,-0.0588,-0.0144,0.0215,0.057,0.0985,0.1179,0.1585,0.206,0.2301,0.2555,0.2889,0.3092,0.3295,0.3694,0.4028,0.4265,0.4161,0.4434,0.4583,0.4694,0.5043,0.5186,0.5325,0.5569,0.5934,0.6221,0.6445,0.6815,0.7079,0.73,0.7735,0.8174,0.8489,0.8808,0.9172,0.952,0.9688,0.9882,1.0442,1.0872,1.1089,1.1311,1.1452,1.163,1.1936,1.2184,1.2332,1.2529,1.2871,1.3152,1.3478,1.3952,1.4477,1.4616,1.4789,1.5062,1.5165,1.5198,1.5289,1.5513,1.5736,1.5812,1.5976,1.6231,1.6417,1.6439,1.6399,1.6361,1.6626,1.693,1.7169,1.7434,1.78,1.818,1.8454,1.8659,-0.7858,-0.7618,-0.7614,-0.7618,-0.7614,-0.7618,-0.7622,-0.7618,-0.763,-0.7622,-0.7614,-0.763,-0.7624,-0.7468,-0.7189,-0.7108,-0.7163,-0.6672,-0.6279,-0.616,-0.5966,-0.5589,-0.516,-0.4988,-0.4637,-0.4025,-0.3894,-0.3601,-0.3169,-0.2813,-0.2446,-0.2135,-0.1887,-0.1627,-0.1445,-0.143,-0.1421,-0.1248,-0.0924,-0.0604,-0.037,0.0,0.0366,0.0725,0.1003,0.1344,0.1835,0.2094,0.2342,0.2547,0.2905,0.3102,0.3262,0.3648,0.3899,0.3811,0.3929,0.4074,0.4356,0.4621,0.4827,0.5098,0.54,0.5817,0.6085,0.617,0.6282,0.6761,0.7279,0.7444,0.768,0.7973,0.8304,0.8505,0.8687,0.8969,0.922,0.9723,1.0176,1.0399,1.0593,1.0881,1.1149,1.1512,1.1778,1.2036,1.2283,1.2627,1.291,1.3238,1.3621,1.4093,1.4337,1.4466,1.4697,1.488,1.4971,1.5108,1.5289,1.5447,1.5593,1.5715,1.5925,1.61,1.6361,1.6523,1.6617,1.6934,1.7277,1.7607,1.7873,1.7945,1.8179,1.8537,1.8895,-0.8,-0.7975,-0.7975,-0.7967,-0.7955,-0.7975,-0.7967,-0.7927,-0.7951,-0.7943,-0.7923,-0.7963,-0.7943,-0.7831,-0.7525,-0.7435,-0.7499,-0.6905,-0.6535,-0.6349,-0.6148,-0.5786,-0.5427,-0.525,-0.4989,-0.4368,-0.4242,-0.3986,-0.3561,-0.3265,-0.2859,-0.2449,-0.2187,-0.1929,-0.1742,-0.1633,-0.145,-0.1274,-0.1022,-0.0776,-0.0534,-0.0226,0.015,0.0441,0.0802,0.1164,0.1236,0.1659,0.201,0.2293,0.257,0.2812,0.2986,0.3131,0.3303,0.3542,0.3476,0.365,0.3946,0.4424,0.4844,0.5125,0.5395,0.5693,0.5976,0.6115,0.6243,0.6505,0.7186,0.7496,0.7582,0.7671,0.7982,0.8178,0.8312,0.8473,0.8667,0.8831,0.9247,0.9559,0.9911,1.0262,1.0589,1.0947,1.1427,1.1678,1.2026,1.2323,1.2666,1.2949,1.3228,1.361,1.3915,1.4104,1.4326,1.4512,1.4605,1.4789,1.5017,1.5211,1.5417,1.5574,1.5792,1.6071,1.6384,1.6626,1.6901,1.72,1.7555,1.8009,1.8319,1.8591,1.8695,1.8935,1.9203,-0.8353,-0.8357,-0.8357,-0.8223,-0.8012,-0.8012,-0.8012,-0.8012,-0.8012,-0.8012,-0.802,-0.8016,-0.8081,-0.8074,-0.777,-0.7603,-0.7654,-0.7058,-0.6747,-0.6593,-0.6346,-0.5991,-0.5725,-0.5458,-0.5277,-0.4656,-0.448,-0.4302,-0.3762,-0.3496,-0.3298,-0.2889,-0.2503,-0.221,-0.202,-0.1756,-0.157,-0.131,-0.1132,-0.0878,-0.0793,-0.0389,-0.0077,0.0153,0.0375,0.0747,0.0968,0.1248,0.1534,0.1815,0.2215,0.243,0.2567,0.2628,0.2895,0.3301,0.3311,0.3525,0.3765,0.4248,0.4671,0.5101,0.5349,0.5559,0.5859,0.6113,0.6568,0.7002,0.7321,0.7568,0.8048,0.7918,0.7909,0.801,0.8096,0.816,0.8275,0.8486,0.8619,0.9049,0.9442,0.9799,1.0118,1.0368,1.0913,1.1377,1.1728,1.2076,1.2363,1.2666,1.29,1.319,1.3488,1.3678,1.3905,1.4093,1.4291,1.4512,1.4754,1.4971,1.5211,1.5684,1.5916,1.6185,1.6492,1.68,1.7096,1.7375,1.7765,1.8164,1.8849,1.9471,1.949,1.9378,1.9478,-0.8572,-0.8572,-0.8572,-0.8422,-0.8195,-0.8178,-0.8174,-0.8178,-0.8187,-0.8178,-0.8174,-0.8182,-0.8243,-0.8263,-0.7943,-0.7722,-0.7643,-0.7221,-0.6874,-0.67,-0.6432,-0.6166,-0.5899,-0.5725,-0.5458,-0.4926,-0.4748,-0.448,-0.4034,-0.3765,-0.3487,-0.3204,-0.283,-0.2525,-0.2243,-0.1958,-0.1695,-0.1427,-0.133,-0.1063,-0.0974,-0.0721,-0.0315,-0.0157,0.0154,0.0383,0.061,0.0907,0.1052,0.135,0.1715,0.2006,0.2126,0.2313,0.2582,0.2978,0.3395,0.3626,0.3756,0.4137,0.4473,0.4752,0.5074,0.5338,0.5693,0.5954,0.6246,0.6928,0.7293,0.7717,0.8231,0.7887,0.7747,0.7784,0.7877,0.7966,0.8136,0.8327,0.8373,0.8538,0.8976,0.9413,0.9777,1.0095,1.0608,1.1065,1.1427,1.1728,1.2026,1.2274,1.2529,1.2813,1.3113,1.3248,1.3392,1.3668,1.3952,1.4093,1.4348,1.4738,1.5081,1.5504,1.5852,1.603,1.6406,1.6936,1.7215,1.7412,1.7787,1.8284,1.903,1.9737,1.9761,1.9594,1.9709,-0.8568,-0.8572,-0.8572,-0.8556,-0.8515,-0.8552,-0.8536,-0.8495,-0.8507,-0.8507,-0.8495,-0.8507,-0.8511,-0.8448,-0.807,-0.7914,-0.7837,-0.7234,-0.6884,-0.6881,-0.67,-0.6346,-0.6169,-0.5991,-0.5722,-0.5188,-0.4921,-0.4656,-0.4302,-0.3855,-0.3676,-0.3408,-0.3037,-0.2676,-0.2499,-0.2193,-0.1978,-0.1774,-0.1685,-0.1414,-0.1152,-0.098,-0.0645,-0.0396,-0.0157,0.0078,0.0311,0.0466,0.0695,0.0927,0.1239,0.1537,0.1815,0.222,0.2574,0.2876,0.3438,0.3652,0.3591,0.4048,0.4312,0.4433,0.4704,0.4989,0.5302,0.5491,0.5826,0.6609,0.7003,0.7391,0.7567,0.7584,0.7534,0.7639,0.7804,0.7887,0.8063,0.819,0.8253,0.8397,0.8684,0.9008,0.9472,0.9888,1.0352,1.0761,1.1124,1.1427,1.1678,1.1877,1.2126,1.2431,1.2715,1.2968,1.3104,1.3382,1.3621,1.3763,1.3994,1.4432,1.4832,1.5207,1.553,1.5822,1.6341,1.6984,1.7206,1.7295,1.7814,1.8321,1.9132,1.9723,1.9748,1.9761,1.9837,-0.874,-0.8568,-0.8572,-0.8572,-0.8572,-0.8572,-0.8572,-0.8572,-0.8572,-0.8572,-0.8572,-0.8572,-0.8572,-0.8476,-0.8292,-0.8116,-0.8025,-0.7764,-0.7499,-0.7238,-0.7149,-0.6881,-0.6615,-0.6257,-0.5988,-0.5544,-0.5188,-0.4842,-0.4569,-0.4051,-0.3773,-0.3497,-0.316,-0.2784,-0.251,-0.2402,-0.2208,-0.2017,-0.1822,-0.1626,-0.1443,-0.1173,-0.0906,-0.0725,-0.0563,-0.032,-0.0079,0.0079,0.0315,0.0472,0.0786,0.1094,0.155,0.2038,0.2489,0.2755,0.3285,0.3707,0.3689,0.391,0.4155,0.4278,0.4455,0.4589,0.4651,0.5163,0.569,0.6218,0.6613,0.7003,0.7381,0.7512,0.7565,0.778,0.7949,0.7936,0.8083,0.8125,0.8184,0.8432,0.8675,0.9059,0.9525,0.9788,1.0204,1.0473,1.0801,1.1082,1.1344,1.1477,1.1678,1.2026,1.2372,1.2578,1.2822,1.3055,1.3238,1.342,1.3693,1.4095,1.4516,1.486,1.5521,1.5909,1.6485,1.7006,1.7299,1.7553,1.782,1.8348,1.8915,1.9356,1.9436,1.9562,1.9726,-0.8911,-0.874,-0.874,-0.8656,-0.8568,-0.8572,-0.8572,-0.8572,-0.8572,-0.8572,-0.8572,-0.8572,-0.8572,-0.848,-0.8384,-0.8201,-0.8201,-0.8028,-0.7856,-0.7591,-0.7507,-0.7238,-0.6881,-0.6526,-0.6077,-0.573,-0.5323,-0.4892,-0.4725,-0.4203,-0.3855,-0.3495,-0.3206,-0.2929,-0.273,-0.2617,-0.2509,-0.2315,-0.2118,-0.201,-0.1819,-0.154,-0.1263,-0.1077,-0.0903,-0.0652,-0.0481,-0.0318,-0.0158,0.0079,0.0393,0.0708,0.1257,0.1649,0.2198,0.2588,0.313,0.3653,0.3687,0.3749,0.4011,0.4194,0.4272,0.4327,0.4411,0.4834,0.5362,0.5826,0.6234,0.6806,0.726,0.7396,0.7572,0.7782,0.7871,0.7928,0.8012,0.8065,0.8276,0.8468,0.8857,0.9276,0.9708,0.9781,1.0042,1.0255,1.0524,1.0745,1.1005,1.1184,1.1302,1.1619,1.1968,1.2274,1.248,1.2676,1.2852,1.3084,1.3466,1.3921,1.4045,1.4376,1.52,1.5997,1.6439,1.6877,1.7443,1.7831,1.7852,1.8004,1.8321,1.8732,1.9052,1.9327,1.9521,-0.9174,-0.8911,-0.8911,-0.874,-0.8656,-0.8572,-0.8572,-0.8572,-0.8572,-0.8572,-0.8572,-0.8572,-0.8572,-0.8568,-0.8296,-0.8292,-0.8204,-0.8028,-0.794,-0.7852,-0.7768,-0.7418,-0.7081,-0.6726,-0.6406,-0.5888,-0.5388,-0.5177,-0.482,-0.4392,-0.3964,-0.3602,-0.3302,-0.3091,-0.2958,-0.2839,-0.2718,-0.2608,-0.2415,-0.2302,-0.2105,-0.1917,-0.1632,-0.1442,-0.1177,-0.0999,-0.0739,-0.0652,-0.0483,-0.0319,-0.0079,0.0393,0.0786,0.1179,0.1727,0.2431,0.3214,0.3443,0.3748,0.382,0.39,0.4083,0.4271,0.4285,0.445,0.4763,0.517,0.5684,0.6146,0.6734,0.7204,0.733,0.7521,0.7577,0.7647,0.7807,0.8001,0.8163,0.8356,0.8689,0.9115,0.9556,1.0107,1.0272,1.0101,1.0156,1.0376,1.0483,1.0753,1.0949,1.1097,1.1226,1.1569,1.1927,1.2203,1.2463,1.283,1.3138,1.3422,1.38,1.3828,1.4068,1.486,1.5615,1.6179,1.6763,1.7379,1.7634,1.7668,1.7812,1.8216,1.8513,1.8979,1.9152,1.9396,-0.9257,-0.8911,-0.8911,-0.8828,-0.8656,-0.8572,-0.8572,-0.8572,-0.8572,-0.8572,-0.8572,-0.8572,-0.8572,-0.8568,-0.8568,-0.8476,-0.8476,-0.8384,-0.8292,-0.8124,-0.7967,-0.7756,-0.7534,-0.7215,-0.6816,-0.642,-0.6007,-0.5566,-0.5099,-0.4573,-0.4106,-0.3715,-0.3452,-0.3331,-0.312,-0.3099,-0.295,-0.2811,-0.2617,-0.2505,-0.2403,-0.2218,-0.1927,-0.1732,-0.1636,-0.1361,-0.1007,-0.0918,-0.0742,-0.0405,-0.0161,0.024,0.0629,0.11,0.1727,0.2747,0.3139,0.3372,0.3684,0.3841,0.3921,0.4077,0.4236,0.4533,0.471,0.4812,0.5123,0.5742,0.6252,0.6852,0.7122,0.7225,0.7398,0.7508,0.756,0.7724,0.7907,0.8067,0.8327,0.8641,0.9092,0.9664,1.0242,1.0552,1.0354,1.0282,1.0336,1.0435,1.0554,1.0779,1.0922,1.1104,1.1167,1.1519,1.1995,1.2353,1.2844,1.3249,1.3546,1.3787,1.3918,1.4212,1.4758,1.5373,1.6158,1.6742,1.7246,1.7378,1.7376,1.7969,1.8392,1.8632,1.8839,1.9148,1.9494,-0.9452,-0.9165,-0.9082,-0.8911,-0.8656,-0.8572,-0.8572,-0.8572,-0.8572,-0.8572,-0.8572,-0.8572,-0.8572,-0.8572,-0.8572,-0.8568,-0.8568,-0.8572,-0.8508,-0.85,-0.8395,-0.8238,-0.8048,-0.7735,-0.731,-0.6926,-0.6513,-0.5968,-0.5494,-0.4856,-0.4292,-0.4008,-0.3707,-0.3492,-0.3283,-0.317,-0.3031,-0.2971,-0.2834,-0.2717,-0.2613,-0.2426,-0.2223,-0.2118,-0.2023,-0.1651,-0.1369,-0.128,-0.1096,-0.0661,-0.0411,0.0,0.0477,0.1108,0.1964,0.2906,0.3139,0.3374,0.3686,0.3841,0.3921,0.3997,0.4231,0.445,0.4653,0.4787,0.5415,0.6023,0.6546,0.6929,0.7003,0.7078,0.73,0.7455,0.7534,0.7674,0.7824,0.7967,0.8273,0.8517,0.9034,0.9548,1.0047,1.0371,1.0571,1.0438,1.0483,1.0629,1.0704,1.0763,1.0927,1.1075,1.1009,1.1082,1.1593,1.2263,1.2868,1.3314,1.3622,1.3863,1.4048,1.4449,1.4901,1.555,1.6238,1.6684,1.7148,1.7094,1.7166,1.7892,1.8616,1.8826,1.9066,1.9321,1.9701,-0.9586,-0.9488,-0.9336,-0.8999,-0.8652,-0.8656,-0.8656,-0.8652,-0.8656,-0.8656,-0.8656,-0.8572,-0.8572,-0.8572,-0.8572,-0.8572,-0.8589,-0.8605,-0.8686,-0.8828,-0.8663,-0.8574,-0.8408,-0.8077,-0.7841,-0.7397,-0.6972,-0.6571,-0.6015,-0.5353,-0.4692,-0.4437,-0.392,-0.3687,-0.3448,-0.3345,-0.3206,-0.3049,-0.2999,-0.2871,-0.2814,-0.2703,-0.2517,-0.2422,-0.2324,-0.2044,-0.184,-0.1649,-0.1553,-0.1183,-0.0749,-0.0329,0.0482,0.1278,0.2217,0.2749,0.2982,0.3294,0.3606,0.3684,0.3763,0.3919,0.4151,0.4307,0.452,0.4817,0.5381,0.6083,0.6566,0.6896,0.7,0.7198,0.7343,0.7491,0.7651,0.7747,0.7913,0.8051,0.8197,0.8447,0.8776,0.935,0.974,1.0053,1.0364,1.0425,1.0517,1.0677,1.0854,1.0834,1.0977,1.1114,1.1134,1.1162,1.1506,1.2197,1.2914,1.3407,1.367,1.3914,1.4129,1.4557,1.5104,1.579,1.6553,1.6595,1.6869,1.6905,1.7353,1.8269,1.8864,1.9005,1.9265,1.9482,1.9702,-0.9507,-0.9312,-0.9109,-0.8828,-0.8652,-0.874,-0.8823,-0.8828,-0.9087,-0.8915,-0.8656,-0.8656,-0.8568,-0.8656,-0.8572,-0.8572,-0.8601,-0.8686,-0.8771,-0.8889,-0.8878,-0.8937,-0.8882,-0.8622,-0.839,-0.8007,-0.7575,-0.7075,-0.6289,-0.562,-0.4937,-0.4736,-0.4336,-0.4016,-0.3703,-0.35,-0.3368,-0.3216,-0.3095,-0.3034,-0.2961,-0.2935,-0.2834,-0.2623,-0.2423,-0.2332,-0.2134,-0.1866,-0.1669,-0.1296,-0.086,-0.025,0.0477,0.1363,0.2074,0.2601,0.2829,0.3146,0.337,0.3528,0.3606,0.3763,0.3997,0.4231,0.4465,0.4781,0.5249,0.5948,0.649,0.6795,0.7073,0.7203,0.7476,0.759,0.7699,0.7887,0.806,0.8083,0.8153,0.8382,0.8641,0.8969,0.9356,0.974,1.0053,1.0231,1.0345,1.0458,1.0759,1.0875,1.1015,1.1209,1.1349,1.1495,1.1719,1.2068,1.284,1.3365,1.3691,1.3956,1.4206,1.4896,1.5547,1.6236,1.6827,1.6931,1.7043,1.7083,1.7661,1.8441,1.8787,1.8808,1.9114,1.935,1.9587,-0.948,-0.9418,-0.9178,-0.8999,-0.8915,-0.8911,-0.8999,-0.9082,-0.9257,-0.9174,-0.8915,-0.8828,-0.874,-0.8652,-0.8656,-0.8633,-0.867,-0.8771,-0.8938,-0.9064,-0.9149,-0.9212,-0.9212,-0.9174,-0.8928,-0.8528,-0.8035,-0.7431,-0.6537,-0.6037,-0.5536,-0.5037,-0.4738,-0.4336,-0.3935,-0.3732,-0.3518,-0.3381,-0.3179,-0.3124,-0.3035,-0.3011,-0.297,-0.2746,-0.2727,-0.2539,-0.2336,-0.2064,-0.1872,-0.1408,-0.0961,-0.0171,0.0577,0.1397,0.2023,0.2468,0.2767,0.3015,0.3231,0.3377,0.3454,0.3608,0.3841,0.3997,0.4153,0.4467,0.4859,0.5479,0.618,0.6563,0.6942,0.7175,0.7538,0.7799,0.7784,0.7911,0.7929,0.7933,0.8149,0.8447,0.8582,0.8646,0.9034,0.942,0.9734,1.0117,1.018,1.0474,1.0721,1.0987,1.1142,1.1265,1.1479,1.1839,1.2161,1.2392,1.2696,1.3199,1.358,1.4152,1.4596,1.5331,1.6008,1.6596,1.7031,1.7313,1.7397,1.7397,1.7575,1.816,1.8405,1.8586,1.8879,1.9225,1.9479,-0.9391,-0.9531,-0.9447,-0.9349,-0.9257,-0.9087,-0.9174,-0.9345,-0.9345,-0.9437,-0.9349,-0.9087,-0.8999,-0.8823,-0.8781,-0.8706,-0.8816,-0.8938,-0.9116,-0.9254,-0.9356,-0.9458,-0.9441,-0.9316,-0.9225,-0.8829,-0.8336,-0.764,-0.6836,-0.6437,-0.5937,-0.534,-0.5037,-0.4736,-0.4437,-0.4036,-0.3726,-0.3522,-0.3413,-0.3196,-0.3146,-0.3091,-0.3031,-0.2992,-0.2965,-0.2847,-0.2632,-0.2344,-0.2072,-0.1606,-0.0972,-0.0174,0.0513,0.1269,0.2001,0.2463,0.2686,0.291,0.3026,0.3089,0.3233,0.3456,0.361,0.3767,0.3847,0.4155,0.4548,0.5093,0.5792,0.6335,0.671,0.7246,0.7617,0.7905,0.7904,0.7988,0.7934,0.7912,0.8223,0.8551,0.8521,0.8521,0.8814,0.9197,0.9592,0.9903,1.0206,1.0469,1.0786,1.1057,1.133,1.1404,1.1549,1.1935,1.232,1.2573,1.2621,1.2797,1.3266,1.4108,1.4944,1.5423,1.6057,1.6769,1.7178,1.7369,1.7619,1.7725,1.7939,1.8086,1.8508,1.8844,1.8904,1.9243,1.9403,-0.9382,-0.9634,-0.9593,-0.9432,-0.9345,-0.9432,-0.9519,-0.9607,-0.9781,-0.9864,-0.9786,-0.9519,-0.9257,-0.8928,-0.8812,-0.8832,-0.8926,-0.908,-0.9218,-0.9352,-0.9486,-0.9575,-0.9517,-0.9529,-0.9331,-0.9034,-0.8538,-0.7939,-0.7338,-0.6736,-0.6337,-0.6039,-0.534,-0.5039,-0.4736,-0.4336,-0.4038,-0.3836,-0.3534,-0.3417,-0.3203,-0.315,-0.3093,-0.3056,-0.303,-0.2993,-0.2775,-0.2393,-0.2185,-0.1802,-0.1072,-0.0355,0.0352,0.1132,0.1897,0.2565,0.2797,0.2809,0.2852,0.2912,0.3058,0.3176,0.3412,0.3482,0.3632,0.3847,0.4316,0.4781,0.5404,0.5792,0.6331,0.7096,0.7553,0.7783,0.7845,0.8132,0.8248,0.8302,0.8505,0.8509,0.8441,0.8523,0.8782,0.9237,0.9851,1.0158,1.0484,1.0754,1.0969,1.1229,1.1477,1.157,1.1632,1.1607,1.1794,1.229,1.2506,1.2621,1.2975,1.395,1.4742,1.5364,1.5969,1.6582,1.6999,1.722,1.7548,1.7676,1.8008,1.8218,1.8802,1.9174,1.9177,1.9258,1.9491]},{"header":{"parameterUnit":"m.s-1","parameterCategory":1,"la1":31.0,"la2":29.5877,"lo1":-88.7671,"lo2":-86.6584,"dy":0.0162,"dx":0.0185,"nx":115,"ny":88,"refTime":"2023-08-23T18:00:00:Z","depth":0,"parameterNumber":3,"parameterNumberName":"V-component_of_WINDS"},"data":[0.0,0.0,0.0,0.0,0.0,0.0,0.0,0.0,0.0,0.0,0.0,0.0,0.0,0.0,0.0,0.0,0.0,0.0,0.0,0.0,0.0,0.0,0.0,0.0,0.0,0.0,0.0,0.0,0.0,0.0,0.0,0.0,0.0,0.0,0.0,0.0,0.0,0.0,0.0,0.0,0.0,0.0,0.0,0.0,0.0,0.0,0.0,0.0,0.0,0.0,0.0,0.0,0.0,0.0,0.0,0.0,0.0,0.0,0.0,0.0,0.0,0.0,0.0,0.0,0.0,0.0,0.0,0.0,0.0,0.0,0.0,0.0,0.0,0.0,0.0,0.0,0.0,0.0,0.0,0.0,0.0,0.0,0.0,0.0,0.0,0.0,0.0,0.0,0.0,0.0,0.0,0.0,0.0,0.0,0.0,0.0,0.0,0.0,0.0,0.0,0.0,0.0,0.0,0.0,0.0,0.0,0.0,0.0,0.0,0.0,0.0,0.0,0.0,0.0,0.0,0.0,0.0,0.0,0.0,0.0,0.0,0.0,0.0,0.0,0.0,0.0,0.0,0.0,0.0,0.0,0.0,0.0,0.0,0.0,0.0,0.0,0.0,0.0,0.0,0.0,0.0,0.0,0.0,0.0,0.0,0.0,0.0,0.0,0.0,0.0,0.0,0.0,0.0,0.0,0.0,0.0,0.0,0.0,0.0,0.0,0.0,0.0,0.0,0.0,0.0,0.0,0.0,0.0,0.0,0.0,0.0,0.0,0.0,0.0,0.0,0.0,0.0,0.0,0.0,0.0,0.0,0.0,0.0,0.0,0.0,0.0,0.0,0.0,0.0,0.0,0.0,0.0,0.0,0.0,0.0,0.0,0.0,0.0,0.0,0.0,0.0,0.0,0.0,0.0,0.0,0.0,0.0,0.0,0.0,0.0,0.0,0.0,0.0,0.0,0.0,0.0,0.0,0.0,0.0,0.0,0.0,0.0,0.0,0.0,0.0,0.0,0.0,0.0,0.0,0.0,0.0,0.0,0.0,0.0,0.0,0.0,0.0,0.0,0.0,0.0,0.0,0.0,0.0,0.0,0.0,0.0,0.0,0.0,0.0,0.0,0.0,0.0,0.0,0.0,0.0,0.0,0.0,0.0,0.0,0.0,0.0,0.0,0.0,0.0,0.0,0.0,0.0,0.0,0.0,0.0,0.0,0.0,0.0,0.0,0.0,0.0,0.0,0.0,0.0,0.0,0.0,0.0,0.0,0.0,0.0,0.0,0.0,0.0,0.0,0.0,0.0,0.0,0.0,0.0,0.0,0.0,0.0,0.0,0.0,0.0,0.0,0.0,0.0,0.0,0.0,0.0,0.0,0.0,0.0,0.0,0.0,0.0,0.0,0.0,0.0,0.0,0.0,0.0,0.0,0.0,0.0,0.0,0.0,0.0,0.0,0.0,0.0,0.0,0.0,0.0,0.0,0.0,0.0,0.0,0.0,0.0,0.0,0.0,0.0,0.0,0.0,0.0,0.0,0.0,0.0,0.0,0.0,0.0,0.0,0.0,0.0,0.0,0.0,0.0,0.0,0.0,0.0,0.0,0.0,0.0,0.0,0.0,0.0,0.0,0.0,0.0,0.0,0.0,0.0,0.0,0.0,0.0,0.0,0.0,0.0,0.0,0.0,0.0,0.0,0.0,0.0,0.0,0.0,0.0,0.0,0.0,0.0,0.0,0.0,0.0,0.0,0.0,0.0,0.0,0.0,0.0,0.0,0.0,0.0,0.0,0.0,0.0,0.0,0.0,0.0,0.0,0.0,0.0,0.0,0.0,0.0,0.0,0.0,0.0,0.0,0.0,0.0,0.0,0.0,0.0,0.0,0.0,0.0,0.0,0.0,0.0,0.0,0.0,0.0,0.0,0.0,0.0,0.0,0.0,0.0,0.0,0.0,0.0,0.0,0.0,0.0,0.0,0.0,0.0,0.0,0.0,0.0,0.0,0.0,0.0,0.0,0.0,0.0,0.0,0.0,0.0,0.0,0.0,0.0,0.0,0.0,0.0,0.0,0.0,0.0,0.0,0.0,0.0,0.0,0.0,0.0,0.0,0.0,0.0,0.0,0.0,0.0,0.0,0.0,0.0,0.0,0.0,0.0,0.0,0.0,0.0,0.0,0.0,0.0,0.0,0.0,0.0,0.0,0.0,0.0,0.0,0.0,0.0,0.0,0.0,0.0,0.0,0.0,0.0,0.0,0.0,0.0,0.0,0.0,0.0,0.0,0.0,0.0,0.0,0.0,0.0,0.0,0.0,0.0,0.0,0.0,0.0,0.0,0.0,0.0,0.0,0.0,0.0,0.0,0.0,0.0,0.0,0.0,0.0,0.0,0.0,0.0,0.0,0.0,0.0,0.0,0.0,0.0,0.0,0.0,0.0,0.0,0.0,0.0,0.0,0.0,0.0,0.0,0.0,0.0,0.0,0.0,0.0,0.0,0.0,0.0,0.0,0.0,0.0,0.0,0.0,0.0,0.0,0.0,0.0,0.0,0.0,0.0,0.0,0.0,0.0,0.0,0.0,0.0,0.0,0.0,0.0,0.0,0.0,0.0,0.0,0.0,0.0,0.0,0.0,0.0,0.0,0.0,0.0,0.0,0.0,0.0,0.0,0.0,0.0,0.0,0.0,0.0,0.0,0.0,0.0,0.0,0.0,0.0,0.0,0.0,0.0,0.0,0.0,0.0,0.0,0.0,0.0,0.0,0.0,0.0,0.0,0.0,0.0,0.0,0.0,0.0,0.0,0.0,0.0,0.0,0.0,0.0,0.0,0.0,0.0,0.0,0.0,0.0,0.0,0.0,0.0,0.0,0.0,0.0,0.0,0.0,0.0,0.0,0.0,0.0,0.0,0.0,0.0,0.0,0.0,0.0,0.0,0.0,0.0,0.0,0.0,0.0,0.0,0.0,0.0,0.0,0.0,0.0,0.0,0.0,0.0,0.0,0.0,0.0,0.0,0.0,0.0,0.0,0.0,0.0,0.0,0.0,0.0,0.0,0.0,0.0,0.0,0.0,0.0,0.0,0.0,0.0,0.0,0.0,0.0,0.0,0.0,0.0,0.0,0.0,0.0,0.0,0.0,0.0,0.0,0.0,0.0,0.0,0.0,0.0,0.0,0.0,0.0,0.0,0.0,0.0,0.0,0.0,0.0,0.0,0.0,0.0,0.0,0.0,0.0,0.0,0.0,0.0,0.0,0.0,0.0,0.0,0.0,0.0,0.0,0.0,0.0,0.0,0.0,0.0,0.0,0.0,0.0,0.0,0.0,0.0,0.0,0.0,0.0,0.0,0.0,0.0,0.0,0.0,0.0,0.0,0.0,0.0,0.0,0.0,0.0,0.0,0.0,0.0,0.0,0.0,0.0,0.0,0.0,0.0,0.0,0.0,0.0,0.0,0.0,0.0,0.0,0.0,0.0,0.0,0.0,0.0,0.0,0.0,0.0,0.0,0.0,0.0,0.0,0.0,0.0,0.0,0.0,0.0,0.0,0.0,0.0,0.0,0.0,0.0,0.0,0.0,0.0,0.0,0.0,0.0,0.0,0.0,0.0,0.0,0.0,0.0,0.0,0.0,0.0,0.0,0.0,0.0,0.0,0.0,0.0,0.0,0.0,0.0,0.0,0.0,0.0,0.0,0.0,0.0,0.0,0.0,0.0,0.0,0.0,0.0,0.0,0.0,0.0,0.0,0.0,0.0,0.0,0.0,0.0,0.0,0.0,0.0,0.0,0.0,0.0,0.0,0.0,0.0,0.0,0.0,0.0,0.0,0.0,0.0,0.0,0.0,0.0,0.0,0.0,0.0,0.0,0.0,0.0,0.0,0.0,0.0,0.0,0.0,0.0,0.0,0.0,0.0,0.0,0.0,0.0,0.0,0.0,0.0,0.0,0.0,0.0,0.0,0.0,0.0,0.0,0.0,0.0,0.0,0.0,0.0,0.0,0.0,0.0,0.0,0.0,0.0,0.0,0.0,0.0,0.0,0.0,0.0,0.0,0.0,0.0,0.0,0.0,0.0,0.0,0.0,0.0,0.0,0.0,0.0,0.0,0.0,0.0,0.0,0.0,0.0,0.0,0.0,0.0,0.0,0.0,0.0,0.0,0.0,0.0,0.0,0.0,0.0,0.0,0.0,0.0,0.0,0.0,0.0,0.0,0.0,0.0,0.0,0.0,0.0,0.0,0.0,0.0,0.0,0.0,0.0,0.0,0.0,0.0,0.0,0.0,0.0,0.0,0.0,0.0,0.115,0.0,0.0,0.0,0.0,0.0,0.0,0.0,0.0,0.0,0.0,0.0,0.0,0.0,0.0,0.0,0.0,0.0,0.0,0.0,0.0,0.0,0.0,0.0,0.0,0.0,0.0,0.0,0.0,0.0,0.0,0.0,0.0,0.0,0.0,0.0,0.0,0.0,0.0,0.0,0.0,0.0,0.0,0.0,0.0,0.0,0.0,0.0,0.0,0.0,0.0,0.0,0.0,0.0,0.0,0.0,0.0,0.0,0.0,0.0,0.0,0.0,0.0,0.0,0.0,0.0,0.0,0.0,0.0,0.0,0.0,0.0,0.0,0.0,0.0,0.0,0.0,0.0,0.0,0.0,0.0,0.0,0.0,0.0,0.0,0.0,0.0,0.0,0.0,0.0,0.0,0.0,0.0,0.0,0.0,0.0,0.0,0.0,0.0,0.0,0.0,0.0,0.0,0.0,0.0,0.0,0.0,0.0,0.0,0.0,0.0,-0.2506,-0.1663,-0.0906,-0.0136,0.0647,0.0,0.0,0.0,0.0,0.0,0.0,0.0,0.0,0.0,0.0,0.0,0.0,0.0,0.0,0.0,0.0,0.0,0.0,0.0,0.0,0.0,0.0,0.0,0.0,0.0,0.0,0.0,0.0,0.0,0.0,0.0,0.0,0.0,0.0,0.0,0.0,0.0,0.0,0.0,0.0,0.0,0.0,0.0,0.0,0.0,0.0,0.0,0.0,0.0,0.0,0.0,0.0,0.0,0.0,0.0,0.0,0.0,0.0,0.0,0.0,0.0,0.0,0.0,0.0,0.0,0.0,0.0,0.0,0.0,0.0,0.0,0.0,0.0,0.0,0.0,0.0,0.0,0.0,0.0,0.0,0.0,0.0,0.0,0.0,0.0,0.0,0.0,0.0,0.0,0.0,0.0,0.0,0.0,0.0,0.0,0.0,0.0,0.0,0.0,0.0,0.0,0.0,0.0,0.0,0.0,0.0,0.0,0.0,0.0,0.0,0.0,0.0,-0.0847,-0.0184,0.0461,0.0,0.0,0.0,0.0,0.0,0.0,0.0,0.0,0.0,0.0,0.0,0.0,0.0,0.0,0.0,0.0,0.0,0.0,0.0,0.0,0.0,0.0,0.0,0.0,0.0,0.0,0.0,0.0,0.0,0.0,0.0,0.0,0.0,0.0,0.0,0.0,0.0,0.0,0.0,0.0,0.0,0.0,0.0,0.0,0.0,0.0,0.0,0.0,0.0,0.0,0.0,0.0,0.0,0.0,0.0,0.0,0.0,0.0,0.0,0.0,0.0,0.0,0.0,0.0,0.0,0.0,0.0,0.0,0.0,0.0,0.0,0.0,0.0,0.0,0.0,0.0,0.0,0.0,0.0,0.0,0.0,0.0,0.0,0.0,0.0,0.0,0.0,0.0,0.0,0.0,0.0,0.0,0.0,0.0,0.0,0.0,0.0,0.0,0.0,0.0,0.0,0.0,0.0,0.0,0.0,0.0,0.0,0.0,0.0,0.0,-0.1782,-0.1262,-0.075,0.0,0.0704,0.0,0.0,0.0,0.0,0.0,0.0,0.0,0.0,0.0,0.0,0.0,0.0,0.0,0.0,0.0,0.0,0.0,0.0,0.0,0.0,0.0,0.0,0.0,0.0,0.0,0.0,0.0,0.0,0.0,0.0,0.0,0.0,0.0,0.0,0.0,0.0,0.0,0.0,0.0,0.0,0.0,0.0,0.0,0.0,0.0,0.0,0.0,0.0,0.0,0.0,0.0,0.0,0.0,0.0,0.0,0.0,0.0,0.0,0.0,0.0,0.0,0.0,0.0,0.0,0.0,0.0,0.0,0.0,0.0,0.0,0.0,0.0,0.0,0.0,0.0,0.0,0.0,0.0,0.0,0.0,0.0,0.0,0.0,0.0,0.0,0.0,0.0,0.0,0.0,0.0,0.0,0.0,0.0,0.0,0.0,0.0,0.0,0.0,0.0,0.0,0.0,0.0,0.0,0.0,0.0,0.0,0.0,0.0,0.0,0.0,-0.1607,-0.1158,-0.0529,0.0066,0.0,0.0,0.0,0.0,0.0,0.0,0.0,0.0,0.0,0.0,0.0,0.0,0.0,0.0,0.0,0.0,0.0,0.0,0.0,0.0,0.0,0.0,0.0,0.0,0.0,0.0,0.0,0.0,0.0,0.0,0.0,0.0,0.0,0.0,0.0,0.0,0.0,0.0,0.0,0.0,0.0,0.0,0.0,0.0,0.0,0.0,0.0,0.0,0.0,0.0,0.0,0.0,0.0,0.0,0.0,0.0,0.0,0.0,0.0,0.0,0.0,0.0,0.0,0.0,0.0,0.0,0.0,0.0,0.0,0.0,0.0,0.0,0.0,0.0,0.0,0.0,0.0,0.0,0.0,0.0,0.0,0.0,0.0,0.0,0.0,0.0,0.0,0.0,0.0,0.0,0.0,0.0,0.0,0.0,0.0,0.0,0.0,0.0,0.0,0.0,0.0,0.0,0.0,0.0,0.0,0.0,0.0,0.0,0.0,0.0,-0.1691,-0.1389,-0.094,-0.0299,0.0178,0.0479,0.0,0.0,0.0,0.0,0.0,0.0,0.0,0.0,0.0,0.0,0.0,0.0,0.0,0.0,0.0,0.0,0.0,0.0,0.0,0.0,0.0,0.0,0.0,0.0,0.0,0.0,0.0,0.0,0.0,0.0,0.0,0.0,0.0,0.0,0.0,0.0,0.0,0.0,0.0,0.0,0.0,0.0,0.0,0.0,0.0,0.0,0.0,0.0,0.0,0.0,0.0,0.0,0.0,0.0,0.0,0.0,0.0,0.0,0.0,0.0,0.0,0.0,0.0,0.0,0.0,0.0,0.0,0.0,0.0,0.0,0.0,0.0,0.0,0.0,0.0,0.0,0.0,0.0,0.0,0.0,0.0,0.0,0.0,0.0,0.0,0.0,0.0,0.0,0.0,0.0,0.0,0.0,0.0,0.0,0.0,0.0,0.0,0.0,0.0,0.0,0.0,0.0,0.0,0.0,0.0,0.0,0.0,0.0,-0.1616,-0.1416,-0.1071,-0.0552,-0.0123,0.0201,0.0,0.0,0.0,0.0,0.0,0.0,0.0,0.0,0.0,0.0,0.0,0.0,0.0,0.0,0.0,0.0,0.0,0.0,0.0,0.0,0.0,0.0,0.0,0.0,0.0,0.0,0.0,0.0,0.0,0.0,0.0,0.0,0.0,0.0,0.0,0.0,0.0,0.0,0.0,0.0,0.0,0.0,0.0,0.0,0.0,0.0,0.0,0.0,0.0,0.0,0.0,0.0,0.0,0.0,0.0,0.0,0.0,0.0,0.0,0.0,0.0,0.0,0.0,0.0,0.0,0.0,0.0,0.0,0.0,0.0,0.0,0.0,0.0,0.0,0.0,0.0,0.0,0.0,0.0,0.0,0.0,0.0,0.0,0.0,0.0,0.0,0.0,0.0,0.0,0.0,0.0,0.0,0.0,0.0,0.0,0.0,0.0,0.0,0.0,0.0,0.0,0.0,0.0,0.0,0.0,0.0,0.0,0.0,0.0,-0.1773,-0.13,-0.0862,-0.0502,-0.0103,0.0213,0.0,0.0,0.0,0.0,0.0,0.0,0.0,0.0,0.0,0.0,0.0,0.0,0.0,0.0,0.0,0.0,0.0,0.0,0.0,0.0,0.0,0.0,0.0,0.0,0.0,0.0,0.0,0.0,0.0,0.0,0.0,0.0,0.0,0.0,0.0,0.0,0.0,0.0,0.0,0.0,0.0,0.0,0.0,0.0,0.0,0.0,0.0,0.0,0.0,0.0,0.0,0.0,0.0,0.0,0.0,0.0,0.0,0.0,0.0,0.0,0.0,0.0,0.0,0.0,0.0,0.0,0.0,0.0,0.0,0.0,0.0,0.0,0.0,0.0,0.0,0.0,0.0,0.0,0.0,0.0,0.0,0.0,0.0,0.0,0.0,0.0,0.0,0.0,0.0,0.0,0.0,0.0,0.0,0.0,0.0,0.0,0.0,0.0,0.0,0.0,0.0,0.0,0.0,0.0,0.0,0.0,0.0,0.0,0.0,-0.1707,0.0,-0.0717,-0.0403,-0.0034,0.0291,0.0,0.0,0.0,0.0,0.0,0.0,0.0,0.0,0.0,0.0,0.0,0.0,0.0,0.0,0.0,0.0,0.0,0.0,0.0,0.0,0.0,0.0,0.0,0.0,0.0,0.0,0.0,0.0,0.0,0.0,0.0,0.0,0.0,0.0,0.0,0.0,0.0,0.0,0.0,0.0,0.0,0.0,0.0,0.0,0.0,0.0,0.0,0.0,0.0,0.0,0.0,0.0,0.0,0.0,0.0,0.0,0.0,0.0,0.0,0.0,0.0,0.0,0.0,0.0,0.0,0.0,0.0,0.0,0.0,0.0,0.0,0.0,0.0,0.0,0.0,0.0,0.0,0.0,0.0,0.0,0.0,0.0,0.0,0.0,0.0,0.0,0.0,0.0,0.0,0.0,0.0,0.0,0.0,0.0,0.0,0.0,0.0,0.0,0.0,0.0,0.0,0.0,0.0,0.0,0.0,0.0,0.0,0.0,-0.1774,-0.1316,-0.0993,-0.0628,-0.0202,0.0119,0.0458,0.0,0.0,0.0,0.0,0.0,0.0,0.0,0.0,0.0,0.0,0.0,0.0,0.0,0.0,0.0,0.0,0.0,0.0,0.0,0.0,0.0,0.0,0.0,0.0,0.0,0.0,0.0,0.0,0.0,0.0,0.0,0.0,0.0,0.0,0.0,0.0,0.0,0.0,0.0,0.0,0.0,0.0,0.0,0.0,0.0,0.0,0.0,0.0,0.0,0.0,0.0,0.0,0.0,0.0,0.0,0.0,0.0,0.0,0.0,0.0,0.0,0.0,0.0,0.0,0.0,0.0,0.0,0.0,0.0,0.0,0.0,0.0,0.0,0.0,0.0,0.0,0.0,0.0,0.0,0.0,0.0,0.0,0.0,0.0,0.0,0.0,0.0,0.0,0.0,0.0,0.0,0.0,0.0,0.0,0.0,0.0,0.0,0.0,0.0,0.0,0.0,0.0,0.0,0.0,0.0,0.0,0.0,0.0,0.0,-0.1502,-0.117,-0.0783,-0.0352,0.0083,0.0462,0.0,0.0,0.0,0.0,0.0,0.0,0.0,0.0,0.0,0.0,0.0,0.0,0.0,0.0,0.0,0.0,0.0,0.0,0.0,0.0,0.0,0.0,0.0,0.0,0.0,0.0,0.0,0.0,0.0,0.0,0.0,0.0,0.0,0.0,0.0,0.0,0.0,0.0,0.0,0.0,0.0,0.0,0.0,0.0,0.0,0.0,0.0,0.0,0.0,0.0,0.0,0.0,0.0,0.0,0.0,0.0,0.0,0.0,0.0,0.0,0.0,0.0,0.0,0.0,0.0,0.0,0.0,0.0,0.0,0.0,0.0,0.0,0.0,0.0,0.0,0.0,0.0,0.0,0.0,0.0,0.0,0.0,0.0,0.0,0.0,0.0,0.0,0.0,0.0,0.0,0.0,0.0,0.0,0.0,0.0,0.0,0.0,0.0,0.0,0.0,0.0,0.0,0.0,0.0,0.0,0.0,0.0,0.0,0.0,-0.1541,-0.1374,-0.0965,-0.0281,0.0141,0.055,0.0915,0.0,0.0,0.0,0.0,0.0,0.0,0.0,0.0,0.0,0.0,0.0,0.0,0.0,0.0,0.0,0.0,0.0,0.0,0.0,0.0,0.0,0.0,0.0,0.0,0.0,0.0,0.0,0.0,0.0,0.0,0.0,0.0,0.0,0.0,0.0,0.0,0.0,0.0,0.0,0.0,0.0,0.0,0.0,0.0,0.0,0.0,0.0,0.0,0.0,0.0,0.0,0.0,0.0,0.0,0.0,0.0,0.0,0.0,0.0,0.0,0.0,0.0,0.0,0.0,0.0,0.0,0.0,0.0,0.0,0.0,0.0,0.0,0.0,0.0,0.0,0.0,0.0,0.0,0.0,0.0,0.0,0.0,0.0,0.0,0.0,0.0,0.0,0.0,0.0,0.0,0.0,0.0,0.0,0.0,0.0,0.0,0.0,0.0,0.0,0.0,0.0,0.0,0.0,0.0,0.0,0.0,0.0,0.0,-0.1411,-0.1494,-0.1061,-0.0127,0.0303,0.0707,0.0,0.0,0.0,0.0,0.0,0.0,0.0,0.0,0.0,0.0,0.0,0.0,0.0,0.0,0.0,0.0,0.0,0.0,0.0,0.0,0.0,0.0,0.0,0.0,0.0,0.0,0.0,0.0,0.0,0.0,0.0,0.0,0.0,0.0,0.0,0.0,0.0,0.0,0.0,0.0,0.0,0.0,0.0,0.0,0.0,0.0,0.0,0.0,0.0,0.0,0.0,0.0,0.0,0.0,0.0,0.0,0.0,0.0,0.0,0.0,0.0,0.0,0.0,0.0,0.0,0.0,0.0,0.0,0.0,0.0,0.0,0.0,0.0,0.0,0.0,0.0,0.0,0.0,0.0,0.0,0.0,0.0,0.0,0.0,0.0,0.0,0.0,0.0,0.0,0.0,0.0,0.0,0.0,0.0,0.0,0.0,0.0,0.0,0.0,0.0,0.0,0.0,0.0,0.0,0.0,0.0,0.0,0.0,0.0,-0.1263,-0.105,-0.0612,0.0027,0.0572,0.1009,0.0,0.0,0.0,0.0,0.0,0.0,0.0,0.0,0.0,0.0,0.0,0.0,0.0,0.0,0.0,0.0,0.0,0.0,0.0,0.0,0.0,0.0,0.0,0.0,0.0,0.0,0.0,0.0,0.0,0.0,0.0,0.0,0.0,0.0,0.0,0.0,0.0,0.0,0.0,0.0,0.0,0.0,0.0,0.0,0.0,0.0,0.0,0.0,0.0,0.0,0.0,0.0,0.0,0.0,0.0,0.0,0.0,0.0,0.0,0.0,0.0,0.0,0.0,0.0,0.0,0.0,0.0,0.0,0.0,0.0,0.0,0.0,0.0,0.0,0.0,0.0,0.0,0.0,0.0,0.0,0.0,0.0,0.0,0.0,0.0,0.0,0.0,0.0,0.0,0.0,0.0,0.0,0.0,0.0,0.0,0.0,0.0,0.0,0.0,0.0,0.0,0.0,0.0,0.0,0.0,0.0,0.0,0.0,-0.1484,-0.129,-0.0741,-0.0119,0.0544,0.1035,0.1435,0.0,0.0,0.0,0.0,0.0,0.0,0.0,0.0,0.0,0.0,0.0,0.0,0.0,0.0,0.0,0.0,0.0,0.0,0.0,0.0,0.0,0.0,0.0,0.0,0.0,0.0,0.0,0.0,0.0,0.0,0.0,0.0,0.0,0.0,0.0,0.0,0.0,0.0,0.0,0.0,0.0,0.0,0.0,0.0,0.0,0.0,0.0,0.0,0.0,0.0,0.0,0.0,0.0,0.0,0.0,0.0,0.0,0.0,0.0,0.0,0.0,0.0,0.0,0.0,0.0,0.0,0.0,0.0,0.0,0.0,0.0,0.0,0.0,0.0,0.0,0.0,0.0,0.0,0.0,0.0,0.0,0.0,0.0,0.0,0.0,0.0,0.0,0.0,0.0,0.0,0.0,0.0,0.0,0.0,0.0,0.0,0.0,0.0,0.0,0.0,0.0,0.0,0.0,0.0,0.0,0.0,0.0,0.0,-0.1302,-0.1327,-0.0501,0.0354,0.1175,0.162,0.1917,0.0,0.0,0.0,0.0,0.0,0.0,0.0,0.0,0.0,0.0,0.0,0.0,0.0,0.0,0.0,0.0,0.0,0.0,0.0,0.0,0.0,0.0,0.0,0.0,0.0,0.0,0.0,0.0,0.0,0.0,0.0,0.0,0.0,0.0,0.0,0.0,0.0,0.0,0.0,0.0,0.0,0.0,0.0,0.0,0.0,0.0,0.0,0.0,0.0,0.0,0.0,0.0,0.0,0.0,0.0,0.0,0.0,0.0,0.0,0.0,0.0,0.0,0.0,0.0,0.0,0.0,0.0,0.0,0.0,0.0,0.0,0.0,0.0,0.0,0.0,0.0,0.0,0.0,0.0,0.0,0.0,0.0,0.0,0.0,0.0,0.0,0.0,0.0,0.0,0.0,0.0,0.0,0.0,0.0,0.0,0.0,0.0,0.0,0.0,0.0,0.0,0.0,0.0,0.0,0.0,0.0,0.0,0.0,-0.1148,-0.0847,-0.0054,0.0679,0.1335,0.2082,0.2458,0.0,0.0,0.0,0.0,0.0,0.0,0.0,0.0,0.0,0.0,0.0,0.0,0.0,0.0,0.0,0.0,0.0,0.0,0.0,0.0,0.0,0.0,0.0,0.0,0.0,0.0,0.0,0.0,0.0,0.0,0.0,0.0,0.0,0.0,0.0,0.0,0.0,0.0,0.0,0.0,0.0,0.0,0.0,0.0,0.0,0.0,0.0,0.0,0.3267,0.0,0.0,0.0,0.0,0.0,0.0,0.0,0.0,0.0,0.0,0.0,0.0,0.0,0.0,0.0,0.0,0.0,0.0,0.0,0.0,0.0,0.0,0.0,0.0,0.0,0.0,0.0,0.0,0.0,0.0,0.0,0.0,0.0,0.0,0.0,0.0,0.0,0.0,0.0,0.0,0.0,0.0,0.0,0.0,0.0,0.0,0.0,0.0,0.0,0.0,0.0,0.0,0.0,0.0,0.0,0.0,0.0,0.0,0.0,-0.1003,-0.0689,0.0074,0.0882,0.1715,0.2324,0.2735,0.0,0.0,0.0,0.0,0.0,0.0,0.0,0.0,0.0,0.0,0.0,0.0,0.0,0.0,0.0,0.0,0.0,0.0,0.0,0.0,0.0,0.0,0.0,0.0,0.0,0.0,0.0,0.0,0.0,0.0,0.0,0.0,0.0,0.0,0.0,0.0,0.0,0.0,0.0,0.0,0.0,0.0,0.0,0.0,0.0,0.0,0.0,0.0,0.0,0.0,0.0,0.0,0.0,0.0,0.0,0.0,0.0,0.0,0.0,0.0,0.0,0.0,0.0,0.0,0.0,0.0,0.0,0.0,0.0,0.0,0.0,0.0,0.0,0.0,0.0,0.0,0.0,0.0,0.0,0.0,0.0,0.0,0.0,0.0,0.0,0.0,0.0,0.0,0.0,0.0,0.0,0.0,0.0,0.0,0.0,0.0,0.0,0.0,0.0,0.0,0.0,0.0,0.0,0.0,0.0,0.0,0.0,-0.0994,-0.0833,-0.0546,0.0196,0.11,0.208,0.2506,0.2951,0.3436,0.0,0.0,0.0,0.0,0.0,0.0,0.0,0.0,0.0,0.0,0.0,0.0,0.0,0.0,0.0,0.0,0.0,0.0,0.0,0.0,0.0,0.0,0.0,0.0,0.0,0.0,0.0,0.0,0.0,0.0,0.0,0.0,0.0,0.0,0.0,0.0,0.0,0.0,0.1,0.1024,0.0,0.0,0.0,0.0,0.0,0.0,0.0,0.0,0.4031,0.0,0.0,0.0,0.0,0.0,0.0,0.0,0.0,0.0,0.0,0.0,0.0,0.0,0.0,0.0,0.0,0.0,0.0,0.0,0.0,0.0,0.0,0.0,0.0,0.0,0.0,0.0,0.0,0.0,0.0,0.0,0.0,0.0,0.0,0.0,0.0,0.0,0.0,0.0,0.0,0.0,0.0,0.0,0.0,0.0,0.0,0.0,0.0,0.0,0.0,0.0,0.0,0.0,0.0,0.0,0.0,-0.0628,-0.0775,-0.056,-0.004,0.069,0.1443,0.2174,0.2884,0.3439,0.3761,0.0,0.0,0.0,0.0,0.0,0.0,0.0,0.0,0.0,0.0,0.0,0.0,0.0,0.0,0.0,0.0,0.0,0.0,0.0,0.0,0.0,0.0,0.0,0.0,0.0,0.0,0.0,0.0,0.0,0.0,0.0,0.0,0.0,0.0,0.0,0.0,0.0,0.0,0.0,0.1162,0.1219,0.0,0.0,0.0,0.0,0.0,0.0,0.0,0.0,0.4031,0.0,0.0,0.0,0.0,0.0,0.0,0.0,0.0,0.0,0.0,0.0,0.0,0.0,0.0,0.0,0.0,0.0,0.0,0.0,0.0,0.0,0.0,0.0,0.0,0.0,0.0,0.0,0.0,0.0,0.0,0.0,0.0,0.0,0.0,0.0,0.0,0.0,0.0,0.0,0.0,0.0,0.0,0.0,0.0,0.0,0.0,0.0,0.0,0.0,0.0,0.0,0.0,0.0,0.0,0.0,-0.0019,-0.0055,0.0173,0.0665,0.1284,0.1902,0.2541,0.3172,0.373,0.0,0.0,0.0,0.0,0.0,0.0,0.0,0.0,0.0,0.0,0.0,0.0,0.0,0.0,0.0,0.0,0.0,0.0,0.0,0.0,0.0,0.0,0.0,0.0,0.0,0.0,0.0,0.0,0.0,0.0,0.0,0.0,0.0,0.0,0.0,0.0,0.0,0.0,0.0,0.0,0.1253,0.1285,0.1575,0.0,0.0,0.0,0.0,0.0,0.0,0.3597,0.4188,0.0,0.0,0.0,0.0,0.0,0.0,0.0,0.0,0.0,0.0,0.0,0.0,0.0,0.0,0.0,0.0,0.0,0.0,0.0,0.0,0.0,0.0,0.0,0.0,0.0,0.0,0.0,0.0,0.0,0.0,0.0,0.0,0.0,0.0,0.0,0.0,0.0,0.0,0.0,0.0,0.0,0.0,0.0,0.0,0.0,0.0,0.0,0.0,0.0,0.0,0.0,0.0,0.0,0.0,0.0,0.0804,0.0877,0.1133,0.1514,0.1996,0.2529,0.3055,0.3503,0.3991,0.0,0.0,0.0,0.0,0.0,0.0,0.0,0.0,0.0,0.0,0.0,0.0,0.0,0.0,0.0,0.0,0.0,0.0,0.0,0.0,0.0,0.0,0.0,0.0,0.0,0.0,0.0,0.0,0.0,0.0,0.0,0.0,0.0,0.0,0.0,0.0,0.0,0.0,0.0,0.0,0.0,0.1375,0.1643,0.1783,0.0,0.0,0.0,0.0,0.2937,0.3723,0.0,0.0,0.0,0.0,0.0,0.0,0.0,0.0,0.0,0.0,0.0,0.0,0.0,0.0,0.0,0.0,0.0,0.0,0.0,0.0,0.0,0.0,0.0,0.0,0.0,0.0,0.0,0.0,0.0,0.0,0.0,0.0,0.0,0.0,0.0,0.0,0.0,0.0,0.0,0.0,0.0,0.0,0.0,0.0,0.0,0.0,0.0,0.0,0.0,0.0,0.0,0.0,0.0,0.0,0.0,0.0,0.2072,0.204,0.2204,0.2615,0.2958,0.3328,0.3686,0.397,0.4255,0.0,0.0,0.0,0.0,0.0,0.0,0.0,0.0,0.0,0.0,0.0,0.0,0.0,0.0,0.0,0.0,0.0,0.0,0.0,0.0,0.0,0.0,0.0,0.0,0.0,0.0,0.0,0.0,0.0,0.0,0.0,0.0,0.0,0.0,0.0,0.0,0.0,0.0,0.0,0.0,0.0,0.1434,0.1814,0.176,0.1894,0.0,0.0,0.2606,0.3072,0.3793,0.0,0.0,0.0,0.0,0.0,0.0,0.0,0.0,0.0,0.0,0.0,0.0,0.0,0.0,0.0,0.0,0.0,0.0,0.0,0.0,0.0,0.0,0.0,0.0,0.0,0.0,0.0,0.0,0.0,0.0,0.0,0.0,0.0,0.0,0.0,0.0,0.0,0.0,0.0,0.0,0.0,0.0,0.0,0.0,0.0,0.0,0.0,0.0,0.0,0.0,0.0,0.0,0.0,0.0,0.0,0.2991,0.2881,0.2876,0.2996,0.3249,0.354,0.3834,0.4132,0.4333,0.4521,0.0,0.0,0.0,0.0,0.0,0.0,0.0,0.0,0.0,0.0,0.0,0.0,0.0,0.0,0.0,0.0,0.0,0.0,0.0,0.0,0.0,0.0,0.0,0.0,0.0,0.0,0.0,0.0,0.0,0.0,0.0,0.0,0.0,0.0,0.0,0.0,0.0,0.0,0.0,0.0,0.0,0.0,0.1771,0.1809,0.0,0.0,0.0,0.2606,0.3142,0.0,0.0,0.0,0.0,0.0,0.0,0.0,0.0,0.0,0.0,0.0,0.0,0.0,0.0,0.0,0.0,0.0,0.0,0.0,0.0,0.0,0.0,0.0,0.0,0.0,0.0,0.0,0.0,0.0,0.0,0.0,0.0,0.0,0.0,0.0,0.0,0.0,0.0,0.0,0.0,0.0,0.0,0.0,0.0,0.0,0.0,0.0,0.0,0.0,0.0,0.0,0.0,0.0,0.0,0.0,0.0,0.0,0.3675,0.3735,0.3824,0.3942,0.413,0.4316,0.4485,0.4578,0.0,0.0,0.0,0.0,0.0,0.0,0.0,0.0,0.0,0.0,0.0,0.0,0.0,0.0,0.0,0.0,0.0,0.0,0.0,0.0,0.0,0.0,0.0,0.0,0.0,0.0,0.0,0.6915,0.0,0.0,0.0,0.0,0.0,0.0,0.0,0.0,0.0,0.0,0.0,0.0,0.0,0.0,0.1676,0.1742,0.1845,0.2078,0.0,0.0,0.2643,0.3109,0.3826,0.4628,0.0,0.0,0.0,0.0,0.0,0.0,0.0,0.0,0.0,0.0,0.0,0.0,0.0,0.0,0.0,0.0,0.0,0.0,0.0,0.0,0.0,0.0,0.0,0.0,0.0,0.0,0.0,0.0,0.0,0.0,0.0,0.0,0.0,0.0,0.0,0.0,0.0,0.0,0.0,0.0,0.0,0.0,0.0,0.0,0.0,0.0,0.0,0.0,0.0,0.0,0.0,0.0,0.0,0.0,0.453,0.4697,0.4766,0.4785,0.4791,0.481,0.4802,0.4778,0.4724,0.4721,0.0,0.0,0.0,0.0,0.0,0.0,0.0,0.0,0.0,0.0,0.0,0.0,0.0,0.0,0.0,0.0,0.0,0.0,0.0,0.0,0.0,0.0,0.0,0.0,0.0,0.0,0.0,0.0,0.0,0.0,0.0,0.0,0.0,0.0,0.0,0.0,0.0,0.0,0.0,0.0,0.0,0.1878,0.1878,0.2014,0.2181,0.0,0.2613,0.2812,0.3142,0.3826,0.4564,0.5397,0.0,0.0,0.0,0.0,0.0,0.0,0.0,0.0,0.0,0.0,0.0,0.0,0.0,0.0,0.0,0.0,0.0,0.0,0.0,0.0,0.0,0.0,0.0,0.0,0.0,0.0,0.0,0.0,0.0,0.0,0.0,0.0,0.0,0.0,0.0,0.0,0.0,0.0,0.0,0.0,0.0,0.0,0.0,0.0,0.0,0.0,0.0,0.0,0.0,0.0,0.0,0.0,0.0,0.4815,0.4921,0.4917,0.4888,0.4834,0.4794,0.4763,0.4731,0.4643,0.4588,0.0,0.0,0.0,0.0,0.0,0.0,0.0,0.0,0.0,0.0,0.0,0.0,0.0,0.0,0.0,0.0,0.0,0.0,0.0,0.0,0.0,0.0,0.0,0.0,0.0,0.0,0.0,0.0,0.8346,0.9192,0.9073,0.0,0.0,0.0,0.0,0.0,0.0,0.0,0.0,0.0,0.0,0.1809,0.1945,0.2047,0.0,0.0,0.2646,0.2845,0.3335,0.4091,0.48,0.5397,0.5936,0.0,0.0,0.0,0.0,0.0,0.0,0.0,0.0,0.0,0.0,0.0,0.0,0.0,0.0,0.0,0.0,0.0,0.0,0.0,0.0,0.0,0.0,0.0,0.0,0.0,0.0,0.0,0.0,0.0,0.0,0.0,0.0,0.0,0.0,0.0,0.0,0.0,0.0,0.0,0.0,0.0,0.0,0.0,0.0,0.0,0.0,0.0,0.0,0.0,0.0,0.0,0.0,0.4941,0.5,0.4943,0.4906,0.4824,0.4767,0.4726,0.4742,0.483,0.4883,0.0,0.0,0.0,0.0,0.0,0.0,0.0,0.0,0.0,0.0,0.0,0.0,0.0,0.0,0.0,0.0,0.0,0.0,0.0,0.0,0.0,0.0,0.0,0.0,0.0,0.0,0.0,0.0,0.86,0.9222,0.8733,0.0,0.0,0.0,0.0,0.0,0.0,0.0,0.0,0.0,0.0,0.1845,0.1978,0.2114,0.2347,0.2679,0.2746,0.294,0.3434,0.4221,0.4934,0.5372,0.0,0.0,0.0,0.0,0.0,0.0,0.0,0.0,0.0,0.0,0.0,0.0,0.0,0.0,0.0,0.0,0.0,0.0,0.0,0.0,0.0,0.0,0.0,0.0,0.0,0.0,0.0,0.76,0.0,0.0,0.7417,0.0,0.0,0.0,0.0,0.0,0.0,0.0,0.0,0.0,0.0,0.0,0.0,0.0,0.0,0.0,0.0,0.0,0.0,0.0,0.0,0.0,0.0,0.5019,0.5002,0.501,0.4964,0.4908,0.4831,0.4798,0.4807,0.5424,0.5765,0.5752,0.0,0.0,0.0,0.0,0.0,0.0,0.0,0.0,0.0,0.0,0.0,0.0,0.0,0.0,0.0,0.0,0.0,0.0,0.0,0.0,0.0,0.0,0.0,0.0,0.0,0.0,0.8524,0.8896,0.875,0.0,0.0,0.0,0.0,0.0,0.0,0.0,0.0,0.0,0.1945,0.2014,0.2081,0.2014,0.2278,0.2577,0.2782,0.2874,0.3032,0.3434,0.4221,0.4902,0.0,0.0,0.0,0.0,0.0,0.0,0.0,0.0,0.0,0.0,0.0,0.0,0.0,0.0,0.0,0.0,0.0,0.0,0.0,0.0,0.0,0.0,0.0,0.0,0.0,0.0,0.0,0.8175,0.8871,0.0,0.0,0.0,0.0,0.0,0.0,0.0,0.0,0.0,0.0,0.0,0.648,0.6548,0.0,0.0,0.0,0.0,0.0,0.0,0.0,0.0,0.0,0.0,0.0,0.0,0.5502,0.5016,0.5004,0.499,0.4968,0.4933,0.4908,0.4863,0.5049,0.5356,0.5788,0.0,0.0,0.0,0.0,0.0,0.0,0.0,0.0,0.0,0.0,0.0,0.0,0.0,0.0,0.0,0.0,0.0,0.0,0.0,0.0,0.0,0.0,0.0,0.0,0.0,0.553,0.0,0.0,0.0,0.0,0.0,0.0,0.0,0.0,0.0,0.0,0.2676,0.2211,0.2242,0.2111,0.2114,0.2311,0.2444,0.261,0.0,0.0,0.0,0.0,0.0,0.0,0.0,0.0,0.0,0.0,0.0,0.0,0.0,0.0,0.7049,0.6519,0.646,0.656,0.6751,0.0,0.0,0.0,0.0,0.0,0.0,0.0,0.0,0.0,0.0,0.0,0.0,0.0,0.0,0.9604,1.0281,1.018,0.0,0.0,0.0,0.0,0.0,0.0,0.0,0.0,0.7366,0.7368,0.7317,0.7463,0.7608,0.7799,0.8083,0.8049,0.0,0.0,0.0,0.0,0.0,0.0,0.0,0.0,0.6247,0.5807,0.5837,0.5742,0.5465,0.5468,0.5286,0.4955,0.5424,0.5899,0.6313,0.7565,0.8079,0.0,0.0,0.0,0.0,0.0,0.0,0.0,0.0,0.0,0.0,0.0,0.0,0.0,0.0,0.0,0.0,0.0,0.0,0.0,0.0,0.0,0.0,0.0,0.4834,0.0,0.0,0.0,0.0,0.0,0.0,0.0,0.0,0.0,0.3471,0.2742,0.238,0.2474,0.2311,0.2281,0.2543,0.0,0.0,0.0,0.0,0.0,0.0,0.0,0.4511,0.5087,0.5372,0.5727,0.6468,0.7026,0.7465,0.7696,0.0,0.0,0.6646,0.6551,0.6727,0.7179,0.7372,0.7427,0.7436,0.753,0.7634,0.0,0.0,0.0,0.0,0.7589,0.0,0.0,0.0,1.0636,1.1248,0.0,1.1606,0.0,0.0,0.0,0.0,0.8823,0.942,0.0,0.0,0.8746,0.8843,0.8402,0.8497,0.8623,0.8763,0.8977,0.9227,0.9462,0.8427,0.0,0.0,0.0,0.0,0.0,0.0,0.72,0.7265,0.7361,0.7115,0.6365,0.6344,0.5957,0.518,0.661,0.7388,0.7361,0.8076,0.8507,0.8587,0.7785,0.0,0.0,0.0,0.0,0.0,0.0,0.0,0.0,0.0,0.0,0.0,0.0,0.0,0.0,0.0,0.0,0.0,0.0,0.0,0.0,0.437,0.0,0.0,0.0,0.0,0.0,0.0,0.0,0.0,0.0,0.3709,0.3639,0.3113,0.2679,0.2712,0.0,0.0,0.0,0.0,0.3204,0.3462,0.3532,0.3532,0.37,0.4026,0.4479,0.4928,0.0,0.0,0.6917,0.7447,0.789,0.8407,0.826,0.7797,0.6786,0.6769,0.7144,0.8042,0.8237,0.8263,0.8271,0.8328,0.844,0.9871,0.0,0.0,0.0,0.0,0.9369,0.9738,1.0186,1.0428,1.078,1.1207,1.1156,0.0,0.0,0.0,0.0,0.0,0.0,0.9356,0.9224,0.9339,0.9514,0.9742,0.9805,0.9968,1.0114,1.0262,1.0518,1.0736,1.0222,0.9579,0.8879,0.0,0.0,0.0,0.0,0.7639,0.7332,0.7384,0.7343,0.715,0.7214,0.7104,0.6855,0.7856,0.8389,0.8372,0.9078,0.9196,0.8631,0.8929,0.0,0.0,0.0,0.0,0.0,0.0,0.0,0.0,0.0,0.0,0.0,0.0,0.0,0.0,0.0,0.0,0.0,0.0,0.0,0.3617,0.4277,0.494,0.0,0.0,0.0,0.0,0.0,0.0,0.0,0.0,0.0,0.3372,0.3039,0.2907,0.0,0.0,0.297,0.327,0.3438,0.3602,0.3761,0.37,0.0,0.3896,0.4123,0.4447,0.4928,0.5759,0.6607,0.7356,0.7788,0.8173,0.8464,0.852,0.8411,0.8122,0.7778,0.7939,0.875,0.9163,0.9049,0.8566,0.8515,0.8637,1.1925,1.1483,1.067,1.0218,1.0146,1.058,1.087,1.1165,1.1571,1.187,1.2067,1.2019,1.1921,1.1749,1.1546,0.0,0.0,0.0,1.0521,1.0326,1.0552,1.0721,1.0908,1.1031,1.1152,1.1337,1.1503,1.1653,1.1856,1.1434,1.0941,1.0362,0.0,0.8517,0.8159,0.8425,0.8442,0.8187,0.8285,0.8235,0.7985,0.7704,0.7717,0.8079,0.8925,0.9503,0.9829,1.0238,1.0256,0.9699,0.9506,0.9348,0.0,0.0,0.0,0.0,0.0,0.0,0.0,0.0,0.0,0.0,0.0,0.8733,0.8821,0.0,0.0,0.0,0.6077,0.4851,0.4357,0.4776,0.0,0.0,0.0,0.0,0.0,0.0,0.0,0.5628,0.4473,0.3607,0.341,0.353,0.3535,0.3361,0.3237,0.3303,0.3536,0.0,0.3826,0.4016,0.3928,0.3901,0.4091,0.435,0.4748,0.549,0.6348,0.7033,0.7517,0.7984,0.8324,0.8488,0.8643,0.8765,0.8716,0.8476,0.8497,0.9182,0.9576,0.9616,0.9134,0.9083,0.9249,1.4029,1.3698,1.1867,1.1056,1.1011,1.2042,1.2459,1.2535,1.3643,1.3995,1.3815,1.3815,1.3715,1.3483,1.3127,0.0,1.1526,1.2266,1.216,1.1446,1.2079,1.2201,1.1928,1.2091,1.2266,1.2403,1.2593,1.2722,1.2763,1.2307,1.2129,1.2229,1.0678,0.9605,0.9061,0.9357,0.9556,0.9692,0.9819,0.9532,0.8815,0.8073,0.8085,0.8863,0.9818,1.0627,1.1363,1.1461,1.1474,1.1358,0.987,0.941,1.0185,0.0,0.0,0.0,0.0,0.0,0.0,0.0,0.0,0.0,0.0,0.0,0.0,0.0,0.0,0.9008,0.7765,0.0,0.616,0.5705,0.0,0.0,0.0,0.575,0.575,0.5982,0.5839,0.4973,0.0,0.0,0.387,0.4427,0.4565,0.3807,0.3632,0.3648,0.3823,0.396,0.41,0.44,0.4215,0.4123,0.4291,0.4699,0.5366,0.6441,0.6985,0.7371,0.7609,0.8039,0.839,0.8561,0.8741,0.8903,0.8765,0.8861,0.9096,0.9319,0.9686,0.9932,0.9806,0.9934,1.006,1.6119,1.6004,1.5469,1.4607,1.3616,1.3866,1.4262,1.4752,1.5006,1.5014,1.4827,1.4838,1.475,1.4501,1.3813,1.3367,1.3115,1.2811,1.2605,1.246,1.2713,1.2848,1.2869,1.3041,1.316,1.3291,1.3388,1.3467,1.3526,1.352,1.3285,1.2891,1.2472,1.1818,1.0971,1.1116,1.129,1.1489,1.0957,1.0366,0.9654,0.9481,0.9515,0.9716,1.0583,1.1126,1.1344,1.1951,1.2295,1.2284,1.1935,1.1798,1.1903,1.1367,0.0,0.0,0.0,0.0,0.0,0.0,0.0,0.0,0.0,1.0845,1.0665,0.0,0.955,0.0,0.8773,0.8029,0.7272,0.6597,0.0,0.0,0.6109,0.6246,0.6047,0.6284,0.6292,0.5763,0.5422,0.5218,0.5213,0.5691,0.5926,0.5711,0.4941,0.4541,0.4786,0.4859,0.4962,0.5103,0.4723,0.4393,0.4574,0.5399,0.6427,0.7471,0.7493,0.7523,0.7895,0.8278,0.8561,0.8814,0.8943,0.8975,0.9056,0.9056,0.9217,0.9625,0.9902,1.0019,1.001,1.0127,1.0361,1.7109,1.7027,1.6985,1.6666,1.6204,1.5619,1.5558,1.5834,1.5868,1.576,1.5611,1.5552,1.5474,1.5325,1.4925,1.4723,1.4689,1.4376,1.4245,1.4315,1.4469,1.4585,1.4695,1.4423,1.4367,1.4468,1.4163,1.4041,1.4118,1.4259,1.4146,1.3813,1.3844,1.3592,1.306,1.2342,1.205,1.2219,1.1865,1.146,1.1029,1.1055,1.1232,1.1592,1.1655,1.2021,1.27,1.2539,1.2599,1.2956,1.2749,1.2613,1.2621,1.2411,1.2949,0.0,0.0,0.0,0.0,0.0,0.0,0.0,0.0,0.0,0.0,0.0,0.9867,0.9056,0.89,0.8618,0.8053,0.7196,0.6654,0.6607,0.6525,0.6494,0.6468,0.6585,0.6569,0.6349,0.6153,0.6024,0.6024,0.6239,0.6413,0.6407,0.5848,0.5429,0.5433,0.5441,0.5553,0.572,0.5347,0.5151,0.5535,0.6477,0.739,0.8005,0.8022,0.7975,0.8334,0.8545,0.8814,0.9056,0.9177,0.9248,0.9386,0.9257,0.9328,0.9813,1.0059,1.0127,1.0205,1.0264,1.0428,1.7766,1.7652,1.7651,1.8014,1.8514,1.7408,1.6835,1.6691,1.6679,1.6616,1.6498,1.6431,1.6361,1.6291,1.6255,1.6237,1.6255,1.6216,1.6246,1.6312,1.6435,1.6555,1.6638,1.5968,1.571,1.5794,1.5121,1.4828,1.4881,1.4998,1.5019,1.4935,1.4963,1.4988,1.4871,1.336,1.2591,1.2567,1.2633,1.2589,1.2422,1.2422,1.2783,1.3509,1.2874,1.3185,1.4549,1.3473,1.3164,1.3867,1.3392,1.3175,1.3373,1.3238,1.3611,0.0,1.6052,0.0,0.0,0.0,0.0,0.0,0.0,0.0,0.0,1.0936,0.9971,0.8593,0.8842,0.8987,0.8725,0.7723,0.7196,0.7472,0.706,0.6823,0.6948,0.6876,0.6767,0.6706,0.6517,0.6372,0.6325,0.6346,0.6399,0.6392,0.6426,0.6284,0.6001,0.5939,0.6079,0.6215,0.6002,0.6149,0.6854,0.759,0.8139,0.8367,0.8391,0.8529,0.8691,0.891,0.9105,0.9266,0.9408,0.9567,0.9713,0.9536,0.9567,1.0049,1.0244,1.0312,1.0322,1.039,1.0514,1.9643,1.9562,1.9507,1.9573,1.9673,1.9394,1.905,1.8739,1.8727,1.8651,1.854,1.8506,1.8493,1.8373,1.779,1.7532,1.7511,1.6998,1.679,1.6857,1.694,1.7009,1.7079,1.7004,1.6983,1.7027,1.6923,1.6867,1.6932,1.697,1.6662,1.6086,1.6098,1.5783,1.5171,0.0,0.0,0.0,1.3505,1.3194,1.2533,1.2487,1.2806,1.3503,1.3914,0.0,1.5422,1.5808,1.6109,1.6327,1.6261,0.0,0.0,0.0,0.0,0.0,0.0,0.0,0.0,0.0,0.0,0.0,1.3256,1.2446,1.165,1.1088,1.0535,0.9969,0.9979,0.9963,0.9705,0.875,0.8265,0.8602,0.8295,0.7903,0.7531,0.7377,0.7124,0.6529,0.6395,0.6286,0.6033,0.6119,0.6331,0.6353,0.66,0.6812,0.6811,0.6747,0.6793,0.6949,0.6984,0.7175,0.7523,0.8111,0.8553,0.8667,0.8626,0.8724,0.8926,0.9128,0.9386,0.9661,0.9762,0.9823,0.9911,0.9902,0.9932,1.0205,1.04,1.0505,1.0418,1.0534,1.0575,2.0269,2.0253,2.0177,2.0153,0.0,2.0078,1.9934,1.9756,1.9613,1.9485,1.9382,1.9368,1.9324,1.9295,1.8929,1.8772,1.8767,1.8465,1.8354,1.8451,1.849,1.8577,1.8631,1.826,1.8115,1.8182,1.7761,1.7585,1.7653,1.7634,1.7464,1.7106,1.71,1.6887,1.6496,1.648,1.5792,1.4392,1.4444,1.4226,1.3764,1.3735,1.3874,1.413,1.4004,0.0,0.0,0.0,0.0,0.0,0.0,0.0,0.0,1.6682,0.0,1.7354,1.6772,1.6354,1.6273,1.5227,1.4396,1.3925,1.3068,1.2265,1.161,1.1012,1.068,1.0624,1.0515,1.039,1.0273,0.9733,0.9378,0.946,0.8963,0.8454,0.8139,0.767,0.7217,0.6854,0.6523,0.6329,0.63,0.6513,0.6665,0.6751,0.6877,0.7046,0.7137,0.7228,0.733,0.7426,0.7579,0.778,0.7995,0.8357,0.8797,0.8918,0.8918,0.8967,0.9266,0.9426,0.9585,0.992,1.0029,1.0088,1.0166,1.0166,1.0176,1.0361,1.0603,1.0708,1.0659,1.0725,1.0733,2.0886,2.0864,2.0822,2.0772,2.0772,2.0706,2.0677,2.0654,2.0105,0.0,0.0,1.9707,1.9682,1.9682,1.9738,1.9769,1.9769,1.9832,1.9888,1.995,1.9992,2.0069,2.0093,1.9454,1.9191,1.9214,1.8512,1.8196,1.826,1.8266,1.8194,1.8056,1.8037,1.7945,1.7829,1.7819,1.709,1.567,1.5645,1.5606,1.5495,1.5456,1.5476,1.5461,1.4648,1.4451,1.5017,1.5035,1.5361,1.6086,1.6855,1.731,1.7412,1.7564,1.7514,1.7187,1.6709,1.6246,1.5767,1.4907,1.4144,1.3547,1.2801,1.2099,1.1554,1.1015,1.0784,1.1006,1.0899,1.0812,1.0774,1.0574,1.0312,1.007,0.9432,0.8912,0.863,0.7912,0.739,0.7202,0.6755,0.6529,0.6811,0.7005,0.7184,0.7241,0.7217,0.7219,0.7314,0.7549,0.7709,0.7844,0.7953,0.8152,0.8447,0.8683,0.8918,0.9199,0.9177,0.9266,0.9594,0.9762,0.9872,1.0098,1.0235,1.0351,1.0418,1.039,1.039,1.0544,1.0766,1.0947,1.0916,1.0881,1.0746,2.2723,2.2719,2.2648,2.261,2.2629,2.2599,2.2577,2.2391,2.0826,2.0116,2.0041,2.0041,2.0041,2.004,2.0021,2.005,2.005,2.0041,2.0106,2.015,2.0175,2.0223,2.0262,2.016,2.0122,2.0185,2.0081,2.0014,2.0034,2.002,1.9696,1.9076,1.8945,1.8576,1.7936,1.7878,1.7752,1.7514,1.7445,1.7407,1.7324,1.7262,1.7519,1.8017,1.776,1.7992,1.8643,1.8468,1.8517,1.8594,1.8598,1.8652,1.8721,1.8631,1.8378,1.7862,1.7052,1.6351,1.5894,1.527,1.4501,1.3581,1.316,1.2556,1.1583,1.127,1.1223,1.141,1.156,1.1586,1.1367,1.1164,1.0791,1.0256,0.9923,0.9416,0.8678,0.8348,0.7929,0.7328,0.7046,0.6996,0.7196,0.7451,0.7617,0.7597,0.7525,0.7467,0.7725,0.799,0.8161,0.8278,0.8332,0.8488,0.8854,0.9088,0.9279,0.9288,0.9506,0.9634,0.9713,0.999,1.0205,1.0283,1.0438,1.0572,1.0649,1.0611,1.0659,1.0822,1.1023,1.1136,1.1052,1.0793,1.0516,2.3093,2.311,2.3062,2.3053,2.3058,2.3065,2.3008,2.2882,2.2086,2.1687,2.1613,2.1628,2.162,2.163,2.1611,2.1611,2.163,2.1617,2.1641,2.1671,2.17,2.1733,2.1731,2.1316,2.1133,2.1129,2.0667,2.0454,2.0458,2.0439,2.0264,1.9904,1.988,1.9681,1.9347,1.9303,1.9294,1.9236,1.8297,1.7786,1.7753,1.7689,1.7797,1.8051,1.7941,1.7978,1.8248,1.8531,1.8636,1.8557,1.885,1.8966,1.8878,1.877,1.8413,1.7871,1.7167,1.6559,1.6105,1.5374,1.469,1.4098,1.3789,1.3353,1.265,1.2041,1.1796,1.2089,1.2245,1.2233,1.215,1.1859,1.1549,1.1256,1.0862,1.0366,0.9926,0.9455,0.8838,0.7931,0.7695,0.7724,0.7917,0.8109,0.8176,0.8179,0.8004,0.795,0.8018,0.8234,0.8514,0.8819,0.8895,0.9016,0.9346,0.9655,0.9804,0.9834,0.9892,0.998,1.0059,1.0283,1.039,1.0554,1.0631,1.0746,1.0899,1.0909,1.0985,1.105,1.1212,1.1196,1.0758,1.0494,1.0476,2.3682,2.3679,2.3675,2.3688,2.3678,2.3702,2.3653,2.3626,2.3599,2.3587,2.3476,2.3133,2.2933,2.2926,2.2926,2.2907,2.2926,2.294,2.294,2.2939,2.3001,2.3042,2.296,2.2371,2.2088,2.2037,2.1399,2.1087,2.1068,2.0892,2.0698,2.0515,2.0519,2.0511,2.05,2.0519,2.0467,2.0347,1.9095,1.8393,1.8365,1.8304,1.8244,1.8168,1.808,1.7943,1.7903,1.8298,1.8481,1.8415,1.8854,1.9019,1.8824,1.8658,1.833,1.7777,1.7273,1.6759,1.6231,1.5507,1.4937,1.4658,1.4438,1.4117,1.3682,1.3022,1.265,1.278,1.278,1.285,1.2873,1.2544,1.2247,1.2118,1.1664,1.1228,1.109,1.0606,0.9881,0.891,0.8704,0.8867,0.9255,0.9411,0.9389,0.9094,0.8832,0.8675,0.8492,0.8582,0.8836,0.9056,0.9333,0.9677,0.9911,1.0254,1.0448,1.0487,1.0361,1.0322,1.039,1.0467,1.0572,1.0746,1.0833,1.0909,1.1071,1.1147,1.1185,1.125,1.1194,1.0922,1.0343,1.0421,1.0654,2.5426,2.5465,2.5387,2.5461,2.5393,2.54,2.5395,2.5392,2.5421,2.5434,2.5192,2.3727,2.3047,2.298,2.3033,2.3091,2.3072,2.3018,2.3086,2.3147,2.3093,2.31,2.3166,2.304,2.2968,2.2968,2.2834,2.2698,2.2659,2.2037,2.1311,2.0581,2.0503,2.0536,2.0522,2.0522,2.0511,2.0506,2.0332,2.02,2.0089,2.0019,1.9975,1.9962,1.9812,1.9711,1.9526,1.9495,1.9406,1.9284,1.9193,1.9035,1.886,1.8619,1.8325,1.7939,1.7522,1.6949,1.6285,1.5796,1.5433,1.5104,1.4982,1.4735,1.4287,1.4157,1.3828,1.3391,1.3198,1.3335,1.362,1.3242,1.278,1.2411,1.2164,1.1806,1.141,1.1136,1.0836,1.028,1.0226,1.0573,1.1388,1.1676,1.1386,1.0168,0.9988,0.9796,0.9401,0.9308,0.9193,0.8973,0.9431,1.0242,1.0649,1.0957,1.1082,1.1086,1.0853,1.0708,1.0679,1.0746,1.0888,1.086,1.0957,1.1082,1.1094,1.1185,1.126,1.1265,1.0919,1.0289,1.0255,1.0576,1.1091,2.5703,2.5703,2.5702,2.57,2.5696,2.5693,2.5691,2.5691,2.5689,2.5687,2.5629,2.4903,2.4573,2.4538,2.4533,2.4533,2.4533,2.4533,2.4557,2.4588,2.4599,2.4645,2.4592,2.4096,2.3864,2.3803,2.3354,2.3098,2.3037,2.2725,2.2391,2.2015,2.1528,2.1255,2.123,2.0756,2.0513,2.0499,2.0515,2.0697,2.1014,2.056,2.025,2.0233,2.0162,2.0317,2.0625,2.0564,2.0669,2.1007,2.0836,2.0623,2.0408,1.9797,1.9437,1.9333,1.8876,1.8192,1.7321,1.6955,1.6532,1.5926,1.5696,1.5404,1.5058,1.4949,1.4825,1.4704,1.4208,1.3993,1.4287,1.4098,1.3736,1.3376,1.322,1.3006,1.2749,1.2621,1.2464,1.2113,1.189,1.1963,1.2577,1.2733,1.2137,1.104,1.0738,1.0637,1.0329,1.0202,0.9969,0.9556,0.9424,0.9875,1.0861,1.141,1.1533,1.1507,1.1309,1.1109,1.1071,1.1033,1.1061,1.1012,1.1046,1.0994,1.0833,1.1074,1.125,1.1198,1.0791,1.0201,1.052,1.0854,1.1294,2.5701,2.5702,2.5703,2.5703,2.5702,2.5702,2.5702,2.5702,2.5702,2.5702,2.5702,2.5701,2.5673,2.5632,2.5623,2.5619,2.5619,2.5639,2.5623,2.5626,2.5676,2.5681,2.5625,2.5084,2.4754,2.4674,2.4147,2.3714,2.3493,2.3449,2.3332,2.304,2.2457,2.2164,2.2084,2.1491,2.121,2.1218,2.1196,2.1487,2.1886,2.1396,2.103,2.1016,2.0949,2.1176,2.1645,2.1563,2.1714,2.2192,2.1996,2.1748,2.1534,2.0994,2.07,2.0645,2.0069,1.9363,1.8555,1.8264,1.7757,1.6948,1.6647,1.6292,1.5814,1.561,1.5697,1.5883,1.527,1.4935,1.4996,1.489,1.4658,1.4374,1.4214,1.4052,1.3927,1.3868,1.3709,1.3493,1.3162,1.3151,1.3323,1.322,1.2694,1.1932,1.1684,1.1475,1.1327,1.1184,1.0971,1.0496,0.9734,0.9708,1.0698,1.1157,1.1488,1.1839,1.1645,1.1326,1.1424,1.1324,1.1094,1.0908,1.094,1.0827,1.0543,1.0723,1.0802,1.0714,1.0476,1.0266,1.0609,1.0945,1.1399,2.5691,2.5735,2.572,2.58,2.5722,2.5781,2.5762,2.5879,2.5801,2.5762,2.582,2.58,2.5741,2.5799,2.5853,2.5712,2.5691,2.5691,2.5694,2.5677,2.5699,2.5699,2.5699,2.5661,2.5622,2.5523,2.5406,2.5015,2.4386,2.4342,2.3909,2.3189,2.3091,2.3049,2.3027,2.2888,2.2937,2.2803,2.2796,2.2933,2.2931,2.2882,2.2804,2.2782,2.2673,2.2574,2.2642,2.2509,2.2419,2.2348,2.2227,2.1988,2.1769,2.2043,2.1977,2.1464,2.067,2.0077,1.9772,1.9528,1.9001,1.8141,1.7915,1.7411,1.6351,1.6179,1.6274,1.6528,1.6246,1.5968,1.5755,1.558,1.5315,1.4968,1.4721,1.4582,1.4533,1.4465,1.4365,1.4222,1.4,1.3934,1.3934,1.3659,1.3463,1.3205,1.3116,1.2839,1.2357,1.2167,1.1873,1.1448,1.0953,1.0482,0.9672,1.0363,1.1326,1.1733,1.1629,1.1385,1.1415,1.1353,1.1069,1.0745,1.0592,1.0407,1.0157,0.9961,0.987,0.993,1.0318,1.0404,1.0731,1.0968,1.1434,2.7362,2.7366,2.735,2.7372,2.7372,2.7354,2.7354,2.7373,2.7373,2.7354,2.7373,2.7355,2.7355,2.7355,2.7359,2.6738,2.5759,2.5702,2.5702,2.5703,2.5703,2.5703,2.5703,2.5703,2.5703,2.5703,2.5703,2.5547,2.5291,2.5229,2.5092,2.4721,2.4193,2.3937,2.3856,2.3384,2.3103,2.3113,2.3104,2.3345,2.3848,2.385,2.4072,2.4529,2.3461,2.3102,2.3581,2.3456,2.3583,2.3992,2.3836,2.3652,2.3451,2.3267,2.3027,2.2681,2.2258,2.1717,2.1079,2.0798,2.0321,1.9462,1.9207,1.8539,1.7293,1.6815,1.6857,1.705,1.694,1.6707,1.6506,1.6262,1.5896,1.5536,1.533,1.5166,1.509,1.5058,1.4904,1.4547,1.4465,1.4529,1.4433,1.43,1.404,1.3721,1.3654,1.3504,1.3341,1.3152,1.288,1.2713,1.2386,1.2043,1.1708,1.1014,1.1093,1.1432,1.1544,1.1768,1.1881,1.1856,1.1612,1.1124,1.0732,1.0287,1.0066,0.9492,0.9365,1.0117,1.0453,1.0772,1.0899,1.1263,1.1721,2.8268,2.8252,2.8254,2.8254,2.8254,2.8274,2.8254,2.8274,2.8274,2.8274,2.8254,2.8254,2.8271,2.8271,2.8252,2.7676,2.6597,2.654,2.6541,2.6541,2.6519,2.6538,2.6538,2.6537,2.6557,2.6501,2.6229,2.6015,2.5722,2.5702,2.5701,2.5622,2.5095,2.482,2.4721,2.421,2.3954,2.3948,2.394,2.428,2.4755,2.4775,2.5002,2.5341,2.4406,2.3983,2.4501,2.4408,2.4541,2.4937,2.487,2.4654,2.4425,2.4079,2.3756,2.3544,2.3359,2.297,2.2297,2.2027,2.1574,2.0744,2.05,1.9782,1.8473,1.7706,1.7451,1.7522,1.7451,1.7265,1.7083,1.6863,1.649,1.605,1.5853,1.5739,1.5609,1.5507,1.521,1.4814,1.4842,1.4963,1.4932,1.4783,1.4501,1.4105,1.4059,1.4013,1.3941,1.3795,1.3648,1.3615,1.3234,1.3026,1.2759,1.2218,1.1796,1.2003,1.159,1.1906,1.2283,1.2259,1.2024,1.1503,1.0976,1.0432,0.9837,0.9232,0.9625,1.049,1.1097,1.1467,1.1561,1.1663,1.2011,2.8287,2.8345,2.8236,2.8395,2.8454,2.8454,2.8317,2.8415,2.8376,2.8493,2.8567,2.8353,2.8505,2.8349,2.8536,2.8283,2.8252,2.8268,2.8181,2.8064,2.8084,2.8084,2.8064,2.8006,2.801,2.7996,2.7379,2.6581,2.5859,2.584,2.5819,2.572,2.5642,2.5525,2.5661,2.5484,2.5542,2.5479,2.5436,2.5544,2.569,2.5593,2.5574,2.5605,2.5438,2.5356,2.5337,2.5265,2.5143,2.5075,2.4974,2.479,2.4526,2.4284,2.4135,2.3958,2.3735,2.354,2.3359,2.3135,2.2597,2.1958,2.1746,2.127,2.0309,1.9056,1.8285,1.8415,1.8285,1.8017,1.7904,1.7634,1.7196,1.6565,1.6313,1.6188,1.612,1.5881,1.5536,1.5165,1.5193,1.5283,1.5268,1.5106,1.4878,1.4641,1.4501,1.436,1.4254,1.4065,1.398,1.3894,1.3682,1.3467,1.3412,1.3297,1.2998,1.2681,1.195,1.1709,1.2329,1.2496,1.2235,1.1742,1.1148,1.0595,1.0034,0.959,1.0105,1.086,1.1476,1.2013,1.1978,1.1977,1.2153,2.9922,2.9927,2.9927,2.9932,2.9907,2.9932,2.9927,2.9907,2.9907,2.9907,2.9927,2.9907,2.9927,2.9907,2.9902,2.9897,2.9925,2.9913,2.9342,2.8416,2.8264,2.8287,2.8275,2.8259,2.8265,2.8257,2.8032,2.7433,2.6736,2.6581,2.6328,2.582,2.5703,2.5703,2.5702,2.5702,2.5701,2.5698,2.5694,2.5689,2.5703,2.569,2.5671,2.5604,2.5609,2.5557,2.548,2.5415,2.5303,2.5179,2.5043,2.4861,2.4657,2.4495,2.4357,2.421,2.4056,2.3855,2.3689,2.3531,2.3323,2.2982,2.2788,2.2614,2.2282,2.1604,2.125,2.1316,2.128,2.1088,2.0675,1.9712,1.8499,1.6901,1.6644,1.6617,1.6503,1.6136,1.5811,1.561,1.5624,1.5654,1.5639,1.5492,1.5417,1.5203,1.4992,1.4794,1.4588,1.4447,1.4337,1.4222,1.4013,1.3802,1.3715,1.3661,1.3493,1.3151,1.25,1.2013,1.2501,1.2731,1.242,1.2063,1.1467,1.0959,1.0336,1.0317,1.0836,1.1465,1.2198,1.2354,1.2213,1.2224,1.2366,3.071,3.071,3.0704,3.0704,3.0704,3.0704,3.0704,3.0704,3.0704,3.0704,3.0685,3.0678,3.0691,3.0691,3.0665,3.0658,3.0664,3.0658,3.0108,2.9213,2.9099,2.9134,2.9143,2.9152,2.8969,2.8772,2.8745,2.8305,2.7513,2.7438,2.703,2.6308,2.6172,2.5996,2.5742,2.5703,2.5703,2.5702,2.5698,2.5696,2.5691,2.5698,2.5701,2.5656,2.561,2.5562,2.5485,2.5453,2.5378,2.5243,2.5091,2.4961,2.4832,2.4692,2.4564,2.4428,2.4284,2.4134,2.3959,2.3813,2.3685,2.3576,2.344,2.3324,2.3247,2.3119,2.3119,2.3193,2.2933,2.2755,2.2283,2.1505,1.9894,1.7899,1.7779,1.7663,1.7389,1.669,1.6166,1.5998,1.5942,1.5942,1.5913,1.6427,1.6368,1.6213,1.5839,1.5463,1.5216,1.4858,1.4721,1.4525,1.4324,1.4144,1.3993,1.3941,1.3908,1.356,1.3153,1.2858,1.2918,1.299,1.2842,1.2594,1.2067,1.1989,1.1479,1.1359,1.165,1.2317,1.278,1.2649,1.2519,1.2449,1.2556,3.0691,3.0704,3.0697,3.069,3.069,3.0671,3.069,3.069,3.069,3.069,3.0683,3.0668,3.068,3.0673,3.0762,3.0831,3.0718,3.0959,3.0967,3.0808,3.0775,3.0736,3.0456,3.0438,3.0131,2.9663,2.9595,2.9138,2.8406,2.8372,2.7925,2.7166,2.705,2.6699,2.6191,2.5879,2.5879,2.5898,2.578,2.57,2.5699,2.5703,2.5704,2.5691,2.5624,2.5565,2.5518,2.549,2.544,2.5303,2.5164,2.5063,2.4991,2.4879,2.4723,2.461,2.4479,2.4339,2.421,2.4095,2.3937,2.3774,2.3707,2.3656,2.3544,2.3407,2.336,2.343,2.3265,2.302,2.2721,2.2334,2.1242,1.9744,1.9267,1.9132,1.8897,1.7677,1.6988,1.6642,1.6419,1.653,1.684,1.77,1.8004,1.7797,1.7156,1.6535,1.6117,1.5713,1.5114,1.4875,1.4763,1.4465,1.4319,1.4332,1.4268,1.396,1.3615,1.3425,1.3232,1.3198,1.3198,1.2948,1.2749,1.2728,1.2577,1.2247,1.2257,1.2706,1.2908,1.2873,1.2803,1.2733,1.2697,3.0626,3.0626,3.0626,3.0626,3.0626,3.0626,3.0645,3.0645,3.0657,3.0754,3.0657,3.0618,3.0726,3.0707,3.1308,3.1551,3.1669,3.2163,3.2473,3.2453,3.2516,3.1773,3.093,3.0778,3.0687,3.0451,3.0361,3.004,2.9318,2.9262,2.8799,2.7985,2.7967,2.7851,2.7577,2.6933,2.668,2.6562,2.5975,2.572,2.5698,2.5705,2.5704,2.5691,2.5648,2.5595,2.557,2.5517,2.5432,2.5312,2.5206,2.5113,2.5019,2.4959,2.4879,2.4757,2.461,2.4495,2.441,2.4284,2.419,2.4094,2.3955,2.3894,2.3792,2.366,2.3567,2.3539,2.3424,2.3289,2.3003,2.2738,2.2139,2.1617,2.0676,1.9915,1.9432,1.888,1.8383,1.8176,1.8918,1.9155,1.9167,1.94,1.9708,1.9357,1.8457,1.7462,1.7099,1.6848,1.6387,1.5673,1.5343,1.4949,1.4669,1.4683,1.4556,1.43,1.4059,1.3848,1.3628,1.3412,1.3391,1.3285,1.3123,1.3045,1.2883,1.2636,1.2896,1.306,1.3082,1.3082,1.2943,1.2838,1.2826,3.1659,3.165,3.1651,3.1642,3.1642,3.1613,3.1603,3.1603,3.1603,3.1623,3.1623,3.1603,3.1603,3.1681,3.2145,3.2387,3.2484,3.2938,3.3093,3.3103,3.3073,3.2396,3.1514,3.1287,3.1154,3.0808,3.0813,3.0517,3.0169,3.0116,2.9635,2.8997,2.8863,2.865,2.8201,2.785,2.7343,2.6992,2.6445,2.6091,2.5738,2.5703,2.569,2.5678,2.5632,2.56,2.5595,2.5556,2.5443,2.5322,2.5261,2.5206,2.5094,2.5019,2.4977,2.4898,2.4738,2.461,2.4547,2.4428,2.4321,2.4247,2.4134,2.4056,2.3976,2.3873,2.3786,2.366,2.3567,2.343,2.3247,2.2935,2.2694,2.2371,2.1722,2.0971,2.0517,2.0414,2.015,2.0122,2.0432,2.0893,2.0561,2.0644,2.0628,2.0293,1.9258,1.8568,1.8125,1.7936,1.7581,1.6808,1.5912,1.5364,1.4983,1.4896,1.4777,1.4525,1.4422,1.4251,1.3914,1.3648,1.3547,1.3493,1.3438,1.3335,1.3116,1.3012,1.3082,1.322,1.3254,1.3288,1.3185,1.3035,1.3035,3.3074,3.3074,3.3081,3.3079,3.3001,3.3006,3.2833,3.2937,3.2833,3.2852,3.2852,3.2937,3.2756,3.2995,3.3018,3.3172,3.3244,3.3525,3.3517,3.3576,3.3539,3.3119,3.2492,3.2188,3.1851,3.1339,3.1033,3.0977,3.0882,3.0855,3.0411,2.9871,2.9739,2.937,2.8941,2.8572,2.8006,2.7577,2.7265,2.6873,2.6324,2.6117,2.6008,2.5963,2.5679,2.5625,2.5582,2.5517,2.544,2.5332,2.5313,2.5252,2.5214,2.5106,2.5019,2.4977,2.4846,2.4704,2.4607,2.4547,2.4464,2.4339,2.4284,2.421,2.4152,2.4054,2.3974,2.3855,2.366,2.3544,2.3407,2.3091,2.2841,2.2703,2.2554,2.2364,2.213,2.1928,2.1708,2.1419,2.1324,2.1151,2.1006,2.0974,2.1054,2.0844,2.0002,1.9522,1.9122,1.8928,1.8443,1.7748,1.6778,1.5751,1.5413,1.5105,1.4913,1.4746,1.4727,1.4544,1.4086,1.3815,1.3682,1.3628,1.3628,1.3527,1.3369,1.3323,1.3323,1.3357,1.3425,1.3493,1.3459,1.3288,1.3207,3.3029,3.3029,3.3018,3.3026,3.3026,3.3014,3.3014,3.3053,3.3034,3.3138,3.3034,3.3034,3.3072,3.3111,3.3747,3.4021,3.4133,3.4615,3.5093,3.5155,3.5136,3.4672,3.3929,3.3351,3.2882,3.253,3.1991,3.1783,3.1691,3.1272,3.0752,3.0606,3.0593,3.0518,3.0226,2.9565,2.9275,2.8944,2.8359,2.791,2.7537,2.6983,2.6718,2.6657,2.6041,2.5668,2.5587,2.5544,2.5495,2.544,2.5351,2.5303,2.5252,2.5195,2.5125,2.5019,2.4959,2.4861,2.4704,2.466,2.4578,2.4479,2.4428,2.4411,2.434,2.4228,2.417,2.4074,2.3876,2.3682,2.3517,2.3289,2.3077,2.297,2.2885,2.2781,2.2552,2.2198,2.1899,2.1691,2.1495,2.1277,2.1214,2.123,2.1214,2.1119,2.083,2.0395,2.0102,1.9793,1.9284,1.8643,1.8189,1.7286,1.6812,1.6434,1.6102,1.5716,1.5515,1.5186,1.4754,1.4232,1.4126,1.4007,1.3861,1.3728,1.3594,1.3493,1.3493,1.356,1.3607,1.3659,1.365,1.351,1.3693,3.4202,3.4202,3.4179,3.4179,3.4166,3.4173,3.418,3.4161,3.418,3.418,3.4161,3.4161,3.418,3.418,3.4635,3.4873,3.4979,3.538,3.5665,3.5667,3.5648,3.5446,3.5155,3.4542,3.4097,3.3414,3.2875,3.2669,3.2526,3.2225,3.188,3.1426,3.145,3.1157,3.0925,3.0421,2.9954,2.9546,2.9159,2.875,2.8261,2.7884,2.7596,2.7413,2.6739,2.6213,2.6226,2.5732,2.5563,2.5488,2.5404,2.5332,2.5303,2.528,2.5195,2.5094,2.5012,2.4983,2.4879,2.4768,2.4711,2.4613,2.4599,2.4515,2.4465,2.4376,2.4284,2.419,2.4036,2.3873,2.3562,2.3424,2.3265,2.3168,2.313,2.303,2.2816,2.2426,2.2118,2.1991,2.1721,2.1617,2.1526,2.1495,2.1464,2.1386,2.123,2.0814,2.0586,2.0327,2.0076,1.9653,1.9506,1.9055,1.8446,1.7998,1.7621,1.7179,1.675,1.6318,1.5805,1.5222,1.4659,1.4438,1.4172,1.4026,1.3894,1.3762,1.3674,1.3734,1.3786,1.3864,1.3973,1.4085,1.4359,3.5547,3.5566,3.5489,3.547,3.5457,3.5411,3.5378,3.5416,3.5493,3.5262,3.5468,3.5507,3.5238,3.543,3.5391,3.5509,3.5553,3.5593,3.5673,3.5654,3.5704,3.5649,3.5544,3.5369,3.4967,3.3771,3.3563,3.356,3.3555,3.3415,3.2798,3.236,3.2285,3.1895,3.1253,3.1021,3.0693,3.0011,2.9842,2.955,2.8926,2.8648,2.8418,2.7986,2.7539,2.7104,2.6962,2.6514,2.601,2.586,2.5608,2.5541,2.564,2.536,2.5269,2.5191,2.5095,2.5018,2.4964,2.4875,2.4802,2.4757,2.4729,2.465,2.4568,2.45,2.4412,2.4303,2.4208,2.4361,2.4213,2.3978,2.3927,2.3898,2.3808,2.3492,2.316,2.2762,2.2487,2.2265,2.2049,2.1903,2.1797,2.1768,2.1708,2.1634,2.1433,2.123,2.1039,2.0795,2.0501,2.0265,2.0015,1.9904,1.9346,1.9041,1.8732,1.835,1.7882,1.7282,1.6752,1.6191,1.5547,1.4804,1.4496,1.4316,1.4151,1.3993,1.3967,1.3953,1.4235,1.4577,1.4699,1.4719,1.5034,3.5326,3.5326,3.5345,3.5326,3.5345,3.533,3.5364,3.5412,3.5412,3.5427,3.5493,3.5507,3.5474,3.5474,3.5493,3.5515,3.5528,3.5577,3.5631,3.5651,3.5731,3.5813,3.5834,3.5863,3.5607,3.5339,3.4815,3.4431,3.4267,3.3797,3.3535,3.3249,3.318,3.2734,3.2109,3.1858,3.1567,3.0927,3.0737,3.0506,3.0273,2.9686,2.9107,2.8594,2.8189,2.8013,2.796,2.7795,2.7667,2.7535,2.6262,2.6367,2.6824,2.6179,2.5666,2.5313,2.5199,2.5107,2.5025,2.4991,2.4936,2.4875,2.4817,2.4757,2.4663,2.4566,2.45,2.4412,2.4487,2.4992,2.7447,2.5516,2.5252,2.5554,2.5421,2.4899,2.4208,2.3568,2.2877,2.2586,2.2349,2.2123,2.202,2.1945,2.1915,2.1814,2.1664,2.1464,2.1261,2.1039,2.0795,2.0579,2.0407,2.027,2.0093,1.9873,1.9607,1.925,1.8747,1.7996,1.7508,1.7107,1.6493,1.5994,1.5188,1.4653,1.4487,1.4276,1.485,1.5313,1.543,1.5495,1.5462,1.5494,1.5745,3.5315,3.5315,3.5315,3.5315,3.5315,3.5315,3.5315,3.533,3.533,3.5364,3.5379,3.5412,3.5432,3.5446,3.5446,3.5468,3.5534,3.5572,3.5608,3.5678,3.6068,3.6345,3.6358,3.6387,3.6442,3.6266,3.571,3.5301,3.53,3.5006,3.4468,3.4128,3.4078,3.3632,3.2968,3.2773,3.2561,3.2135,3.177,3.152,3.1443,3.0683,3.0009,2.964,2.9113,2.8894,2.8782,2.8281,2.81,2.7911,2.7265,2.7348,2.7672,2.7903,2.7272,2.6192,2.5543,2.521,2.5113,2.5076,2.5025,2.4966,2.4936,2.4846,2.4772,2.4679,2.4601,2.4482,2.434,2.4722,2.5928,2.512,2.4846,2.5086,2.5337,2.5201,2.4706,2.4306,2.3759,2.3068,2.2667,2.2432,2.218,2.2123,2.2106,2.202,2.1844,2.1694,2.1526,2.1309,2.1055,2.081,2.0626,2.0441,2.0373,2.0304,2.0131,1.9884,1.9557,1.8832,1.839,1.8007,1.783,1.7595,1.6636,1.5618,1.4772,1.4575,1.5613,1.6619,1.6715,1.6696,1.6394,1.6319,1.6519,3.5285,3.5285,3.5285,3.5285,3.5285,3.5285,3.5285,3.53,3.532,3.53,3.5315,3.5315,3.535,3.5364,3.5432,3.5498,3.572,3.5856,3.6028,3.64,3.6856,3.7204,3.7239,3.725,3.7287,3.7265,3.6871,3.6216,3.5841,3.5763,3.5502,3.5139,3.4973,3.453,3.3827,3.3671,3.3612,3.3185,3.2801,3.2357,3.1971,3.1504,3.1007,3.0816,3.0138,2.976,2.9688,2.9213,2.8871,2.8805,2.8633,2.8573,2.8751,2.9736,2.9355,2.7437,2.625,2.5833,2.5753,2.5772,2.578,2.5476,2.5342,2.5148,2.4861,2.4753,2.4645,2.4532,2.4413,2.4265,2.4649,2.4292,2.4411,2.4671,2.5077,2.5136,2.5039,2.4885,2.4846,2.4136,2.3293,2.272,2.246,2.2293,2.2293,2.2248,2.2077,2.1886,2.1738,2.1526,2.1277,2.1038,2.0793,2.0527,2.046,2.0509,2.0407,2.0224,2.0019,1.9532,1.9235,1.8989,1.8844,1.862,1.8143,1.707,1.5981,1.5282,1.6334,1.7214,1.7765,1.7812,1.7351,1.7099,1.7168,3.5226,3.5207,3.5226,3.5226,3.5207,3.5207,3.5242,3.5293,3.5293,3.5308,3.53,3.53,3.53,3.5426,3.5475,3.5873,3.6383,3.6664,3.6974,3.7456,3.7868,3.8083,3.8121,3.8151,3.819,3.8152,3.8031,3.7203,3.6512,3.6246,3.6044,3.5873,3.5789,3.5408,3.4647,3.4549,3.4139,3.3554,3.3326,3.2886,3.2265,3.203,3.1594,3.1114,3.0768,3.065,3.0624,3.0281,3.014,3.0192,3.0275,3.0316,3.0345,3.0395,3.0008,2.9003,2.8142,2.7561,2.7366,2.7156,2.6859,2.6364,2.6231,2.5786,2.5191,2.4813,2.4707,2.4692,2.4549,2.4394,2.4394,2.4776,2.5353,2.5582,2.5608,2.5451,2.5272,2.5535,2.5524,2.512,2.4239,2.3336,2.2729,2.2596,2.246,2.2405,2.2304,2.2135,2.1915,2.1708,2.1464,2.1167,2.1006,2.0761,2.0595,2.0644,2.061,2.0494,2.0323,2.0115,1.9869,1.9622,1.9534,1.9292,1.8884,1.8375,1.7288,1.6949,1.7383,1.7805,1.8335,1.8347,1.8108,1.7947,1.7881,3.6069,3.519,3.519,3.519,3.519,3.519,3.5226,3.5245,3.5242,3.5261,3.5239,3.5239,3.5503,3.5917,3.6093,3.6603,3.7252,3.7464,3.7706,3.8234,3.8621,3.8934,3.9013,3.9043,3.9073,3.901,3.8626,3.8135,3.7475,3.7347,3.7245,3.6707,3.6661,3.63,3.5581,3.5447,3.5252,3.4864,3.4383,3.3686,3.3086,3.2812,3.2651,3.2251,3.1775,3.1562,3.1436,3.0969,3.0753,3.0704,3.0704,3.0703,3.0637,3.0595,3.0346,3.0085,2.967,2.8936,2.8047,2.7887,2.7643,2.7397,2.707,2.6492,2.5422,2.4922,2.4783,2.4689,2.4645,2.4532,2.443,2.4654,2.4873,2.5199,2.5633,2.557,2.5412,2.6009,2.6087,2.5655,2.5109,2.401,2.3074,2.2808,2.2676,2.2596,2.2487,2.2293,2.2106,2.1886,2.1587,2.1262,2.1167,2.1023,2.0827,2.0777,2.0728,2.0662,2.0494,2.0323,2.0239,2.0085,1.9955,1.9827,1.9504,1.8948,1.8331,1.8223,1.8315,1.8573,1.886,1.8839,1.8826,1.8861,1.8823,3.6967,3.584,3.5821,3.584,3.5821,3.584,3.5859,3.584,3.5897,3.5859,3.5821,3.5897,3.6258,3.6709,3.6983,3.7437,3.8182,3.833,3.8554,3.889,3.9335,3.9765,3.9863,3.9904,3.9927,3.9974,3.9535,3.919,3.9169,3.9,3.8614,3.7596,3.757,3.7269,3.6768,3.6398,3.6163,3.574,3.5281,3.4584,3.3904,3.3711,3.3553,3.3234,3.2817,3.2413,3.2311,3.1943,3.1515,3.1479,3.0879,3.0801,3.104,3.082,3.0651,3.0485,3.0352,2.9939,2.9149,2.8772,2.8461,2.8195,2.7781,2.7077,2.6097,2.5454,2.4964,2.4798,2.5383,2.5132,2.4733,2.4723,2.4819,2.4875,2.4874,2.4982,2.5161,2.5494,2.5506,2.4951,2.4508,2.4296,2.3506,2.309,2.2868,2.2755,2.2623,2.2432,2.2248,2.2032,2.1797,2.1495,2.1356,2.1246,2.1087,2.0958,2.0893,2.0794,2.0662,2.0592,2.0506,2.0388,2.02,2.0061,2.0025,1.9867,1.9456,1.931,1.9188,1.9469,1.9676,1.9584,1.9581,1.962,1.9738,3.7636,3.7521,3.7521,3.7483,3.7426,3.7521,3.7483,3.7292,3.7406,3.7368,3.7273,3.7464,3.7368,3.7651,3.7833,3.8249,3.9032,3.9161,3.9581,4.0086,4.0532,4.0526,4.0537,4.056,4.0632,4.0704,4.0364,4.0468,4.0704,4.0356,3.9643,3.8653,3.8512,3.8409,3.7987,3.7406,3.6905,3.6482,3.604,3.5558,3.4937,3.4589,3.4296,3.3688,3.3428,3.3319,3.3317,3.3044,3.2868,3.2791,3.1771,3.1358,3.1735,3.1093,3.078,3.1088,3.1115,3.0839,3.0488,3.0047,2.9745,2.9063,2.8418,2.7981,2.7523,2.5969,2.5275,2.5613,2.6585,2.6357,2.5804,2.5288,2.5314,2.517,2.5023,2.4783,2.4819,2.4596,2.4567,2.4112,2.3927,2.3885,2.3784,2.3342,2.3045,2.2919,2.2738,2.2579,2.2388,2.2203,2.2015,2.1781,2.1634,2.1511,2.134,2.1214,2.1151,2.1023,2.086,2.084,2.0834,2.0668,2.0674,2.0756,2.0783,2.0716,2.0593,2.0318,2.0194,2.0445,2.0615,2.0738,2.0671,2.0664,2.0683,3.9298,3.9317,3.9317,3.8686,3.7693,3.7693,3.7693,3.7693,3.7693,3.7693,3.7731,3.7712,3.8018,3.8398,3.8621,3.9112,3.9838,4.0027,4.0318,4.0482,4.064,4.0694,4.0732,4.0769,4.0773,4.0868,4.0908,4.0927,4.0941,4.0984,4.0765,4.0052,3.9511,3.8922,3.8541,3.83,3.7858,3.7516,3.7053,3.6571,3.6339,3.5701,3.5332,3.5078,3.4334,3.423,3.4107,3.3629,3.3461,3.3251,3.2698,3.2703,3.2614,3.1629,3.1508,3.2077,3.2174,3.219,3.1809,3.1216,3.0346,3.0078,2.9579,2.9282,2.9123,2.8452,2.817,2.8347,2.8307,2.7999,2.8068,2.6947,2.6073,2.5797,2.5483,2.5114,2.4912,2.482,2.4339,2.4203,2.3969,2.3804,2.3692,2.3562,2.3271,2.307,2.2893,2.2712,2.2535,2.2388,2.2231,2.2061,2.1903,2.1784,2.1617,2.1495,2.1388,2.1214,2.1071,2.1085,2.1129,2.139,2.1412,2.1479,2.159,2.1698,2.159,2.1265,2.1171,2.1268,2.1683,2.2203,2.203,2.1711,2.1727,4.0329,4.0329,4.0329,3.9623,3.8553,3.8476,3.8457,3.8476,3.8514,3.8476,3.8457,3.8495,3.8782,3.9297,3.9482,3.9725,4.0257,4.0434,4.0534,4.0583,4.0607,4.0648,4.0688,4.0732,4.0769,4.0856,4.0877,4.0908,4.0954,4.098,4.0887,4.0714,4.0467,3.9861,3.9507,3.8994,3.8811,3.845,3.8082,3.7465,3.7214,3.6712,3.6112,3.5957,3.5312,3.5115,3.4975,3.4656,3.4417,3.4348,3.4156,3.4023,3.3565,3.3083,3.2809,3.3206,3.3716,3.379,3.297,3.196,3.0849,3.0432,3.0321,3.0275,3.0349,3.0279,2.9702,2.9711,2.9804,2.9839,2.9681,2.8438,2.724,2.6925,2.6592,2.626,2.6003,2.5819,2.5023,2.445,2.4168,2.3896,2.375,2.3638,2.3412,2.3199,2.3045,2.2893,2.2738,2.2605,2.2487,2.2304,2.2152,2.2049,2.1961,2.1768,2.1587,2.1495,2.1373,2.1344,2.1438,2.1736,2.1919,2.1862,2.207,2.2577,2.2537,2.2186,2.2063,2.1984,2.248,2.3007,2.2934,2.264,2.2773,4.031,4.0329,4.0329,4.0253,4.0062,4.0234,4.0157,3.9966,4.0024,4.0024,3.9966,4.0024,4.0043,4.0176,4.0114,4.0245,4.0319,4.0511,4.0592,4.0573,4.0583,4.064,4.0668,4.0694,4.0713,4.0784,4.0818,4.0868,4.0927,4.0971,4.0988,4.1011,4.0864,4.083,4.0861,4.0174,3.9384,3.869,3.8596,3.8118,3.7717,3.7428,3.6928,3.6326,3.6093,3.5976,3.5643,3.5583,3.5403,3.5417,3.5467,3.5201,3.464,3.5047,3.4631,3.3725,3.4909,3.475,3.346,3.2385,3.1681,3.1052,3.1012,3.0632,3.046,3.0367,3.0324,3.0123,3.0034,2.9921,2.9796,2.959,2.8615,2.802,2.7671,2.7281,2.7005,2.6579,2.5782,2.5097,2.4523,2.4094,2.3894,2.3725,2.3526,2.3342,2.3193,2.3045,2.2919,2.2816,2.2685,2.2542,2.236,2.2237,2.2135,2.1945,2.1797,2.1708,2.1653,2.1599,2.1682,2.1921,2.2077,2.2181,2.2699,2.327,2.3252,2.3161,2.3111,2.3136,2.3209,2.3505,2.3535,2.355,2.3537,4.0253,4.031,4.0329,4.0329,4.0329,4.0329,4.0329,4.0329,4.0329,4.0329,4.0329,4.0329,4.0329,4.031,4.0308,4.0344,4.0342,4.0413,4.0463,4.0531,4.0546,4.0573,4.0617,4.0654,4.0675,4.0738,4.0784,4.0906,4.0898,4.1129,4.1057,4.1003,4.1305,4.1097,4.1037,4.073,4.0447,4.0164,3.9743,3.9204,3.8899,3.84,3.7762,3.6926,3.6851,3.662,3.6152,3.6133,3.6092,3.6032,3.6007,3.5804,3.5493,3.5899,3.5597,3.5009,3.5748,3.5274,3.4373,3.366,3.3237,3.2493,3.17,3.1168,3.0665,3.0444,3.033,3.0226,3.0142,3.0034,2.9883,2.9851,2.9252,2.9034,2.8664,2.814,2.7733,2.7211,2.6561,2.595,2.5374,2.4721,2.4335,2.4378,2.4186,2.3943,2.3839,2.3364,2.313,2.302,2.2919,2.2738,2.2552,2.246,2.2321,2.2163,2.2032,2.1899,2.1913,2.1913,2.2035,2.2135,2.2583,2.2932,2.3435,2.3952,2.403,2.416,2.4304,2.4349,2.421,2.4009,2.3894,2.3943,2.4036,4.0196,4.0253,4.0253,4.0291,4.031,4.0329,4.0329,4.0329,4.0329,4.0329,4.0329,4.0329,4.0329,4.0329,4.0309,4.0307,4.0307,4.0362,4.0415,4.0466,4.0502,4.0531,4.0573,4.0631,4.0662,4.0771,4.1122,4.1332,4.147,4.1742,4.1952,4.2062,4.1909,4.189,4.1649,4.1304,4.1017,4.0774,4.0413,4.0028,3.9665,3.9188,3.8593,3.7973,3.7626,3.7377,3.6735,3.6424,3.6308,3.6172,3.6033,3.6028,3.5994,3.5978,3.5929,3.5883,3.5781,3.5496,3.508,3.4936,3.4533,3.4157,3.3006,3.1797,3.0898,3.0518,3.041,3.0324,3.0303,3.0079,2.9953,2.994,2.9815,2.9559,2.9374,2.8832,2.8647,2.8124,2.7941,2.727,2.6859,2.6013,2.529,2.499,2.5012,2.4757,2.4495,2.3993,2.3466,2.3316,2.3172,2.2927,2.2747,2.2605,2.2515,2.2405,2.226,2.2101,2.2191,2.2278,2.2153,2.2243,2.2964,2.3606,2.3919,2.4328,2.491,2.5114,2.5028,2.4894,2.4759,2.4523,2.4276,2.4407,2.4652,4.0137,4.0196,4.0196,4.0253,4.0291,4.0329,4.0329,4.0329,4.0329,4.0329,4.0329,4.0329,4.0329,4.031,4.0327,4.0308,4.0326,4.0362,4.0379,4.0396,4.0432,4.0518,4.0677,4.0737,4.1026,4.1242,4.1625,4.2164,4.2304,4.2685,4.3138,4.3347,4.3155,4.2857,4.2299,4.1916,4.1473,4.1167,4.0944,4.054,4.016,3.9915,3.9361,3.886,3.8537,3.8131,3.7629,3.7338,3.6872,3.6502,3.6152,3.6072,3.6026,3.6016,3.5955,3.5894,3.5833,3.5753,3.5663,3.5596,3.5607,3.5154,3.4168,3.2551,3.1661,3.1399,3.1314,3.1046,3.0898,3.0376,3.0007,2.9956,2.9888,2.9834,2.9836,2.9653,2.9602,2.9436,2.9382,2.9101,2.8909,2.8355,2.7769,2.7291,2.6144,2.5619,2.5362,2.5,2.4438,2.375,2.353,2.3144,2.2952,2.279,2.271,2.2836,2.3147,2.3221,2.2786,2.2742,2.2565,2.2623,2.3325,2.393,2.4213,2.462,2.5169,2.542,2.5468,2.5438,2.5775,2.5249,2.5072,2.5186,2.5392,4.0098,4.0196,4.0196,4.0234,4.0291,4.0329,4.0329,4.0329,4.0329,4.0329,4.0329,4.0329,4.0329,4.031,4.031,4.031,4.031,4.0309,4.0308,4.0382,4.0513,4.0852,4.1152,4.1447,4.1851,4.2328,4.2744,4.3001,4.3078,4.351,4.3635,4.3553,4.3868,4.3545,4.3266,4.2974,4.2182,4.1506,4.1304,4.0959,4.0749,4.0623,4.011,3.9669,3.9439,3.898,3.8444,3.8231,3.7766,3.7107,3.6933,3.6737,3.601,3.5999,3.5955,3.5911,3.5878,3.5838,3.5807,3.5791,3.5801,3.5784,3.5136,3.502,3.4051,3.3188,3.2806,3.2564,3.1793,3.123,3.0849,3.0684,3.0522,3.0395,3.0322,3.0139,3.0031,2.9847,2.9775,2.9645,2.951,2.9307,2.8924,2.8604,2.751,2.6786,2.6241,2.5991,2.5479,2.4789,2.4106,2.3678,2.3151,2.2977,2.3415,2.3604,2.4029,2.4276,2.382,2.3523,2.3627,2.3771,2.3965,2.4364,2.4882,2.5175,2.5449,2.5643,2.5762,2.6893,2.7267,2.6486,2.593,2.6115,2.6345,3.9751,4.0099,4.0138,4.0196,4.0291,4.0329,4.0329,4.0329,4.0329,4.0329,4.0329,4.0329,4.0329,4.0329,4.0329,4.031,4.031,4.0329,4.0463,4.0864,4.0806,4.1415,4.189,4.2247,4.2541,4.3119,4.3578,4.3853,4.3955,4.4344,4.4579,4.4684,4.4612,4.4374,4.4175,4.3948,4.3351,4.2494,4.1838,4.1454,4.1245,4.1139,4.0721,4.0413,4.0281,3.9809,3.9214,3.91,3.8617,3.7846,3.7634,3.7109,3.6442,3.6272,3.5981,3.5918,3.5878,3.5857,3.5826,3.5791,3.5801,3.5773,3.5747,3.5602,3.534,3.4612,3.4677,3.4597,3.3288,3.2252,3.1917,3.16,3.1309,3.1051,3.0791,3.0495,3.0255,2.9995,2.9831,2.9701,2.9548,2.9386,2.9178,2.9085,2.8847,2.8105,2.767,2.751,2.683,2.5984,2.513,2.4444,2.3744,2.3234,2.3769,2.4462,2.5118,2.5305,2.4829,2.4628,2.4703,2.4652,2.4678,2.5129,2.5735,2.5937,2.6031,2.595,2.6183,2.7552,2.8665,2.8176,2.7612,2.7338,2.7619,3.9176,3.9903,4.0039,4.0176,4.0272,4.0291,4.0291,4.0272,4.0291,4.0291,4.0291,4.0329,4.0329,4.0329,4.0329,4.0329,4.0406,4.0482,4.0864,4.1533,4.1648,4.2144,4.2755,4.3057,4.3359,4.3615,4.4021,4.4636,4.4931,4.5231,4.5599,4.6076,4.5966,4.5574,4.5064,4.5013,4.4455,4.3604,4.2883,4.2383,4.1545,4.124,4.1153,4.1061,4.093,4.0691,4.0134,3.977,3.952,3.8712,3.8137,3.7674,3.6813,3.6599,3.6241,3.593,3.5892,3.5845,3.5815,3.5807,3.5799,3.5782,3.5736,3.5718,3.5534,3.5396,3.5473,3.5399,3.418,3.3895,3.3655,3.3153,3.2781,3.2126,3.1566,3.1362,3.1159,3.0579,2.9811,2.9701,2.9626,2.9429,2.9323,2.9197,2.9067,2.8838,2.87,2.8557,2.8093,2.7157,2.6339,2.541,2.4717,2.4211,2.4396,2.5147,2.6188,2.6312,2.5846,2.5626,2.562,2.5469,2.5262,2.6149,2.7011,2.6687,2.6607,2.6792,2.7503,2.9095,2.9898,2.9832,2.9384,2.8747,2.8667,3.8854,3.9162,3.9851,4.0234,4.0272,4.0253,4.0215,4.0234,4.0157,4.0215,4.0291,4.0291,4.031,4.0291,4.0329,4.0329,4.0463,4.0864,4.1266,4.182,4.2221,4.2967,4.3656,4.3848,4.4191,4.4837,4.5269,4.531,4.5465,4.5769,4.6005,4.6026,4.6085,4.5899,4.5768,4.5745,4.5324,4.4591,4.4267,4.339,4.2338,4.1968,4.1838,4.1401,4.1081,4.1067,4.0725,4.0699,4.0239,3.9588,3.9424,3.8261,3.6442,3.6732,3.6523,3.6059,3.5943,3.5956,3.5818,3.5823,3.5815,3.5799,3.5773,3.5747,3.5718,3.5716,3.5651,3.5541,3.5446,3.5369,3.5155,3.463,3.4072,3.3206,3.2378,3.2233,3.2029,3.0974,2.9905,2.9719,2.9645,2.9568,2.9448,2.9323,2.9197,2.9093,2.9012,2.8929,2.8777,2.8148,2.761,2.6729,2.5947,2.5519,2.5567,2.5879,2.6919,2.7251,2.6869,2.6667,2.6578,2.6736,2.6928,2.7702,2.8283,2.8039,2.7948,2.8152,2.9104,3.0389,3.0658,3.0393,3.0294,2.9796,2.9734,3.8378,3.8855,3.9755,4.0176,4.0215,4.0196,4.0176,4.0138,4.0098,4.0137,4.0215,4.0234,4.0253,4.0272,4.0291,4.0616,4.0788,4.1266,4.2049,4.2641,4.3042,4.3807,4.4286,4.4593,4.4882,4.5457,4.5566,4.5629,4.5786,4.5854,4.5917,4.5994,4.6046,4.6085,4.6141,4.6138,4.5979,4.5499,4.5455,4.4676,4.341,4.3059,4.2474,4.1902,4.161,4.1504,4.1145,4.11,4.0836,4.0307,4.0027,3.9082,3.7808,3.765,3.7054,3.644,3.6164,3.6281,3.6027,3.5896,3.5869,3.5834,3.5791,3.5773,3.5756,3.5737,3.5706,3.5596,3.5501,3.5412,3.53,3.4875,3.4718,3.412,3.3382,3.295,3.2101,3.0953,3.0149,2.9701,2.9683,2.9664,2.9548,2.9427,2.9304,2.9175,2.9152,2.9173,2.9062,2.9192,2.8652,2.8057,2.7209,2.6905,2.6997,2.7192,2.7698,2.7829,2.7689,2.7774,2.7742,2.8235,2.8732,2.9185,2.9499,2.9538,2.9534,2.9534,2.9837,3.083,3.0935,3.0781,3.0808,3.0916,3.0872,3.8017,3.8948,3.9732,4.0096,4.0098,4.0157,4.0137,4.0077,4.0077,4.0076,4.0096,4.0157,4.0176,4.0215,4.0444,4.096,4.1476,4.2049,4.2889,4.3539,4.4017,4.4494,4.4897,4.5282,4.5341,4.5419,4.5532,4.5654,4.5742,4.58,4.5867,4.598,4.5994,4.6026,4.6076,4.6132,4.606,4.6037,4.5928,4.5709,4.4988,4.4208,4.3351,4.2786,4.2396,4.2032,4.1538,4.1281,4.1257,4.0867,4.0477,3.9824,3.9157,3.8768,3.819,3.7576,3.7247,3.6975,3.6417,3.6216,3.6047,3.5889,3.5854,3.5838,3.5849,3.5775,3.5747,3.5673,3.5566,3.5474,3.5345,3.5219,3.5081,3.4937,3.4236,3.3595,3.2422,3.1442,3.0958,3.0321,2.9964,2.9964,2.9757,2.962,2.9741,2.9598,2.9433,2.9361,2.9434,2.9771,2.971,2.9137,2.8406,2.8288,2.8166,2.8075,2.8182,2.8081,2.797,2.8452,2.886,2.9161,2.9574,3.0253,3.0517,3.0544,3.0671,3.07,3.1072,3.1484,3.1736,3.1832,3.1774,3.1867,3.1976,3.8341,3.9747,3.9958,4.0057,4.0077,4.0057,4.0036,4.0015,3.9973,3.9933,3.9992,4.0036,4.0098,4.0272,4.1017,4.1552,4.1991,4.2717,4.3367,4.3997,4.4628,4.5048,4.526,4.5317,4.5359,4.5419,4.5515,4.5603,4.5684,4.5757,4.5814,4.5874,4.598,4.6014,4.6026,4.6085,4.6152,4.6169,4.6193,4.5986,4.5806,4.5046,4.4228,4.3702,4.3332,4.2806,4.2331,4.2139,4.17,4.1269,4.0923,4.0682,4.035,3.9906,3.9486,3.9135,3.8786,3.7806,3.7274,3.6995,3.6807,3.6307,3.6266,3.6161,3.6068,3.5849,3.5795,3.5716,3.5628,3.5566,3.5455,3.527,3.5155,3.5105,3.467,3.4203,3.3391,3.3297,3.3185,3.2034,3.096,3.0734,3.0377,3.0691,3.1483,3.1262,3.0886,3.0793,3.0551,3.0644,3.0698,3.0141,2.953,2.8909,2.8474,2.8264,2.8254,2.8182,2.8472,2.9246,2.9729,2.9831,3.0352,3.1022,3.1308,3.1387,3.1496,3.1402,3.2156,3.2531,3.2897,3.3043,3.2883,3.2858,3.2925]}]]